[[{"header":{"parameterUnit":"m.s-1","parameterCategory":1,"la1":31.0,"la2":29.5877,"lo1":-88.7671,"lo2":-86.6584,"dy":0.0162,"dx":0.0185,"nx":115,"ny":88,"refTime":"2025-03-04T06:00:00:Z","depth":0,"parameterNumber":2,"parameterNumberName":"U-component_of_WINDS"},"data":[0.0,0.0,0.0,0.0,0.0,0.0,0.0,0.0,0.0,0.0,0.0,0.0,0.0,0.0,0.0,0.0,0.0,0.0,0.0,0.0,0.0,0.0,0.0,0.0,0.0,0.0,0.0,0.0,0.0,0.0,0.0,0.0,0.0,0.0,0.0,0.0,0.0,0.0,0.0,0.0,0.0,0.0,0.0,0.0,0.0,0.0,0.0,0.0,0.0,0.0,0.0,0.0,0.0,0.0,0.0,0.0,0.0,0.0,0.0,0.0,0.0,0.0,0.0,0.0,0.0,0.0,0.0,0.0,0.0,0.0,0.0,0.0,0.0,0.0,0.0,0.0,0.0,0.0,0.0,0.0,0.0,0.0,0.0,0.0,0.0,0.0,0.0,0.0,0.0,0.0,0.0,0.0,0.0,0.0,0.0,0.0,0.0,0.0,0.0,0.0,0.0,0.0,0.0,0.0,0.0,0.0,0.0,0.0,0.0,0.0,0.0,0.0,0.0,0.0,0.0,0.0,0.0,0.0,0.0,0.0,0.0,0.0,0.0,0.0,0.0,0.0,0.0,0.0,0.0,0.0,0.0,0.0,0.0,0.0,0.0,0.0,0.0,0.0,0.0,0.0,0.0,0.0,0.0,0.0,0.0,0.0,0.0,0.0,0.0,0.0,0.0,0.0,0.0,0.0,0.0,0.0,0.0,0.0,0.0,0.0,0.0,0.0,0.0,0.0,0.0,0.0,0.0,0.0,0.0,0.0,0.0,0.0,0.0,0.0,0.0,0.0,0.0,0.0,0.0,0.0,0.0,0.0,0.0,0.0,0.0,0.0,0.0,0.0,0.0,0.0,0.0,0.0,0.0,0.0,0.0,0.0,0.0,0.0,0.0,0.0,0.0,0.0,0.0,0.0,0.0,0.0,0.0,0.0,0.0,0.0,0.0,0.0,0.0,0.0,0.0,0.0,0.0,0.0,0.0,0.0,0.0,0.0,0.0,0.0,0.0,0.0,0.0,0.0,0.0,0.0,0.0,0.0,0.0,0.0,0.0,0.0,0.0,0.0,0.0,0.0,0.0,0.0,0.0,0.0,0.0,0.0,0.0,0.0,0.0,0.0,0.0,0.0,0.0,0.0,0.0,0.0,0.0,0.0,0.0,0.0,0.0,0.0,0.0,0.0,0.0,0.0,0.0,0.0,0.0,0.0,0.0,0.0,0.0,0.0,0.0,0.0,0.0,0.0,0.0,0.0,0.0,0.0,0.0,0.0,0.0,0.0,0.0,0.0,0.0,0.0,0.0,0.0,0.0,0.0,0.0,0.0,0.0,0.0,0.0,0.0,0.0,0.0,0.0,0.0,0.0,0.0,0.0,0.0,0.0,0.0,0.0,0.0,0.0,0.0,0.0,0.0,0.0,0.0,0.0,0.0,0.0,0.0,0.0,0.0,0.0,0.0,0.0,0.0,0.0,0.0,0.0,0.0,0.0,0.0,0.0,0.0,0.0,0.0,0.0,0.0,0.0,0.0,0.0,0.0,0.0,0.0,0.0,0.0,0.0,0.0,0.0,0.0,0.0,0.0,0.0,0.0,0.0,0.0,0.0,0.0,0.0,0.0,0.0,0.0,0.0,0.0,0.0,0.0,0.0,0.0,0.0,0.0,0.0,0.0,0.0,0.0,0.0,0.0,0.0,0.0,0.0,0.0,0.0,0.0,0.0,0.0,0.0,0.0,0.0,0.0,0.0,0.0,0.0,0.0,0.0,0.0,0.0,0.0,0.0,0.0,0.0,0.0,0.0,0.0,0.0,0.0,0.0,0.0,0.0,0.0,0.0,0.0,0.0,0.0,0.0,0.0,0.0,0.0,0.0,0.0,0.0,0.0,0.0,0.0,0.0,0.0,0.0,0.0,0.0,0.0,0.0,0.0,0.0,0.0,0.0,0.0,0.0,0.0,0.0,0.0,0.0,0.0,0.0,0.0,0.0,0.0,0.0,0.0,0.0,0.0,0.0,0.0,0.0,0.0,0.0,0.0,0.0,0.0,0.0,0.0,0.0,0.0,0.0,0.0,0.0,0.0,0.0,0.0,0.0,0.0,0.0,0.0,0.0,0.0,0.0,0.0,0.0,0.0,0.0,0.0,0.0,0.0,0.0,0.0,0.0,0.0,0.0,0.0,0.0,0.0,0.0,0.0,0.0,0.0,0.0,0.0,0.0,0.0,0.0,0.0,0.0,0.0,0.0,0.0,0.0,0.0,0.0,0.0,0.0,0.0,0.0,0.0,0.0,0.0,0.0,0.0,0.0,0.0,0.0,0.0,0.0,0.0,0.0,0.0,0.0,0.0,0.0,0.0,0.0,0.0,0.0,0.0,0.0,0.0,0.0,0.0,0.0,0.0,0.0,0.0,0.0,0.0,0.0,0.0,0.0,0.0,0.0,0.0,0.0,0.0,0.0,0.0,0.0,0.0,0.0,0.0,0.0,0.0,0.0,0.0,0.0,0.0,0.0,0.0,0.0,0.0,0.0,0.0,0.0,0.0,0.0,0.0,0.0,0.0,0.0,0.0,0.0,0.0,0.0,0.0,0.0,0.0,0.0,0.0,0.0,0.0,0.0,0.0,0.0,0.0,0.0,0.0,0.0,0.0,0.0,0.0,0.0,0.0,0.0,0.0,0.0,0.0,0.0,0.0,0.0,0.0,0.0,0.0,0.0,0.0,0.0,0.0,0.0,0.0,0.0,0.0,0.0,0.0,0.0,0.0,0.0,0.0,0.0,0.0,0.0,0.0,0.0,0.0,0.0,0.0,0.0,0.0,0.0,0.0,0.0,0.0,0.0,0.0,0.0,0.0,0.0,0.0,0.0,0.0,0.0,0.0,0.0,0.0,0.0,0.0,0.0,0.0,0.0,0.0,0.0,0.0,0.0,0.0,0.0,0.0,0.0,0.0,0.0,0.0,0.0,0.0,0.0,0.0,0.0,0.0,0.0,0.0,0.0,0.0,0.0,0.0,0.0,0.0,0.0,0.0,0.0,0.0,0.0,0.0,0.0,0.0,0.0,0.0,0.0,0.0,0.0,0.0,0.0,0.0,0.0,0.0,0.0,0.0,0.0,0.0,0.0,0.0,0.0,0.0,0.0,0.0,0.0,0.0,0.0,0.0,0.0,0.0,0.0,0.0,0.0,0.0,0.0,0.0,0.0,0.0,0.0,0.0,0.0,0.0,0.0,0.0,0.0,0.0,0.0,0.0,0.0,0.0,0.0,0.0,0.0,0.0,0.0,0.0,0.0,0.0,0.0,0.0,0.0,0.0,0.0,0.0,0.0,0.0,0.0,0.0,0.0,0.0,0.0,0.0,0.0,0.0,0.0,0.0,0.0,0.0,0.0,0.0,0.0,0.0,0.0,0.0,0.0,0.0,0.0,0.0,0.0,0.0,0.0,0.0,0.0,0.0,0.0,0.0,0.0,0.0,0.0,0.0,0.0,0.0,0.0,0.0,0.0,0.0,0.0,0.0,0.0,0.0,0.0,0.0,0.0,0.0,0.0,0.0,0.0,0.0,0.0,0.0,0.0,0.0,0.0,0.0,0.0,0.0,0.0,0.0,0.0,0.0,0.0,0.0,0.0,0.0,0.0,0.0,0.0,0.0,0.0,0.0,0.0,0.0,0.0,0.0,0.0,0.0,0.0,0.0,0.0,0.0,0.0,0.0,0.0,0.0,0.0,0.0,0.0,0.0,0.0,0.0,0.0,0.0,0.0,0.0,0.0,0.0,0.0,0.0,0.0,0.0,0.0,0.0,0.0,0.0,0.0,0.0,0.0,0.0,0.0,0.0,0.0,0.0,0.0,0.0,0.0,0.0,0.0,0.0,0.0,0.0,0.0,0.0,0.0,0.0,0.0,0.0,0.0,0.0,0.0,0.0,0.0,0.0,0.0,0.0,0.0,0.0,0.0,0.0,0.0,0.0,0.0,0.0,0.0,0.0,0.0,0.0,0.0,0.0,0.0,0.0,0.0,0.0,0.0,0.0,0.0,0.0,0.0,0.0,0.0,0.0,0.0,0.0,0.0,0.0,0.0,0.0,0.0,0.0,0.0,0.0,0.0,0.0,0.0,0.0,0.0,0.0,0.0,0.0,0.0,0.0,0.0,0.0,0.0,0.0,0.0,0.0,0.0,0.0,0.0,0.0,0.0,0.0,0.0,0.0,0.0,0.0,0.0,0.0,0.0,0.0,0.0,0.0,0.0,0.0,0.0,0.0,0.0,0.0,0.0,0.0,0.0,0.0,0.0,0.0,-2.8437,0.0,0.0,0.0,0.0,0.0,0.0,0.0,0.0,0.0,0.0,0.0,0.0,0.0,0.0,0.0,0.0,0.0,0.0,0.0,0.0,0.0,0.0,0.0,0.0,0.0,0.0,0.0,0.0,0.0,0.0,0.0,0.0,0.0,0.0,0.0,0.0,0.0,0.0,0.0,0.0,0.0,0.0,0.0,0.0,0.0,0.0,0.0,0.0,0.0,0.0,0.0,0.0,0.0,0.0,0.0,0.0,0.0,0.0,0.0,0.0,0.0,0.0,0.0,0.0,0.0,0.0,0.0,0.0,0.0,0.0,0.0,0.0,0.0,0.0,0.0,0.0,0.0,0.0,0.0,0.0,0.0,0.0,0.0,0.0,0.0,0.0,0.0,0.0,0.0,0.0,0.0,0.0,0.0,0.0,0.0,0.0,0.0,0.0,0.0,0.0,0.0,0.0,0.0,0.0,0.0,0.0,0.0,0.0,0.0,0.0,-3.0898,-3.0898,-2.9219,-2.8281,-2.8281,0.0,0.0,0.0,0.0,0.0,0.0,0.0,0.0,0.0,0.0,0.0,0.0,0.0,0.0,0.0,0.0,0.0,0.0,0.0,0.0,0.0,0.0,0.0,0.0,0.0,0.0,0.0,0.0,0.0,0.0,0.0,0.0,0.0,0.0,0.0,0.0,0.0,0.0,0.0,0.0,0.0,0.0,0.0,0.0,0.0,0.0,0.0,0.0,0.0,0.0,0.0,0.0,0.0,0.0,0.0,0.0,0.0,0.0,0.0,0.0,0.0,0.0,0.0,0.0,0.0,0.0,0.0,0.0,0.0,0.0,0.0,0.0,0.0,0.0,0.0,0.0,0.0,0.0,0.0,0.0,0.0,0.0,0.0,0.0,0.0,0.0,0.0,0.0,0.0,0.0,0.0,0.0,0.0,0.0,0.0,0.0,0.0,0.0,0.0,0.0,0.0,0.0,0.0,0.0,0.0,0.0,0.0,0.0,0.0,0.0,0.0,0.0,-3.0156,-2.9375,-2.918,0.0,0.0,0.0,0.0,0.0,0.0,0.0,0.0,0.0,0.0,0.0,0.0,0.0,0.0,0.0,0.0,0.0,0.0,0.0,0.0,0.0,0.0,0.0,0.0,0.0,0.0,0.0,0.0,0.0,0.0,0.0,0.0,0.0,0.0,0.0,0.0,0.0,0.0,0.0,0.0,0.0,0.0,0.0,0.0,0.0,0.0,0.0,0.0,0.0,0.0,0.0,0.0,0.0,0.0,0.0,0.0,0.0,0.0,0.0,0.0,0.0,0.0,0.0,0.0,0.0,0.0,0.0,0.0,0.0,0.0,0.0,0.0,0.0,0.0,0.0,0.0,0.0,0.0,0.0,0.0,0.0,0.0,0.0,0.0,0.0,0.0,0.0,0.0,0.0,0.0,0.0,0.0,0.0,0.0,0.0,0.0,0.0,0.0,0.0,0.0,0.0,0.0,0.0,0.0,0.0,0.0,0.0,0.0,0.0,0.0,-3.082,-3.3086,-3.3008,0.0,-3.1914,0.0,0.0,0.0,0.0,0.0,0.0,0.0,0.0,0.0,0.0,0.0,0.0,0.0,0.0,0.0,0.0,0.0,0.0,0.0,0.0,0.0,0.0,0.0,0.0,0.0,0.0,0.0,0.0,0.0,0.0,0.0,0.0,0.0,0.0,0.0,0.0,0.0,0.0,0.0,0.0,0.0,0.0,0.0,0.0,0.0,0.0,0.0,0.0,0.0,0.0,0.0,0.0,0.0,0.0,0.0,0.0,0.0,0.0,0.0,0.0,0.0,0.0,0.0,0.0,0.0,0.0,0.0,0.0,0.0,0.0,0.0,0.0,0.0,0.0,0.0,0.0,0.0,0.0,0.0,0.0,0.0,0.0,0.0,0.0,0.0,0.0,0.0,0.0,0.0,0.0,0.0,0.0,0.0,0.0,0.0,0.0,0.0,0.0,0.0,0.0,0.0,0.0,0.0,0.0,0.0,0.0,0.0,0.0,0.0,0.0,-3.2344,-3.3359,-3.293,-3.2305,0.0,0.0,0.0,0.0,0.0,0.0,0.0,0.0,0.0,0.0,0.0,0.0,0.0,0.0,0.0,0.0,0.0,0.0,0.0,0.0,0.0,0.0,0.0,0.0,0.0,0.0,0.0,0.0,0.0,0.0,0.0,0.0,0.0,0.0,0.0,0.0,0.0,0.0,0.0,0.0,0.0,0.0,0.0,0.0,0.0,0.0,0.0,0.0,0.0,0.0,0.0,0.0,0.0,0.0,0.0,0.0,0.0,0.0,0.0,0.0,0.0,0.0,0.0,0.0,0.0,0.0,0.0,0.0,0.0,0.0,0.0,0.0,0.0,0.0,0.0,0.0,0.0,0.0,0.0,0.0,0.0,0.0,0.0,0.0,0.0,0.0,0.0,0.0,0.0,0.0,0.0,0.0,0.0,0.0,0.0,0.0,0.0,0.0,0.0,0.0,0.0,0.0,0.0,0.0,0.0,0.0,0.0,0.0,0.0,0.0,-3.2305,-3.3516,-3.4336,-3.3437,-3.2266,-3.0937,0.0,0.0,0.0,0.0,0.0,0.0,0.0,0.0,0.0,0.0,0.0,0.0,0.0,0.0,0.0,0.0,0.0,0.0,0.0,0.0,0.0,0.0,0.0,0.0,0.0,0.0,0.0,0.0,0.0,0.0,0.0,0.0,0.0,0.0,0.0,0.0,0.0,0.0,0.0,0.0,0.0,0.0,0.0,0.0,0.0,0.0,0.0,0.0,0.0,0.0,0.0,0.0,0.0,0.0,0.0,0.0,0.0,0.0,0.0,0.0,0.0,0.0,0.0,0.0,0.0,0.0,0.0,0.0,0.0,0.0,0.0,0.0,0.0,0.0,0.0,0.0,0.0,0.0,0.0,0.0,0.0,0.0,0.0,0.0,0.0,0.0,0.0,0.0,0.0,0.0,0.0,0.0,0.0,0.0,0.0,0.0,0.0,0.0,0.0,0.0,0.0,0.0,0.0,0.0,0.0,0.0,0.0,0.0,-3.6289,-3.3789,-3.3828,-3.6953,-3.5469,-3.3437,0.0,0.0,0.0,0.0,0.0,0.0,0.0,0.0,0.0,0.0,0.0,0.0,0.0,0.0,0.0,0.0,0.0,0.0,0.0,0.0,0.0,0.0,0.0,0.0,0.0,0.0,0.0,0.0,0.0,0.0,0.0,0.0,0.0,0.0,0.0,0.0,0.0,0.0,0.0,0.0,0.0,0.0,0.0,0.0,0.0,0.0,0.0,0.0,0.0,0.0,0.0,0.0,0.0,0.0,0.0,0.0,0.0,0.0,0.0,0.0,0.0,0.0,0.0,0.0,0.0,0.0,0.0,0.0,0.0,0.0,0.0,0.0,0.0,0.0,0.0,0.0,0.0,0.0,0.0,0.0,0.0,0.0,0.0,0.0,0.0,0.0,0.0,0.0,0.0,0.0,0.0,0.0,0.0,0.0,0.0,0.0,0.0,0.0,0.0,0.0,0.0,0.0,0.0,0.0,0.0,0.0,0.0,0.0,0.0,-2.9766,-3.082,-3.3789,-3.8555,-3.4648,-3.2617,0.0,0.0,0.0,0.0,0.0,0.0,0.0,0.0,0.0,0.0,0.0,0.0,0.0,0.0,0.0,0.0,0.0,0.0,0.0,0.0,0.0,0.0,0.0,0.0,0.0,0.0,0.0,0.0,0.0,0.0,0.0,0.0,0.0,0.0,0.0,0.0,0.0,0.0,0.0,0.0,0.0,0.0,0.0,0.0,0.0,0.0,0.0,0.0,0.0,0.0,0.0,0.0,0.0,0.0,0.0,0.0,0.0,0.0,0.0,0.0,0.0,0.0,0.0,0.0,0.0,0.0,0.0,0.0,0.0,0.0,0.0,0.0,0.0,0.0,0.0,0.0,0.0,0.0,0.0,0.0,0.0,0.0,0.0,0.0,0.0,0.0,0.0,0.0,0.0,0.0,0.0,0.0,0.0,0.0,0.0,0.0,0.0,0.0,0.0,0.0,0.0,0.0,0.0,0.0,0.0,0.0,0.0,0.0,0.0,-2.8594,0.0,-3.4961,-3.7851,-3.4023,-3.1719,0.0,0.0,0.0,0.0,0.0,0.0,0.0,0.0,0.0,0.0,0.0,0.0,0.0,0.0,0.0,0.0,0.0,0.0,0.0,0.0,0.0,0.0,0.0,0.0,0.0,0.0,0.0,0.0,0.0,0.0,0.0,0.0,0.0,0.0,0.0,0.0,0.0,0.0,0.0,0.0,0.0,0.0,0.0,0.0,0.0,0.0,0.0,0.0,0.0,0.0,0.0,0.0,0.0,0.0,0.0,0.0,0.0,0.0,0.0,0.0,0.0,0.0,0.0,0.0,0.0,0.0,0.0,0.0,0.0,0.0,0.0,0.0,0.0,0.0,0.0,0.0,0.0,0.0,0.0,0.0,0.0,0.0,0.0,0.0,0.0,0.0,0.0,0.0,0.0,0.0,0.0,0.0,0.0,0.0,0.0,0.0,0.0,0.0,0.0,0.0,0.0,0.0,0.0,0.0,0.0,0.0,0.0,0.0,-2.8672,-3.4297,-3.6953,-3.7109,-3.4883,-3.3789,-3.0976,0.0,0.0,0.0,0.0,0.0,0.0,0.0,0.0,0.0,0.0,0.0,0.0,0.0,0.0,0.0,0.0,0.0,0.0,0.0,0.0,0.0,0.0,0.0,0.0,0.0,0.0,0.0,0.0,0.0,0.0,0.0,0.0,0.0,0.0,0.0,0.0,0.0,0.0,0.0,0.0,0.0,0.0,0.0,0.0,0.0,0.0,0.0,0.0,0.0,0.0,0.0,0.0,0.0,0.0,0.0,0.0,0.0,0.0,0.0,0.0,0.0,0.0,0.0,0.0,0.0,0.0,0.0,0.0,0.0,0.0,0.0,0.0,0.0,0.0,0.0,0.0,0.0,0.0,0.0,0.0,0.0,0.0,0.0,0.0,0.0,0.0,0.0,0.0,0.0,0.0,0.0,0.0,0.0,0.0,0.0,0.0,0.0,0.0,0.0,0.0,0.0,0.0,0.0,0.0,0.0,0.0,0.0,0.0,0.0,-3.125,-3.4297,-3.6406,-3.7187,-3.3086,-3.1133,0.0,0.0,0.0,0.0,0.0,0.0,0.0,0.0,0.0,0.0,0.0,0.0,0.0,0.0,0.0,0.0,0.0,0.0,0.0,0.0,0.0,0.0,0.0,0.0,0.0,0.0,0.0,0.0,0.0,0.0,0.0,0.0,0.0,0.0,0.0,0.0,0.0,0.0,0.0,0.0,0.0,0.0,0.0,0.0,0.0,0.0,0.0,0.0,0.0,0.0,0.0,0.0,0.0,0.0,0.0,0.0,0.0,0.0,0.0,0.0,0.0,0.0,0.0,0.0,0.0,0.0,0.0,0.0,0.0,0.0,0.0,0.0,0.0,0.0,0.0,0.0,0.0,0.0,0.0,0.0,0.0,0.0,0.0,0.0,0.0,0.0,0.0,0.0,0.0,0.0,0.0,0.0,0.0,0.0,0.0,0.0,0.0,0.0,0.0,0.0,0.0,0.0,0.0,0.0,0.0,0.0,0.0,0.0,0.0,-3.457,-3.7422,-3.9023,-3.9101,-3.5117,-3.2734,-3.2266,0.0,0.0,0.0,0.0,0.0,0.0,0.0,0.0,0.0,0.0,0.0,0.0,0.0,0.0,0.0,0.0,0.0,0.0,0.0,0.0,0.0,0.0,0.0,0.0,0.0,0.0,0.0,0.0,0.0,0.0,0.0,0.0,0.0,0.0,0.0,0.0,0.0,0.0,0.0,0.0,0.0,0.0,0.0,0.0,0.0,0.0,0.0,0.0,0.0,0.0,0.0,0.0,0.0,0.0,0.0,0.0,0.0,0.0,0.0,0.0,0.0,0.0,0.0,0.0,0.0,0.0,0.0,0.0,0.0,0.0,0.0,0.0,0.0,0.0,0.0,0.0,0.0,0.0,0.0,0.0,0.0,0.0,0.0,0.0,0.0,0.0,0.0,0.0,0.0,0.0,0.0,0.0,0.0,0.0,0.0,0.0,0.0,0.0,0.0,0.0,0.0,0.0,0.0,0.0,0.0,0.0,0.0,0.0,-4.2734,-4.5469,-4.4883,-4.0781,-3.9258,-3.5547,0.0,0.0,0.0,0.0,0.0,0.0,0.0,0.0,0.0,0.0,0.0,0.0,0.0,0.0,0.0,0.0,0.0,0.0,0.0,0.0,0.0,0.0,0.0,0.0,0.0,0.0,0.0,0.0,0.0,0.0,0.0,0.0,0.0,0.0,0.0,0.0,0.0,0.0,0.0,0.0,0.0,0.0,0.0,0.0,0.0,0.0,0.0,0.0,0.0,0.0,0.0,0.0,0.0,0.0,0.0,0.0,0.0,0.0,0.0,0.0,0.0,0.0,0.0,0.0,0.0,0.0,0.0,0.0,0.0,0.0,0.0,0.0,0.0,0.0,0.0,0.0,0.0,0.0,0.0,0.0,0.0,0.0,0.0,0.0,0.0,0.0,0.0,0.0,0.0,0.0,0.0,0.0,0.0,0.0,0.0,0.0,0.0,0.0,0.0,0.0,0.0,0.0,0.0,0.0,0.0,0.0,0.0,0.0,0.0,-4.7148,-5.1601,-5.2148,-4.8398,-4.2031,-3.7773,0.0,0.0,0.0,0.0,0.0,0.0,0.0,0.0,0.0,0.0,0.0,0.0,0.0,0.0,0.0,0.0,0.0,0.0,0.0,0.0,0.0,0.0,0.0,0.0,0.0,0.0,0.0,0.0,0.0,0.0,0.0,0.0,0.0,0.0,0.0,0.0,0.0,0.0,0.0,0.0,0.0,0.0,0.0,0.0,0.0,0.0,0.0,0.0,0.0,0.0,0.0,0.0,0.0,0.0,0.0,0.0,0.0,0.0,0.0,0.0,0.0,0.0,0.0,0.0,0.0,0.0,0.0,0.0,0.0,0.0,0.0,0.0,0.0,0.0,0.0,0.0,0.0,0.0,0.0,0.0,0.0,0.0,0.0,0.0,0.0,0.0,0.0,0.0,0.0,0.0,0.0,0.0,0.0,0.0,0.0,0.0,0.0,0.0,0.0,0.0,0.0,0.0,0.0,0.0,0.0,0.0,0.0,0.0,-4.5664,-5.043,-5.5195,-5.6875,-5.5195,-4.7578,-4.1719,0.0,0.0,0.0,0.0,0.0,0.0,0.0,0.0,0.0,0.0,0.0,0.0,0.0,0.0,0.0,0.0,0.0,0.0,0.0,0.0,0.0,0.0,0.0,0.0,0.0,0.0,0.0,0.0,0.0,0.0,0.0,0.0,0.0,0.0,0.0,0.0,0.0,0.0,0.0,0.0,0.0,0.0,0.0,0.0,0.0,0.0,0.0,0.0,0.0,0.0,0.0,0.0,0.0,0.0,0.0,0.0,0.0,0.0,0.0,0.0,0.0,0.0,0.0,0.0,0.0,0.0,0.0,0.0,0.0,0.0,0.0,0.0,0.0,0.0,0.0,0.0,0.0,0.0,0.0,0.0,0.0,0.0,0.0,0.0,0.0,0.0,0.0,0.0,0.0,0.0,0.0,0.0,0.0,0.0,0.0,0.0,0.0,0.0,0.0,0.0,0.0,0.0,0.0,0.0,0.0,0.0,0.0,0.0,-4.8633,-5.293,-5.7226,-5.9765,-6.0156,-5.3672,-4.6289,0.0,0.0,0.0,0.0,0.0,0.0,0.0,0.0,0.0,0.0,0.0,0.0,0.0,0.0,0.0,0.0,0.0,0.0,0.0,0.0,0.0,0.0,0.0,0.0,0.0,0.0,0.0,0.0,0.0,0.0,0.0,0.0,0.0,0.0,0.0,0.0,0.0,0.0,0.0,0.0,0.0,0.0,0.0,0.0,0.0,0.0,0.0,0.0,0.0,0.0,0.0,0.0,0.0,0.0,0.0,0.0,0.0,0.0,0.0,0.0,0.0,0.0,0.0,0.0,0.0,0.0,0.0,0.0,0.0,0.0,0.0,0.0,0.0,0.0,0.0,0.0,0.0,0.0,0.0,0.0,0.0,0.0,0.0,0.0,0.0,0.0,0.0,0.0,0.0,0.0,0.0,0.0,0.0,0.0,0.0,0.0,0.0,0.0,0.0,0.0,0.0,0.0,0.0,0.0,0.0,0.0,0.0,0.0,-5.043,-5.4687,-5.8945,-6.0898,-6.039,-5.3125,-4.7031,0.0,0.0,0.0,0.0,0.0,0.0,0.0,0.0,0.0,0.0,0.0,0.0,0.0,0.0,0.0,0.0,0.0,0.0,0.0,0.0,0.0,0.0,0.0,0.0,0.0,0.0,0.0,0.0,0.0,0.0,0.0,0.0,0.0,0.0,0.0,0.0,0.0,0.0,0.0,0.0,0.0,0.0,0.0,0.0,0.0,0.0,0.0,0.0,-3.0117,0.0,0.0,0.0,0.0,0.0,0.0,0.0,0.0,0.0,0.0,0.0,0.0,0.0,0.0,0.0,0.0,0.0,0.0,0.0,0.0,0.0,0.0,0.0,0.0,0.0,0.0,0.0,0.0,0.0,0.0,0.0,0.0,0.0,0.0,0.0,0.0,0.0,0.0,0.0,0.0,0.0,0.0,0.0,0.0,0.0,0.0,0.0,0.0,0.0,0.0,0.0,0.0,0.0,0.0,0.0,0.0,0.0,0.0,0.0,-5.2148,-5.6445,-5.9922,-6.1484,-6.082,-5.5469,-4.9922,0.0,0.0,0.0,0.0,0.0,0.0,0.0,0.0,0.0,0.0,0.0,0.0,0.0,0.0,0.0,0.0,0.0,0.0,0.0,0.0,0.0,0.0,0.0,0.0,0.0,0.0,0.0,0.0,0.0,0.0,0.0,0.0,0.0,0.0,0.0,0.0,0.0,0.0,0.0,0.0,0.0,0.0,0.0,0.0,0.0,0.0,0.0,0.0,0.0,0.0,0.0,0.0,0.0,0.0,0.0,0.0,0.0,0.0,0.0,0.0,0.0,0.0,0.0,0.0,0.0,0.0,0.0,0.0,0.0,0.0,0.0,0.0,0.0,0.0,0.0,0.0,0.0,0.0,0.0,0.0,0.0,0.0,0.0,0.0,0.0,0.0,0.0,0.0,0.0,0.0,0.0,0.0,0.0,0.0,0.0,0.0,0.0,0.0,0.0,0.0,0.0,0.0,0.0,0.0,0.0,0.0,0.0,-4.7695,-5.3398,-5.8125,-6.0508,-6.1719,-6.164,-5.8281,-5.2851,-4.5508,0.0,0.0,0.0,0.0,0.0,0.0,0.0,0.0,0.0,0.0,0.0,0.0,0.0,0.0,0.0,0.0,0.0,0.0,0.0,0.0,0.0,0.0,0.0,0.0,0.0,0.0,0.0,0.0,0.0,0.0,0.0,0.0,0.0,0.0,0.0,0.0,0.0,0.0,-2.9291,-3.1648,0.0,0.0,0.0,0.0,0.0,0.0,0.0,0.0,-3.173,0.0,0.0,0.0,0.0,0.0,0.0,0.0,0.0,0.0,0.0,0.0,0.0,0.0,0.0,0.0,0.0,0.0,0.0,0.0,0.0,0.0,0.0,0.0,0.0,0.0,0.0,0.0,0.0,0.0,0.0,0.0,0.0,0.0,0.0,0.0,0.0,0.0,0.0,0.0,0.0,0.0,0.0,0.0,0.0,0.0,0.0,0.0,0.0,0.0,0.0,0.0,0.0,0.0,0.0,0.0,0.0,-4.7266,-4.8672,-5.2773,-5.9805,-6.1094,-6.1719,-6.1601,-5.7695,-5.2539,-4.6328,0.0,0.0,0.0,0.0,0.0,0.0,0.0,0.0,0.0,0.0,0.0,0.0,0.0,0.0,0.0,0.0,0.0,0.0,0.0,0.0,0.0,0.0,0.0,0.0,0.0,0.0,0.0,0.0,0.0,0.0,0.0,0.0,0.0,0.0,0.0,0.0,0.0,0.0,0.0,-3.7094,-3.835,0.0,0.0,0.0,0.0,0.0,0.0,0.0,0.0,-3.2122,0.0,0.0,0.0,0.0,0.0,0.0,0.0,0.0,0.0,0.0,0.0,0.0,0.0,0.0,0.0,0.0,0.0,0.0,0.0,0.0,0.0,0.0,0.0,0.0,0.0,0.0,0.0,0.0,0.0,0.0,0.0,0.0,0.0,0.0,0.0,0.0,0.0,0.0,0.0,0.0,0.0,0.0,0.0,0.0,0.0,0.0,0.0,0.0,0.0,0.0,0.0,0.0,0.0,0.0,0.0,-4.6601,-5.0859,-5.5547,-6.0859,-6.1484,-6.1484,-6.0937,-5.6445,-5.1328,0.0,0.0,0.0,0.0,0.0,0.0,0.0,0.0,0.0,0.0,0.0,0.0,0.0,0.0,0.0,0.0,0.0,0.0,0.0,0.0,0.0,0.0,0.0,0.0,0.0,0.0,0.0,0.0,0.0,0.0,0.0,0.0,0.0,0.0,0.0,0.0,0.0,0.0,0.0,0.0,-3.8782,-4.0604,-4.1709,0.0,0.0,0.0,0.0,0.0,0.0,-3.5192,-3.3192,0.0,0.0,0.0,0.0,0.0,0.0,0.0,0.0,0.0,0.0,0.0,0.0,0.0,0.0,0.0,0.0,0.0,0.0,0.0,0.0,0.0,0.0,0.0,0.0,0.0,0.0,0.0,0.0,0.0,0.0,0.0,0.0,0.0,0.0,0.0,0.0,0.0,0.0,0.0,0.0,0.0,0.0,0.0,0.0,0.0,0.0,0.0,0.0,0.0,0.0,0.0,0.0,0.0,0.0,0.0,-4.5312,-5.2226,-5.7734,-6.1484,-6.1719,-6.1289,-6.0351,-5.5547,-5.0469,0.0,0.0,0.0,0.0,0.0,0.0,0.0,0.0,0.0,0.0,0.0,0.0,0.0,0.0,0.0,0.0,0.0,0.0,0.0,0.0,0.0,0.0,0.0,0.0,0.0,0.0,0.0,0.0,0.0,0.0,0.0,0.0,0.0,0.0,0.0,0.0,0.0,0.0,0.0,0.0,0.0,-4.2517,-4.3819,-4.1193,0.0,0.0,0.0,0.0,-3.9164,-3.8092,0.0,0.0,0.0,0.0,0.0,0.0,0.0,0.0,0.0,0.0,0.0,0.0,0.0,0.0,0.0,0.0,0.0,0.0,0.0,0.0,0.0,0.0,0.0,0.0,0.0,0.0,0.0,0.0,0.0,0.0,0.0,0.0,0.0,0.0,0.0,0.0,0.0,0.0,0.0,0.0,0.0,0.0,0.0,0.0,0.0,0.0,0.0,0.0,0.0,0.0,0.0,0.0,0.0,0.0,0.0,0.0,-4.5976,-5.0742,-5.5937,-6.1367,-6.1719,-6.1289,-6.039,-5.6133,-5.1055,0.0,0.0,0.0,0.0,0.0,0.0,0.0,0.0,0.0,0.0,0.0,0.0,0.0,0.0,0.0,0.0,0.0,0.0,0.0,0.0,0.0,0.0,0.0,0.0,0.0,0.0,0.0,0.0,0.0,0.0,0.0,0.0,0.0,0.0,0.0,0.0,0.0,0.0,0.0,0.0,0.0,-4.547,-4.3517,-4.2857,-4.2019,0.0,0.0,-4.2483,-4.3466,-4.5227,0.0,0.0,0.0,0.0,0.0,0.0,0.0,0.0,0.0,0.0,0.0,0.0,0.0,0.0,0.0,0.0,0.0,0.0,0.0,0.0,0.0,0.0,0.0,0.0,0.0,0.0,0.0,0.0,0.0,0.0,0.0,0.0,0.0,0.0,0.0,0.0,0.0,0.0,0.0,0.0,0.0,0.0,0.0,0.0,0.0,0.0,0.0,0.0,0.0,0.0,0.0,0.0,0.0,0.0,0.0,-4.0976,-4.6328,-5.2969,-5.8125,-6.1562,-6.1719,-6.1055,-5.9726,-5.4141,-4.8711,0.0,0.0,0.0,0.0,0.0,0.0,0.0,0.0,0.0,0.0,0.0,0.0,0.0,0.0,0.0,0.0,0.0,0.0,0.0,0.0,0.0,0.0,0.0,0.0,0.0,0.0,0.0,0.0,0.0,0.0,0.0,0.0,0.0,0.0,0.0,0.0,0.0,0.0,0.0,0.0,0.0,0.0,-4.6777,-4.6744,0.0,0.0,0.0,-4.5603,-4.6482,0.0,0.0,0.0,0.0,0.0,0.0,0.0,0.0,0.0,0.0,0.0,0.0,0.0,0.0,0.0,0.0,0.0,0.0,0.0,0.0,0.0,0.0,0.0,0.0,0.0,0.0,0.0,0.0,0.0,0.0,0.0,0.0,0.0,0.0,0.0,0.0,0.0,0.0,0.0,0.0,0.0,0.0,0.0,0.0,0.0,0.0,0.0,0.0,0.0,0.0,0.0,0.0,0.0,0.0,0.0,0.0,0.0,-4.6367,-5.4805,-6.0,-6.164,-6.1719,-6.0898,-5.914,-5.332,0.0,0.0,0.0,0.0,0.0,0.0,0.0,0.0,0.0,0.0,0.0,0.0,0.0,0.0,0.0,0.0,0.0,0.0,0.0,0.0,0.0,0.0,0.0,0.0,0.0,0.0,0.0,-2.1523,0.0,0.0,0.0,0.0,0.0,0.0,0.0,0.0,0.0,0.0,0.0,0.0,0.0,0.0,-4.7472,-4.8747,-4.9744,-5.045,0.0,0.0,-4.875,-4.9504,-5.0396,-4.8469,0.0,0.0,0.0,0.0,0.0,0.0,0.0,0.0,0.0,0.0,0.0,0.0,0.0,0.0,0.0,0.0,0.0,0.0,0.0,0.0,0.0,0.0,0.0,0.0,0.0,0.0,0.0,0.0,0.0,0.0,0.0,0.0,0.0,0.0,0.0,0.0,0.0,0.0,0.0,0.0,0.0,0.0,0.0,0.0,0.0,0.0,0.0,0.0,0.0,0.0,0.0,0.0,0.0,0.0,-4.2891,-4.6445,-5.4805,-6.0,-6.164,-6.1719,-6.0898,-5.918,-5.5586,-5.0117,0.0,0.0,0.0,0.0,0.0,0.0,0.0,0.0,0.0,0.0,0.0,0.0,0.0,0.0,0.0,0.0,0.0,0.0,0.0,0.0,0.0,0.0,0.0,0.0,0.0,0.0,0.0,0.0,0.0,0.0,0.0,0.0,0.0,0.0,0.0,0.0,0.0,0.0,0.0,0.0,0.0,-4.7032,-4.7083,-5.0486,-5.3329,0.0,-5.3446,-5.2875,-5.2868,-5.6137,-5.4857,-4.3478,0.0,0.0,0.0,0.0,0.0,0.0,0.0,0.0,0.0,0.0,0.0,0.0,0.0,0.0,0.0,0.0,0.0,0.0,0.0,0.0,0.0,0.0,0.0,0.0,0.0,0.0,0.0,0.0,0.0,0.0,0.0,0.0,0.0,0.0,0.0,0.0,0.0,0.0,0.0,0.0,0.0,0.0,0.0,0.0,0.0,0.0,0.0,0.0,0.0,0.0,0.0,0.0,0.0,-4.2891,-4.6328,-5.4805,-6.0,-6.1601,-6.1719,-6.0898,-5.9258,-5.582,-5.0351,0.0,0.0,0.0,0.0,0.0,0.0,0.0,0.0,0.0,0.0,0.0,0.0,0.0,0.0,0.0,0.0,0.0,0.0,0.0,0.0,0.0,0.0,0.0,0.0,0.0,0.0,0.0,0.0,-2.7578,-2.7578,-2.543,0.0,0.0,0.0,0.0,0.0,0.0,0.0,0.0,0.0,0.0,-4.8848,-5.2008,-5.4246,0.0,0.0,-5.5756,-5.5391,-5.4829,-5.5241,-5.2856,-4.4662,-4.1623,0.0,0.0,0.0,0.0,0.0,0.0,0.0,0.0,0.0,0.0,0.0,0.0,0.0,0.0,0.0,0.0,0.0,0.0,0.0,0.0,0.0,0.0,0.0,0.0,0.0,0.0,0.0,0.0,0.0,0.0,0.0,0.0,0.0,0.0,0.0,0.0,0.0,0.0,0.0,0.0,0.0,0.0,0.0,0.0,0.0,0.0,0.0,0.0,0.0,0.0,0.0,0.0,-4.2891,-4.6289,-5.4805,-6.0039,-6.168,-6.1719,-6.0898,-5.918,-5.6328,-5.125,0.0,0.0,0.0,0.0,0.0,0.0,0.0,0.0,0.0,0.0,0.0,0.0,0.0,0.0,0.0,0.0,0.0,0.0,0.0,0.0,0.0,0.0,0.0,0.0,0.0,0.0,0.0,0.0,-2.8789,-2.8203,-2.5273,0.0,0.0,0.0,0.0,0.0,0.0,0.0,0.0,0.0,0.0,-5.0749,-5.4872,-5.6133,-5.6599,-5.6588,-5.5972,-5.5357,-5.5011,-5.3972,-5.1356,-4.597,0.0,0.0,0.0,0.0,0.0,0.0,0.0,0.0,0.0,0.0,0.0,0.0,0.0,0.0,0.0,0.0,0.0,0.0,0.0,0.0,0.0,0.0,0.0,0.0,0.0,0.0,0.0,-2.5741,0.0,0.0,-2.5703,0.0,0.0,0.0,0.0,0.0,0.0,0.0,0.0,0.0,0.0,0.0,0.0,0.0,0.0,0.0,0.0,0.0,0.0,0.0,0.0,0.0,0.0,-4.2891,-4.6328,-5.4844,-6.0,-6.164,-6.1719,-6.0898,-5.9219,-5.7461,-5.3281,-4.6328,0.0,0.0,0.0,0.0,0.0,0.0,0.0,0.0,0.0,0.0,0.0,0.0,0.0,0.0,0.0,0.0,0.0,0.0,0.0,0.0,0.0,0.0,0.0,0.0,0.0,0.0,-2.7148,-2.6328,-2.5273,0.0,0.0,0.0,0.0,0.0,0.0,0.0,0.0,0.0,0.0,-4.8193,-5.2568,-5.4349,-5.5252,-5.5818,-5.5829,-5.3741,-5.2385,-5.3241,-5.3241,-5.1779,0.0,0.0,0.0,0.0,0.0,0.0,0.0,0.0,0.0,0.0,0.0,0.0,0.0,0.0,0.0,0.0,0.0,0.0,0.0,0.0,0.0,0.0,0.0,0.0,0.0,0.0,0.0,-3.1014,-2.9217,0.0,0.0,0.0,0.0,0.0,0.0,0.0,0.0,0.0,0.0,0.0,-4.1172,-4.2305,0.0,0.0,0.0,0.0,0.0,0.0,0.0,0.0,0.0,0.0,0.0,0.0,-4.3164,-4.7305,-5.5117,-6.0,-6.164,-6.1719,-6.0898,-5.9219,-5.8086,-5.3672,-4.5664,0.0,0.0,0.0,0.0,0.0,0.0,0.0,0.0,0.0,0.0,0.0,0.0,0.0,0.0,0.0,0.0,0.0,0.0,0.0,0.0,0.0,0.0,0.0,0.0,0.0,-2.8711,0.0,0.0,0.0,0.0,0.0,0.0,0.0,0.0,0.0,0.0,0.0,-4.1048,-4.6637,-4.9563,-5.2367,-5.5675,-5.6406,-5.6945,0.0,0.0,0.0,0.0,0.0,0.0,0.0,0.0,0.0,0.0,0.0,0.0,0.0,0.0,-4.7086,-3.87,-3.6661,-3.6661,-3.7815,0.0,0.0,0.0,0.0,0.0,0.0,0.0,0.0,0.0,0.0,0.0,0.0,0.0,0.0,-3.6171,0.0,-3.3632,0.0,0.0,0.0,0.0,0.0,0.0,0.0,0.0,-4.4219,-4.6523,-4.7305,-4.8125,-4.7226,0.0,-4.3555,-3.9648,0.0,0.0,0.0,0.0,0.0,0.0,0.0,0.0,-4.3594,-4.7734,-5.5234,-5.9726,-6.0781,-6.1406,-6.0742,-5.8789,-5.7305,-5.3476,-4.7031,-4.1875,-3.7266,0.0,0.0,0.0,0.0,0.0,0.0,0.0,0.0,0.0,0.0,0.0,0.0,0.0,0.0,0.0,0.0,0.0,0.0,0.0,0.0,0.0,0.0,0.0,-2.9918,0.0,0.0,0.0,0.0,0.0,0.0,0.0,0.0,0.0,-3.6535,-4.048,-4.5233,-5.0554,-5.2184,-5.379,-5.6214,0.0,0.0,0.0,0.0,0.0,0.0,0.0,-5.0625,-5.0356,-4.9702,-4.9048,-4.875,-5.1279,-5.2856,-5.1395,0.0,0.0,-4.4932,-4.2816,-4.2777,-4.3932,-4.5432,-4.6547,-4.6586,-4.8779,-5.0433,0.0,0.0,0.0,0.0,0.0,0.0,0.0,0.0,-4.2031,-4.2031,0.0,-3.9101,0.0,0.0,0.0,0.0,0.0,-4.1016,0.0,0.0,-5.1953,-5.4805,-5.3984,-5.3203,-5.2383,-5.1445,-4.9805,-4.6836,-4.2578,-3.7695,0.0,0.0,0.0,0.0,0.0,0.0,-4.4258,-4.7851,-5.5273,-5.918,-5.9297,-6.0781,-6.043,-5.7969,-5.543,-5.2891,-5.0351,-4.6914,-4.2773,-3.7773,-3.3516,0.0,0.0,0.0,0.0,0.0,0.0,0.0,0.0,0.0,0.0,0.0,0.0,0.0,0.0,0.0,0.0,0.0,0.0,0.0,0.0,-3.0828,0.0,0.0,0.0,0.0,0.0,0.0,0.0,0.0,0.0,0.0,-4.1264,-4.5258,-4.9791,-5.3839,0.0,0.0,0.0,0.0,-5.6154,-5.3895,-5.2731,-5.2269,-5.2308,-5.2885,-5.3587,-5.4472,0.0,0.0,-5.5126,-5.678,-5.7126,-5.3115,-5.5846,-5.7934,-5.6088,-5.2866,-5.1356,-5.2779,-5.201,-5.1674,-5.3126,-5.4741,-5.5895,-5.1879,0.0,0.0,0.0,0.0,-4.8125,-4.9687,-5.1562,-5.0703,-4.9101,-4.6953,-4.5351,0.0,0.0,0.0,0.0,0.0,0.0,-4.793,-5.0547,-5.3203,-5.4883,-5.5859,-5.625,-5.5625,-5.418,-5.3672,-5.2187,-4.9726,-4.707,-4.1445,-3.3242,0.0,0.0,0.0,0.0,-4.6875,-5.0391,-5.5586,-5.8594,-5.918,-5.9648,-5.9297,-5.793,-5.5976,-5.4297,-5.293,-5.0195,-4.6875,-4.2969,-3.9297,0.0,0.0,0.0,0.0,0.0,0.0,0.0,0.0,0.0,0.0,0.0,0.0,0.0,0.0,0.0,0.0,0.0,0.0,0.0,-2.9763,-3.1587,-3.2037,0.0,0.0,0.0,0.0,0.0,0.0,0.0,0.0,0.0,-4.8515,-4.947,-5.0866,0.0,0.0,-5.4203,-5.3933,-5.5665,-5.7165,-5.7627,-5.7473,0.0,-5.8165,-5.6934,-5.6395,-5.7819,-5.9704,-6.0742,-6.0062,-6.1012,-6.1473,-6.0154,-6.1012,-6.1692,-6.1089,-5.8396,-5.6626,-5.7434,-5.778,-5.8242,-5.9319,-6.0396,-6.1089,-6.0522,-5.5039,-5.2656,-5.2305,-5.332,-5.414,-5.5781,-5.7773,-5.6914,-5.5586,-5.3828,-5.1992,-4.9062,-4.543,-4.4062,0.0,0.0,0.0,-5.2305,-5.5312,-5.6172,-5.7305,-5.8555,-5.8476,-5.8047,-5.7305,-5.5937,-5.4961,-5.4219,-5.2187,-4.7266,-3.9766,0.0,0.0,-3.9726,-4.4726,-4.8828,-5.1953,-5.5859,-5.8008,-5.8164,-5.8164,-5.8086,-5.789,-5.6562,-5.539,-5.4531,-5.2695,-5.0273,-4.7187,-4.3437,-3.8984,0.0,0.0,0.0,0.0,0.0,0.0,0.0,0.0,0.0,0.0,0.0,-2.4257,-2.1556,0.0,0.0,0.0,-2.8542,-3.14,-3.242,-3.4538,0.0,0.0,0.0,0.0,0.0,0.0,0.0,-4.3274,-4.7418,-5.0871,-5.3204,-5.3658,-5.4203,-5.5511,-5.5703,-5.5703,-5.5703,0.0,-5.9254,-5.9935,-6.0012,-6.0204,-6.0704,-5.9792,-5.96,-6.1243,-6.2666,-6.3551,-6.364,-6.4012,-6.432,-6.432,-6.432,-6.432,-6.432,-6.2627,-6.1166,-6.1089,-6.1704,-6.2474,-6.3012,-6.3743,-6.432,-6.7666,-6.6601,-6.1094,-5.875,-5.871,-5.9453,-6.0703,-6.2031,-6.1172,-6.1211,-6.164,-5.8515,-5.6094,-5.4219,-5.1055,0.0,-5.3281,-5.4922,-5.6992,-5.9297,-6.0078,-6.0781,-6.1406,-5.9961,-5.9648,-6.0195,-5.7109,-5.5976,-5.6523,-5.418,-5.1758,-4.9297,-4.6914,-4.5547,-4.5351,-4.7851,-5.0391,-5.2773,-5.6015,-5.7305,-5.6523,-5.6562,-5.6914,-5.7539,-5.6875,-5.6094,-5.5234,-5.4336,-5.2812,-5.043,-4.6289,-4.2109,-3.7969,0.0,0.0,0.0,0.0,0.0,0.0,0.0,0.0,0.0,0.0,0.0,0.0,0.0,0.0,0.0,-3.4248,0.0,-3.7389,-3.884,0.0,0.0,0.0,-3.868,-4.1302,-4.4259,-4.6777,-4.8523,0.0,0.0,-5.5895,-5.7473,-5.8819,-5.9665,-5.9665,-5.9588,-5.9511,-6.0896,-6.1897,-6.1166,-6.1166,-6.1243,-6.155,-6.1935,-6.2793,-6.4205,-6.5359,-6.5705,-6.5743,-6.5782,-6.5859,-6.5782,-6.5859,-6.582,-6.5859,-6.5628,-6.5397,-6.3743,-6.4089,-6.4666,-6.4666,-6.5243,-6.5705,-6.9389,-6.8609,-6.7224,-6.5937,-6.4765,-6.5,-6.5273,-6.5586,-6.4726,-6.4101,-6.3594,-6.2109,-6.0156,-5.789,-5.6406,-5.6445,-5.7695,-5.8711,-5.9492,-6.0117,-6.0312,-6.0195,-5.9805,-6.0,-5.9883,-5.9453,-5.8672,-5.8047,-5.7539,-5.6289,-5.4687,-5.2812,-5.2148,-5.0234,-4.7226,-5.0195,-5.2422,-5.3672,-5.5156,-5.582,-5.5625,-5.625,-5.6055,-5.4961,-5.539,-5.5195,-5.4336,-5.3476,-5.2734,-5.207,-4.8633,-4.5312,-4.2305,-3.6016,0.0,0.0,0.0,0.0,0.0,0.0,0.0,0.0,0.0,-2.9451,-2.3841,0.0,-3.1899,0.0,-3.6149,-4.0162,-4.0848,-4.1795,0.0,0.0,-4.3373,-4.4485,-4.8741,-4.944,-5.0452,-5.2733,-5.4993,-5.6983,-5.8434,-5.9511,-6.0742,-6.2166,-6.1281,-6.0242,-5.9704,-6.1512,-6.2974,-6.2858,-6.3782,-6.4666,-6.4551,-6.4859,-6.5051,-6.5513,-6.5782,-6.5897,-6.5897,-6.5897,-6.5897,-6.5897,-6.5897,-6.5897,-6.5897,-6.5897,-6.5782,-6.5397,-6.5474,-6.559,-6.559,-6.5743,-6.5897,-7.0837,-7.0496,-7.0546,-6.957,-6.8008,-6.8047,-6.7851,-6.7422,-6.6953,-6.6055,-6.4844,-6.3945,-6.2812,-6.1406,-6.0547,-6.043,-6.0859,-6.0937,-6.0976,-6.0976,-6.0976,-6.0742,-6.0312,-6.0351,-6.039,-6.0273,-5.957,-5.8945,-5.8437,-5.7617,-5.6484,-5.5195,-5.5156,-5.375,-5.1211,-5.2148,-5.3125,-5.3984,-5.4844,-5.5312,-5.5312,-5.5781,-5.5195,-5.3516,-5.3906,-5.3555,-5.2344,-5.1484,-5.0664,-4.9844,-4.7305,-4.4883,-4.2656,-3.7891,-3.4375,0.0,0.0,0.0,0.0,0.0,0.0,0.0,0.0,0.0,0.0,0.0,-3.5549,-3.5244,-4.0333,-4.3802,-4.4295,-4.6067,-4.7712,-4.8938,-4.9117,-5.0494,-5.3908,-5.4232,-5.4907,-5.6638,-5.828,-5.96,-6.055,-6.1704,-6.282,-6.3782,-6.3397,-6.2743,-6.2127,-6.3358,-6.4436,-6.4512,-6.5282,-6.5897,-6.5897,-6.5897,-6.5897,-6.5897,-6.5897,-6.5897,-6.5897,-6.5897,-6.5897,-6.5897,-6.5897,-6.5897,-6.5897,-6.5897,-6.5897,-6.5897,-6.5897,-6.5897,-6.5897,-6.5897,-6.5897,-7.1856,-7.1991,-7.1992,-7.1133,-6.9726,-6.9805,-6.9062,-6.7851,-6.7773,-6.6914,-6.5547,-6.4805,-6.4453,-6.4414,-6.3555,-6.3086,-6.2969,-6.2226,-6.1797,-6.1719,-6.1719,-6.1719,-6.168,-6.0937,-6.0976,-6.1601,-6.0078,-5.9375,-5.9336,-5.8359,-5.7461,-5.6601,-5.6484,-5.6015,-5.5117,-5.3633,-5.3242,-5.3984,-5.4883,-5.5273,-5.5156,-5.5039,-5.4141,-5.2461,-5.2266,-5.1484,-4.9922,-4.9141,-4.8047,-4.6523,-4.5,-4.3516,-4.207,-3.9336,-3.7109,0.0,-3.3828,0.0,0.0,0.0,0.0,0.0,0.0,0.0,0.0,-3.9243,-4.0289,-4.1881,-4.5601,-4.8016,-4.8205,-5.1006,-5.3061,-5.3792,-5.4821,-5.6025,-5.7387,-5.8291,-5.9154,-6.0035,-6.1274,-6.2139,-6.2447,-6.3743,-6.4589,-6.4782,-6.5243,-6.5282,-6.4936,-6.5282,-6.5743,-6.5897,-6.5897,-6.5897,-6.5897,-6.5897,-6.5897,-6.5897,-6.5897,-6.5897,-6.5897,-6.5897,-6.5897,-6.5897,-6.5897,-6.5897,-6.5897,-6.5897,-6.5897,-6.5897,-6.5897,-6.5897,-6.5897,-6.5897,-6.5897,-7.18,-7.185,-7.1951,-7.1797,-7.1523,-7.1523,-6.9453,-6.6055,-6.5351,-6.5234,-6.5586,-6.543,-6.5351,-6.5273,-6.4453,-6.3672,-6.3008,-6.2851,-6.2383,-6.1719,-6.1719,-6.1719,-6.168,-6.1523,-6.1523,-6.164,-6.0664,-6.0195,-6.0156,-5.8633,-5.7461,-5.6601,-5.5898,-5.5117,-5.4258,0.0,0.0,0.0,-5.4844,-5.4961,-5.4258,-5.3555,-5.2383,-5.0742,-5.0,0.0,-4.8164,-4.793,-4.7695,-4.7383,-4.7031,0.0,0.0,0.0,0.0,0.0,0.0,0.0,0.0,0.0,0.0,0.0,-4.2383,-4.1827,-4.064,-4.35,-4.6177,-4.7926,-5.0681,-5.2925,-5.4255,-5.5644,-5.6524,-5.6678,-5.8051,-5.9145,-5.9481,-6.0101,-6.0847,-6.1727,-6.2017,-6.2627,-6.3858,-6.4436,-6.4859,-6.5474,-6.5782,-6.582,-6.5667,-6.5782,-6.5897,-6.5897,-6.5897,-6.5897,-6.5897,-6.5897,-6.5897,-6.5897,-6.5897,-6.5897,-6.5897,-6.5897,-6.5897,-6.5897,-6.5897,-6.5897,-6.5897,-6.5897,-6.5897,-6.5897,-6.5897,-6.5897,-6.5897,-6.5897,-6.5897,-7.1846,0.0,-7.1952,-7.1523,0.0,-7.0781,-6.8789,-6.5664,-6.6445,-6.6601,-6.625,-6.625,-6.625,-6.6133,-6.4414,-6.3437,-6.293,-6.168,-6.1094,-6.1055,-6.1055,-6.1289,-6.1719,-6.1719,-6.1719,-6.168,-6.125,-6.082,-6.0351,-5.914,-5.8086,-5.7226,-5.6367,-5.5703,-5.5273,-5.5273,-5.5078,-5.4648,-5.5078,-5.5078,-5.4648,-5.4219,-5.2969,-5.0898,-5.0351,0.0,0.0,0.0,0.0,0.0,0.0,0.0,0.0,0.0,0.0,-4.3672,-4.2891,-4.2578,-4.3047,-4.4687,-4.6367,-4.8008,-4.9723,-4.9355,-4.627,-4.9127,-5.1747,-5.3447,-5.4847,-5.6075,-5.7288,-5.8246,-5.8752,-5.8765,-5.9898,-6.075,-6.0816,-6.132,-6.1909,-6.2379,-6.2959,-6.3705,-6.4474,-6.5013,-6.5397,-6.582,-6.5897,-6.5897,-6.5897,-6.5897,-6.5897,-6.5897,-6.5897,-6.5897,-6.5897,-6.5897,-6.5897,-6.5897,-6.5897,-6.5897,-6.5897,-6.5897,-6.5897,-6.5897,-6.5897,-6.5897,-6.5897,-6.5897,-6.5897,-6.5897,-6.5897,-6.5897,-6.5897,-6.5897,-6.5897,-7.1903,-7.1992,-7.1992,-7.1211,-6.9961,-6.9805,-6.832,-6.6172,0.0,0.0,0.0,-6.6836,-6.6914,-6.6758,-6.4648,-6.3594,-6.332,-6.1133,-6.039,-6.0859,-6.0703,-6.1015,-6.168,-6.1719,-6.1719,-6.1719,-6.1719,-6.1328,-6.0625,-5.9805,-5.8984,-5.8125,-5.7265,-5.6758,-5.664,-5.6601,-5.625,-5.5547,-5.539,-5.5312,-5.5312,-5.5,-5.3828,-5.168,-5.1328,-5.0117,-4.793,-4.7851,-4.7109,-4.5547,-4.5625,-4.5742,-4.5898,-4.5937,-4.6289,-4.7148,-4.8008,-4.8789,-4.9531,-5.0664,-5.207,-5.375,-5.5772,-5.5677,-5.2624,-5.4489,-5.6398,-5.7953,-5.8061,-5.8398,-5.9226,-5.9955,-6.0433,-6.0501,-6.1261,-6.1777,-6.1928,-6.2381,-6.2788,-6.3014,-6.3879,-6.4666,-6.4859,-6.5436,-6.5897,-6.5897,-6.5897,-6.5897,-6.5897,-6.5897,-6.5897,-6.5897,-6.5897,-6.5897,-6.5897,-6.5897,-6.5897,-6.5897,-6.5897,-6.5897,-6.5897,-6.5897,-6.5897,-6.5897,-6.5897,-6.5897,-6.5897,-6.5897,-6.5897,-6.5897,-6.5897,-6.5897,-6.5897,-6.5897,-6.5897,-7.1992,-7.1992,-7.1992,-7.1875,-7.1601,-7.0859,-6.9492,-6.7773,-6.664,-6.6015,-6.582,-6.6562,-6.6914,-6.6875,-6.6523,-6.5937,-6.5195,-6.4101,-6.3242,-6.2617,-6.1875,-6.1601,-6.1719,-6.1719,-6.1719,-6.1719,-6.1719,-6.164,-6.1406,-6.0625,-5.9805,-5.8984,-5.8164,-5.7344,-5.668,-5.6601,-5.6562,-5.6406,-5.5703,-5.5312,-5.5273,-5.3828,-5.293,-5.25,-5.1172,-4.9883,-4.875,-4.875,-4.8281,-4.7305,-4.793,-4.8672,-4.9414,-4.9453,-4.9844,-5.0664,-5.1484,-5.2031,-5.2187,-5.4375,-5.6445,-5.8086,-5.8632,-5.8237,-5.6999,-5.7765,-5.8767,-5.9718,-5.9849,-6.0293,-6.1088,-6.1357,-6.1705,-6.2226,-6.2563,-6.2949,-6.3346,-6.3517,-6.3798,-6.4309,-6.4536,-6.4936,-6.5513,-6.5782,-6.5897,-6.5897,-6.5897,-6.5897,-6.5897,-6.5897,-6.5897,-6.5897,-6.5897,-6.5897,-6.5897,-6.5897,-6.5897,-6.5897,-6.5897,-6.5897,-6.5897,-6.5897,-6.5897,-6.5897,-6.5897,-6.5897,-6.5897,-6.5897,-6.5897,-6.5897,-6.5897,-6.5897,-6.5897,-6.5897,-6.5897,-7.1949,-7.1992,-7.1992,-7.1992,-7.1914,-7.0625,-6.9336,-6.8125,-6.6836,-6.6289,-6.6328,-6.6719,-6.6914,-6.6797,-6.5937,-6.5273,-6.4805,-6.3008,-6.2226,-6.2226,-6.1406,-6.125,-6.168,-6.1719,-6.1719,-6.1719,-6.1719,-6.1719,-6.164,-6.082,-6.0234,-5.9805,-5.9023,-5.8398,-5.8008,-5.7539,-5.7539,-5.7969,-5.668,-5.6015,-5.5976,-5.5234,-5.4609,-5.4141,-5.332,-5.2578,-5.168,-5.168,-5.1484,-5.1094,-5.1445,-5.1836,-5.2226,-5.2266,-5.2422,-5.2812,-5.3633,-5.4336,-5.4805,-5.6797,-5.8555,-5.9726,-5.9844,-5.9882,-5.9877,-5.9787,-6.0085,-6.089,-6.1056,-6.1408,-6.2251,-6.2376,-6.2725,-6.3475,-6.3545,-6.3657,-6.3902,-6.4202,-6.4462,-6.4783,-6.513,-6.5474,-6.5859,-6.5897,-6.5897,-6.5897,-6.5897,-6.5897,-6.5897,-6.5897,-6.5897,-6.5897,-6.5897,-6.5897,-6.5897,-6.5897,-6.5897,-6.5897,-6.5897,-6.5897,-6.5897,-6.5897,-6.5897,-6.5897,-6.5897,-6.5897,-6.5897,-6.5897,-6.5897,-6.5897,-6.5897,-6.5897,-6.5897,-6.5897,-6.5897,-7.1904,-7.1992,-7.1992,-7.1797,-7.1328,-7.0039,-6.8906,-6.7851,-6.7187,-6.6914,-6.6914,-6.6914,-6.6914,-6.6758,-6.5469,-6.4883,-6.457,-6.2383,-6.168,-6.2148,-6.1172,-6.1055,-6.164,-6.1719,-6.1719,-6.1719,-6.1719,-6.1719,-6.1601,-6.1015,-6.0586,-6.0351,-5.9609,-5.9219,-5.918,-5.8515,-5.8555,-5.9062,-5.789,-5.7109,-5.6875,-5.6719,-5.625,-5.5664,-5.5586,-5.5195,-5.4375,-5.4297,-5.418,-5.4023,-5.3984,-5.4101,-5.4297,-5.4492,-5.4648,-5.4922,-5.5703,-5.6562,-5.7422,-5.8711,-5.9805,-6.0625,-6.0898,-6.1289,-6.1836,-6.1562,-6.1445,-6.1911,-6.1983,-6.2366,-6.3097,-6.3286,-6.3628,-6.4395,-6.4439,-6.4452,-6.4513,-6.4876,-6.5112,-6.5146,-6.5558,-6.5859,-6.5897,-6.5897,-6.5897,-6.5897,-6.5897,-6.5897,-6.5897,-6.5897,-6.5897,-6.5897,-6.5897,-6.5897,-6.5897,-6.5897,-6.5897,-6.5897,-6.5897,-6.5897,-6.5897,-6.5897,-6.5897,-6.5897,-6.5897,-6.5897,-6.5897,-6.5897,-6.5897,-6.5897,-6.5897,-6.5897,-6.5897,-6.5897,-6.5897,-7.1992,-7.1992,-7.1953,-7.1094,-6.9805,-6.957,-6.8555,-6.7148,-6.6914,-6.6914,-6.6914,-6.6914,-6.6914,-6.6875,-6.668,-6.6562,-6.6445,-6.4765,-6.3945,-6.3789,-6.2344,-6.164,-6.168,-6.1719,-6.1719,-6.1719,-6.1719,-6.1719,-6.1719,-6.1601,-6.1172,-6.039,-5.9609,-5.9258,-5.9219,-5.914,-5.914,-5.9219,-5.9023,-5.8594,-5.7773,-5.7031,-5.6562,-5.6484,-5.6484,-5.6055,-5.5312,-5.5195,-5.4844,-5.4101,-5.4101,-5.4414,-5.5195,-5.5937,-5.6719,-5.7461,-5.832,-5.9219,-5.9922,-6.0195,-6.0703,-6.1523,-6.2305,-6.2734,-6.289,-6.3476,-6.3593,-6.3119,-6.2915,-6.3258,-6.4067,-6.4182,-6.4473,-6.5113,-6.5336,-6.5572,-6.5769,-6.6062,-6.6048,-6.5818,-6.582,-6.5897,-6.5897,-6.5897,-6.5897,-6.5897,-6.5897,-6.5897,-6.5897,-6.5897,-6.5897,-6.5897,-6.5897,-6.5897,-6.5897,-6.5897,-6.5897,-6.5897,-6.5897,-6.5897,-6.5897,-6.5897,-6.5897,-6.5897,-6.5897,-6.5897,-6.5897,-6.5897,-6.5897,-6.5897,-6.5897,-6.5897,-6.5897,-6.5897,-6.5897,-7.168,-7.125,-7.1211,-7.0273,-6.8906,-6.9258,-6.8515,-6.6953,-6.6914,-6.6914,-6.6914,-6.6914,-6.6914,-6.6914,-6.6914,-6.6914,-6.6797,-6.5625,-6.4765,-6.4219,-6.3008,-6.2187,-6.1719,-6.1719,-6.1719,-6.1719,-6.1719,-6.1719,-6.1719,-6.1719,-6.1523,-6.1172,-6.082,-6.0703,-6.0664,-6.0156,-6.0156,-6.0625,-5.9687,-5.9258,-5.9297,-5.8555,-5.8125,-5.8125,-5.8164,-5.7969,-5.7656,-5.7617,-5.7422,-5.7109,-5.707,-5.7226,-5.7578,-5.793,-5.8281,-5.8672,-5.9453,-6.0039,-6.039,-6.1328,-6.207,-6.2461,-6.3281,-6.375,-6.3789,-6.41,-6.4292,-6.4482,-6.4089,-6.412,-6.4926,-6.5077,-6.5325,-6.5913,-6.6034,-6.6069,-6.6173,-6.6109,-6.6041,-6.5986,-6.5958,-6.5897,-6.5897,-6.5897,-6.5897,-6.5897,-6.5897,-6.5897,-6.5897,-6.5897,-6.5897,-6.5897,-6.5897,-6.5897,-6.5897,-6.5897,-6.5897,-6.5897,-6.5897,-6.5897,-6.5897,-6.5897,-6.5897,-6.5897,-6.5897,-6.5897,-6.5897,-6.5897,-6.5897,-6.5897,-6.5897,-6.5897,-6.5897,-6.5897,-6.5897,-7.1289,-7.0703,-7.0469,-6.9492,-6.8281,-6.8867,-6.8281,-6.6992,-6.6914,-6.6914,-6.6914,-6.6914,-6.6914,-6.6914,-6.6914,-6.6914,-6.6797,-6.6015,-6.5273,-6.4609,-6.375,-6.289,-6.2109,-6.207,-6.1914,-6.1719,-6.1719,-6.1719,-6.1719,-6.1719,-6.1719,-6.1719,-6.1719,-6.1719,-6.164,-6.1055,-6.1055,-6.1523,-6.0469,-6.0195,-6.0586,-6.0195,-5.9687,-5.9258,-5.9219,-5.9219,-5.9219,-5.9219,-5.9219,-5.918,-5.9219,-5.9219,-5.9219,-5.9414,-5.9648,-5.9883,-6.043,-6.0859,-6.1094,-6.2305,-6.3086,-6.3398,-6.414,-6.4648,-6.4687,-6.4881,-6.5268,-6.5773,-6.5383,-6.5339,-6.5785,-6.5884,-6.612,-6.6517,-6.64,-6.6299,-6.6265,-6.6074,-6.599,-6.6019,-6.5958,-6.5897,-6.5897,-6.5897,-6.5897,-6.5897,-6.5897,-6.5897,-6.5897,-6.5897,-6.5897,-6.5897,-6.5897,-6.5897,-6.5897,-6.5897,-6.5897,-6.5897,-6.5897,-6.5897,-6.5897,-6.5897,-6.5897,-6.5897,-6.5897,-6.5897,-6.5897,-6.5897,-6.5897,-6.5897,-6.5897,-6.5897,-6.5897,-6.5897,-6.5897,-7.0742,-7.0547,-6.9805,-6.8945,-6.8203,-6.8281,-6.7773,-6.6914,-6.6914,-6.6914,-6.6914,-6.6914,-6.6914,-6.6914,-6.6914,-6.6914,-6.6797,-6.6055,-6.5586,-6.539,-6.4648,-6.3789,-6.2969,-6.293,-6.25,-6.1836,-6.1719,-6.1719,-6.1719,-6.1719,-6.1719,-6.1719,-6.1719,-6.1719,-6.168,-6.1601,-6.164,-6.164,-6.1523,-6.1562,-6.1601,-6.1562,-6.0742,-5.9492,-5.9258,-5.9336,-5.9297,-5.9258,-5.9258,-5.9258,-5.9336,-5.9297,-5.9336,-5.9961,-6.0703,-6.1406,-6.1601,-6.1992,-6.2656,-6.3008,-6.3437,-6.418,-6.5039,-6.5547,-6.5586,-6.6133,-6.6561,-6.6793,-6.6637,-6.663,-6.6605,-6.6521,-6.6507,-6.6551,-6.64,-6.6259,-6.6129,-6.6098,-6.603,-6.597,-6.5935,-6.5897,-6.5897,-6.5897,-6.5897,-6.5897,-6.5897,-6.5897,-6.5897,-6.5897,-6.5897,-6.5897,-6.5897,-6.5897,-6.5897,-6.5897,-6.5897,-6.5897,-6.5897,-6.5897,-6.5897,-6.5897,-6.5897,-6.5897,-6.5897,-6.5897,-6.5897,-6.5897,-6.5897,-6.5897,-6.5897,-6.5897,-6.5897,-6.5897,-6.5897,-6.957,-6.9062,-6.875,-6.8125,-6.7461,-6.793,-6.7695,-6.6914,-6.6914,-6.6914,-6.6914,-6.6914,-6.6914,-6.6914,-6.6914,-6.6914,-6.6875,-6.6562,-6.6133,-6.5625,-6.5273,-6.4648,-6.3828,-6.3281,-6.2851,-6.25,-6.1953,-6.1719,-6.1719,-6.1719,-6.1719,-6.1719,-6.1719,-6.1719,-6.1719,-6.1719,-6.1719,-6.1719,-6.1719,-6.1719,-6.1719,-6.1719,-6.1367,-6.0859,-6.0781,-6.0781,-6.0781,-6.0781,-6.0781,-6.082,-6.082,-6.0781,-6.082,-6.1055,-6.1367,-6.1719,-6.2226,-6.2695,-6.3086,-6.4062,-6.4805,-6.5117,-6.5937,-6.6406,-6.6484,-6.6718,-6.6912,-6.6911,-6.6866,-6.6817,-6.6809,-6.6748,-6.6674,-6.6595,-6.64,-6.6283,-6.6191,-6.6088,-6.5978,-6.5974,-6.5943,-6.5897,-6.5897,-6.5897,-6.5897,-6.5897,-6.5897,-6.5897,-6.5897,-6.5897,-6.5897,-6.5897,-6.5897,-6.5897,-6.5897,-6.5897,-6.5897,-6.5897,-6.5897,-6.5897,-6.5897,-6.5897,-6.5897,-6.5897,-6.5897,-6.5897,-6.5897,-6.5897,-6.5897,-6.5897,-6.5897,-6.5897,-6.5897,-6.5897,-6.5897,-6.8515,-6.7851,-6.7773,-6.7461,-6.6992,-6.75,-6.7461,-6.6914,-6.6914,-6.6914,-6.6914,-6.6914,-6.6914,-6.6914,-6.6914,-6.6914,-6.6914,-6.6875,-6.6601,-6.6055,-6.6015,-6.5547,-6.4726,-6.4101,-6.3672,-6.3398,-6.2851,-6.2539,-6.25,-6.2265,-6.2148,-6.2109,-6.1875,-6.1719,-6.1719,-6.1719,-6.1719,-6.1719,-6.1719,-6.1719,-6.1719,-6.1719,-6.1719,-6.1719,-6.1719,-6.1719,-6.1719,-6.1719,-6.1719,-6.1719,-6.1719,-6.1719,-6.1719,-6.1953,-6.2109,-6.2187,-6.293,-6.3555,-6.3906,-6.4961,-6.5703,-6.6015,-6.6523,-6.6914,-6.6914,-6.6914,-6.6913,-6.6872,-6.6867,-6.682,-6.6817,-6.6813,-6.6739,-6.653,-6.6329,-6.62,-6.6176,-6.6024,-6.597,-6.6001,-6.5958,-6.591,-6.5897,-6.5897,-6.5897,-6.5897,-6.5897,-6.5897,-6.5897,-6.5897,-6.5897,-6.5897,-6.5897,-6.5897,-6.5897,-6.5897,-6.5897,-6.5897,-6.5897,-6.5897,-6.5897,-6.5897,-6.5897,-6.5897,-6.5897,-6.5897,-6.5897,-6.5897,-6.5897,-6.5897,-6.5897,-6.5897,-6.5897,-6.5897,-6.5897,-6.7695,-6.7031,-6.6914,-6.6953,-6.6914,-6.6992,-6.6914,-6.6914,-6.6914,-6.6914,-6.6914,-6.6914,-6.6914,-6.6914,-6.6914,-6.6914,-6.6914,-6.6914,-6.6875,-6.6758,-6.6797,-6.6367,-6.5625,-6.539,-6.4883,-6.4219,-6.4219,-6.418,-6.4023,-6.3359,-6.3008,-6.2851,-6.2265,-6.2031,-6.1797,-6.1992,-6.1875,-6.1953,-6.1992,-6.1914,-6.1758,-6.1914,-6.1953,-6.1914,-6.1914,-6.1953,-6.1836,-6.1758,-6.1719,-6.1719,-6.1719,-6.1719,-6.1914,-6.2539,-6.3008,-6.3125,-6.3828,-6.4687,-6.5351,-6.5586,-6.6094,-6.6601,-6.6875,-6.6914,-6.6914,-6.6914,-6.6914,-6.6914,-6.6912,-6.6869,-6.6863,-6.6856,-6.6688,-6.6379,-6.6217,-6.6118,-6.5978,-6.5884,-6.591,-6.5884,-6.591,-6.5897,-6.5897,-6.5897,-6.5897,-6.5897,-6.5897,-6.5897,-6.5897,-6.5897,-6.5897,-6.5897,-6.5897,-6.5897,-6.5897,-6.5897,-6.5897,-6.5897,-6.5897,-6.5897,-6.5897,-6.5897,-6.5897,-6.5897,-6.5897,-6.5897,-6.5897,-6.5897,-6.5897,-6.5897,-6.5897,-6.5897,-6.5897,-6.5897,-6.5897,-6.7148,-6.6914,-6.6914,-6.6914,-6.6914,-6.6914,-6.6914,-6.6914,-6.6914,-6.6914,-6.6914,-6.6914,-6.6914,-6.6914,-6.6914,-6.6914,-6.6914,-6.6914,-6.6914,-6.6914,-6.6914,-6.6758,-6.6406,-6.5859,-6.5117,-6.4414,-6.4297,-6.4297,-6.4297,-6.4023,-6.3906,-6.3828,-6.3633,-6.3476,-6.3437,-6.3515,-6.3476,-6.3515,-6.3476,-6.3476,-6.3515,-6.3476,-6.3476,-6.3476,-6.3476,-6.3476,-6.3437,-6.2344,-6.1758,-6.1758,-6.1719,-6.1953,-6.2617,-6.3437,-6.3906,-6.3984,-6.4726,-6.5273,-6.5625,-6.6172,-6.6601,-6.6836,-6.6914,-6.6914,-6.6914,-6.6914,-6.6914,-6.6914,-6.6911,-6.6905,-6.6902,-6.685,-6.6684,-6.6513,-6.6337,-6.6185,-6.603,-6.5958,-6.591,-6.5897,-6.5897,-6.5897,-6.5897,-6.5897,-6.5897,-6.5897,-6.5897,-6.5897,-6.5936,-6.5974,-6.5897,-6.5897,-6.5897,-6.6128,-6.6282,-6.6397,-6.6397,-6.6244,-6.6128,-6.5897,-6.5897,-6.5897,-6.5897,-6.5897,-6.5897,-6.5897,-6.5897,-6.5897,-6.5897,-6.5897,-6.5897,-6.5897,-6.5897,-6.5897,-6.5897,-6.6914,-6.6914,-6.6914,-6.6914,-6.6914,-6.6914,-6.6914,-6.6914,-6.6914,-6.6914,-6.6914,-6.6914,-6.6914,-6.6914,-6.6914,-6.6914,-6.6914,-6.6914,-6.6914,-6.6914,-6.6914,-6.6914,-6.6836,-6.6367,-6.5859,-6.5351,-6.5273,-6.5273,-6.5273,-6.4922,-6.4765,-6.4765,-6.4453,-6.4258,-6.4297,-6.4297,-6.4297,-6.4297,-6.4258,-6.4297,-6.4297,-6.4297,-6.4297,-6.4297,-6.4297,-6.4297,-6.4219,-6.3203,-6.2656,-6.2656,-6.2656,-6.2969,-6.3515,-6.4297,-6.4765,-6.4922,-6.5547,-6.6094,-6.6172,-6.6914,-6.7226,-6.7031,-6.7187,-6.7187,-6.6992,-6.6914,-6.6914,-6.6913,-6.6909,-6.6902,-6.6859,-6.6807,-6.672,-6.6501,-6.6366,-6.6209,-6.6046,-6.597,-6.591,-6.5897,-6.5897,-6.5897,-6.5897,-6.5897,-6.5897,-6.5897,-6.5897,-6.609,-6.6205,-6.6359,-6.6397,-6.659,-6.7013,-6.709,-6.6936,-6.6936,-6.6936,-6.6667,-6.6397,-6.609,-6.5897,-6.5897,-6.5897,-6.5897,-6.5897,-6.5897,-6.5897,-6.5897,-6.5897,-6.5897,-6.5897,-6.5897,-6.5897,-6.5897,-6.5897,-6.6914,-6.6914,-6.6914,-6.6914,-6.6914,-6.6914,-6.6914,-6.6914,-6.6914,-6.6914,-6.6914,-6.6914,-6.6914,-6.6914,-6.6914,-6.6914,-6.6914,-6.6914,-6.6914,-6.6914,-6.6914,-6.6914,-6.6875,-6.6797,-6.668,-6.668,-6.668,-6.6758,-6.6562,-6.5976,-6.5664,-6.5586,-6.5,-6.4531,-6.4726,-6.4531,-6.4648,-6.4726,-6.4609,-6.4648,-6.4609,-6.457,-6.457,-6.4609,-6.4648,-6.4648,-6.4648,-6.4531,-6.4375,-6.4258,-6.418,-6.4258,-6.4531,-6.5195,-6.5664,-6.5703,-6.6484,-6.6797,-6.707,-6.7578,-6.7734,-6.707,-6.7461,-6.7812,-6.7031,-6.6914,-6.6914,-6.6912,-6.6907,-6.6862,-6.6813,-6.6802,-6.6654,-6.6379,-6.6259,-6.6119,-6.5958,-6.591,-6.5897,-6.5897,-6.5897,-6.5897,-6.5897,-6.5897,-6.5871,-6.5909,-6.5897,-6.6179,-6.6537,-6.673,-6.7334,-6.7436,-6.7282,-6.7128,-6.6705,-6.6705,-6.6667,-6.6513,-6.6436,-6.6397,-6.632,-6.6397,-6.6474,-6.6397,-6.5974,-6.5974,-6.5974,-6.6051,-6.5974,-6.5897,-6.5897,-6.5897,-6.5897,-6.5897,-6.5897,-6.6914,-6.6914,-6.6914,-6.6914,-6.6914,-6.6914,-6.6914,-6.6914,-6.6914,-6.6992,-6.6953,-6.6914,-6.6992,-6.6914,-6.6953,-6.6914,-6.6992,-6.6992,-6.6914,-6.6914,-6.6914,-6.6914,-6.6914,-6.6914,-6.6914,-6.6914,-6.6914,-6.6914,-6.6875,-6.6601,-6.6484,-6.6562,-6.625,-6.6133,-6.6211,-6.6133,-6.6211,-6.6211,-6.6172,-6.6172,-6.6133,-6.6133,-6.6211,-6.6211,-6.6172,-6.6172,-6.6211,-6.6211,-6.5547,-6.4453,-6.4961,-6.5273,-6.5312,-6.6015,-6.6484,-6.668,-6.7265,-6.7539,-6.7226,-6.7695,-6.7734,-6.7031,-6.7226,-6.7148,-6.6953,-6.6914,-6.6914,-6.6911,-6.6907,-6.686,-6.6813,-6.68,-6.6646,-6.6351,-6.6138,-6.6013,-6.5909,-6.5897,-6.5897,-6.5897,-6.5897,-6.5897,-6.5897,-6.5897,-6.5933,-6.6001,-6.6005,-6.6075,-6.6483,-6.655,-6.6859,-6.6513,-6.6359,-6.6397,-6.6397,-6.6397,-6.632,-6.6205,-6.6359,-6.6744,-6.7051,-6.7513,-6.7705,-6.7821,-6.6628,-6.6282,-6.632,-6.6397,-6.6205,-6.5897,-6.5897,-6.5897,-6.5897,-6.5897,-6.5897,-6.6914,-6.6914,-6.6914,-6.6914,-6.6914,-6.6914,-6.7109,-6.7383,-6.7461,-6.7656,-6.789,-6.793,-6.7969,-6.7969,-6.8008,-6.7969,-6.793,-6.7969,-6.7969,-6.7969,-6.8047,-6.7617,-6.7109,-6.6914,-6.6914,-6.6914,-6.6914,-6.6914,-6.6914,-6.6914,-6.6914,-6.6875,-6.6914,-6.6914,-6.6797,-6.6914,-6.6914,-6.6875,-6.6914,-6.6914,-6.6914,-6.6914,-6.6875,-6.6875,-6.6914,-6.7031,-6.7344,-6.7422,-6.6758,-6.582,-6.5859,-6.6133,-6.6172,-6.6601,-6.707,-6.7383,-6.7617,-6.75,-6.7617,-6.793,-6.7734,-6.7187,-6.7187,-6.7226,-6.6992,-6.6914,-6.6914,-6.6909,-6.6905,-6.6859,-6.68,-6.6677,-6.6491,-6.6314,-6.6046,-6.591,-6.5897,-6.5897,-6.5897,-6.5897,-6.5897,-6.5897,-6.591,-6.5946,-6.5978,-6.6024,-6.6024,-6.6221,-6.6491,-6.6396,-6.6397,-6.6397,-6.6551,-6.6898,-6.7013,-6.7013,-6.6859,-6.6628,-6.6513,-6.6936,-6.7051,-6.7667,-6.759,-6.7398,-6.6898,-6.659,-6.6513,-6.6397,-6.609,-6.5897,-6.5897,-6.5897,-6.5897,-6.5897,-6.5897,-6.6914,-6.6914,-6.6914,-6.6953,-6.707,-6.707,-6.7578,-6.8242,-6.832,-6.8672,-6.914,-6.9336,-6.918,-6.9492,-6.914,-6.9375,-6.9297,-6.914,-6.9219,-6.918,-6.914,-6.8633,-6.7578,-6.75,-6.7461,-6.7422,-6.7187,-6.7305,-6.7461,-6.7344,-6.7265,-6.7422,-6.7344,-6.7226,-6.7461,-6.7344,-6.7187,-6.7383,-6.7461,-6.7461,-6.7461,-6.7461,-6.75,-6.7461,-6.7461,-6.7734,-6.8164,-6.8281,-6.793,-6.7187,-6.7148,-6.7148,-6.7148,-6.707,-6.7265,-6.7734,-6.75,-6.75,-6.789,-6.7969,-6.7812,-6.7187,-6.7578,-6.7773,-6.707,-6.6914,-6.6913,-6.6907,-6.6982,-6.717,-6.73,-6.6935,-6.6873,-6.6866,-6.6495,-6.6112,-6.605,-6.5961,-6.5897,-6.5897,-6.5897,-6.5897,-6.5958,-6.5986,-6.6067,-6.6205,-6.6138,-6.6239,-6.6405,-6.6417,-6.6717,-6.7128,-6.7398,-6.7744,-6.7782,-6.7782,-6.759,-6.7321,-6.7051,-6.7013,-6.6474,-6.6705,-6.659,-6.6474,-6.6859,-6.6782,-6.6436,-6.6244,-6.5974,-6.5897,-6.5897,-6.5897,-6.5897,-6.5897,-6.5897,-6.6914,-6.6914,-6.6914,-6.7305,-6.789,-6.793,-6.8398,-6.9219,-6.9219,-6.9375,-6.9492,-6.9453,-6.9492,-6.9492,-6.9648,-6.9453,-6.957,-6.957,-6.9414,-6.9414,-6.9414,-6.9336,-6.8906,-6.8906,-6.8867,-6.8789,-6.8828,-6.8828,-6.8828,-6.8711,-6.8867,-6.8789,-6.8633,-6.8828,-6.875,-6.8633,-6.8906,-6.8906,-6.8828,-6.8711,-6.8711,-6.875,-6.875,-6.8711,-6.875,-6.8906,-6.914,-6.9219,-6.9101,-6.8945,-6.8789,-6.8515,-6.7969,-6.7812,-6.7656,-6.7461,-6.7695,-6.7656,-6.7422,-6.7773,-6.7851,-6.7187,-6.7187,-6.7109,-6.6992,-6.7031,-6.6992,-6.7028,-6.7453,-6.8068,-6.8513,-6.8631,-6.8399,-6.8177,-6.7623,-6.7089,-6.6952,-6.6379,-6.5935,-6.5923,-6.5923,-6.5946,-6.6041,-6.6067,-6.6167,-6.633,-6.6329,-6.6283,-6.6299,-6.6349,-6.66,-6.6974,-6.6936,-6.7051,-6.7051,-6.709,-6.709,-6.7051,-6.6974,-6.6898,-6.6359,-6.6436,-6.659,-6.6898,-6.7282,-6.6974,-6.6359,-6.6128,-6.5897,-6.5897,-6.5897,-6.5897,-6.5897,-6.5897,-6.6051,-6.6914,-6.6953,-6.7344,-6.7773,-6.8203,-6.8594,-6.9258,-6.9961,-7.0039,-7.0312,-7.0625,-7.0625,-7.0625,-7.0625,-7.0664,-7.0664,-7.0625,-7.0625,-7.0625,-7.0664,-7.0625,-7.043,-7.0195,-7.0351,-7.0351,-6.957,-6.8945,-6.9023,-6.9336,-6.9492,-6.9336,-6.9414,-6.9453,-6.9297,-6.9414,-6.9453,-6.9375,-6.9375,-6.9414,-6.9414,-6.9414,-6.9453,-6.9492,-6.9453,-6.9453,-6.957,-7.0,-7.0078,-7.0039,-7.0,-6.9961,-6.9414,-6.832,-6.7812,-6.7539,-6.7656,-6.7422,-6.7695,-6.7578,-6.7539,-6.7578,-6.7617,-6.75,-6.7773,-6.7969,-6.8125,-6.8125,-6.816,-6.8467,-6.8929,-6.9335,-6.9272,-6.9226,-6.9067,-6.8567,-6.8112,-6.7802,-6.6814,-6.6001,-6.6001,-6.5986,-6.6067,-6.6129,-6.6552,-6.6403,-6.6616,-6.64,-6.6316,-6.6155,-6.6179,-6.6049,-6.6205,-6.609,-6.6051,-6.6051,-6.6128,-6.6205,-6.6244,-6.6282,-6.6282,-6.6051,-6.6436,-6.6936,-6.6974,-6.6859,-6.6667,-6.6128,-6.5974,-6.5897,-6.5897,-6.5897,-6.5897,-6.5936,-6.6013,-6.6282,-6.6992,-6.7148,-6.789,-6.8359,-6.8672,-6.9297,-7.0078,-7.082,-7.0898,-7.125,-7.1875,-7.1992,-7.1719,-7.1914,-7.1875,-7.1953,-7.1914,-7.1875,-7.168,-7.1719,-7.168,-7.1367,-7.1094,-7.1133,-7.1015,-6.9765,-6.9453,-6.9453,-6.9648,-6.9765,-7.0156,-6.9883,-6.9883,-7.0117,-6.9961,-6.9844,-7.0039,-7.0078,-7.0117,-7.0039,-7.0039,-7.0039,-7.0039,-6.9765,-6.9765,-6.9844,-7.0234,-7.0312,-7.039,-7.0508,-7.039,-6.957,-6.8476,-6.7656,-6.7226,-6.7969,-6.7305,-6.7539,-6.8125,-6.793,-6.789,-6.8594,-6.8828,-6.914,-6.9726,-6.9883,-6.9844,-6.9917,-7.0066,-7.0331,-7.0191,-7.0309,-7.0151,-6.9889,-6.9565,-6.9103,-6.8741,-6.7523,-6.6903,-6.6717,-6.7232,-6.7578,-6.7448,-6.7602,-6.7221,-6.6871,-6.6686,-6.6461,-6.6322,-6.6063,-6.601,-6.5897,-6.5897,-6.5897,-6.5897,-6.5974,-6.5974,-6.6051,-6.6013,-6.6013,-6.5974,-6.6167,-6.6474,-6.6244,-6.609,-6.6013,-6.6013,-6.5936,-6.5897,-6.5897,-6.6128,-6.632,-6.632,-6.6205,-6.6667,-6.7344,-6.8008,-6.8125,-6.8984,-7.0195,-7.043,-7.0937,-7.168,-7.1719,-7.1836,-7.1953,-7.1992,-7.1992,-7.1992,-7.1992,-7.1992,-7.1992,-7.1992,-7.1992,-7.1992,-7.1992,-7.1758,-7.1562,-7.1328,-7.1133,-7.1523,-7.1172,-7.0859,-7.0742,-7.1172,-7.1211,-7.1445,-7.1406,-7.1406,-7.1367,-7.1562,-7.1328,-7.1211,-7.125,-7.1289,-7.1172,-7.1172,-7.1015,-7.0547,-7.0508,-7.0312,-6.9883,-6.9805,-6.9687,-6.957,-6.8984,-6.8594,-6.8398,-6.8125,-6.7851,-6.7422,-6.7383,-6.7969,-6.8906,-6.914,-6.9844,-7.0898,-7.1133,-7.125,-7.1523,-7.1562,-7.1484,-7.1712,-7.2133,-7.2744,-7.3552,-7.2477,-7.248,-7.2147,-7.1087,-7.0185,-6.9921,-6.9318,-6.8574,-6.8402,-6.8929,-6.9259,-6.9001,-6.8828,-6.8672,-6.8343,-6.8034,-6.7656,-6.7329,-6.6773,-6.6229,-6.6076,-6.5897,-6.5897,-6.5897,-6.6013,-6.6128,-6.632,-6.632,-6.6359,-6.6244,-6.5974,-6.5897,-6.6359,-6.6167,-6.5936,-6.5897,-6.5897,-6.6013,-6.6128,-6.6474,-6.6859,-6.6974,-6.7128,-6.7628,-6.7422,-6.8203,-6.8672,-6.957,-7.0664,-7.1211,-7.1601,-7.1953,-7.1992,-7.1992,-7.1992,-7.1992,-7.1992,-7.1992,-7.1992,-7.1992,-7.1992,-7.1992,-7.1992,-7.1992,-7.1992,-7.168,-7.1562,-7.1289,-7.0976,-7.1094,-7.1406,-7.1797,-7.1445,-7.1719,-7.1992,-7.1953,-7.1992,-7.1992,-7.1992,-7.1914,-7.1992,-7.1992,-7.1992,-7.1758,-7.1406,-7.1367,-7.1211,-7.1406,-7.1328,-7.1133,-7.0937,-7.0781,-7.0547,-7.0156,-6.9726,-6.9297,-6.9101,-6.9101,-6.8906,-6.8008,-6.8359,-6.9101,-7.0039,-7.0469,-7.1328,-7.2344,-7.2344,-7.2539,-7.293,-7.3008,-7.2888,-7.3231,-7.3024,-7.3437,-7.3666,-7.3158,-7.269,-7.2492,-7.1721,-7.1257,-7.1034,-7.0784,-7.047,-7.0005,-6.9642,-6.9757,-7.0264,-7.013,-7.0173,-6.9878,-6.9401,-6.8851,-6.8311,-6.7629,-6.6896,-6.6923,-6.6859,-6.6859,-6.6821,-6.6782,-6.6782,-6.6821,-6.6859,-6.6898,-6.6974,-6.6898,-6.709,-6.7398,-6.6974,-6.6244,-6.5936,-6.5974,-6.6167,-6.6436,-6.6859,-6.7282,-6.7705,-6.8129,-6.8615,-6.75,-6.8515,-6.918,-7.0039,-7.0976,-7.168,-7.1992,-7.1992,-7.1992,-7.1992,-7.1992,-7.1992,-7.1992,-7.1992,-7.1992,-7.1992,-7.1992,-7.1992,-7.1992,-7.1992,-7.1992,-7.1601,-7.1406,-7.1406,-7.1445,-7.0898,-7.1367,-7.1914,-7.1601,-7.1836,-7.1992,-7.1992,-7.1992,-7.1992,-7.1992,-7.1992,-7.1992,-7.1992,-7.1992,-7.1562,-7.1133,-7.0976,-7.1133,-7.164,-7.1719,-7.1562,-7.1133,-7.1015,-7.0781,-7.043,-7.0195,-7.0078,-6.9765,-7.0273,-7.0117,-6.9414,-7.0312,-7.0937,-7.164,-7.1797,-7.2617,-7.3789,-7.3047,-7.3437,-7.3867,-7.3905,-7.378,-7.4314,-7.4064,-7.3627,-7.3666,-7.2846,-7.2456,-7.23,-7.2219,-7.1933,-7.1788,-7.1667,-7.1796,-7.1243,-7.0381,-7.0477,-7.1175,-7.1533,-7.1569,-7.1018,-7.0508,-6.9695,-6.9134,-6.8499,-6.7986,-6.8052,-6.809,-6.8052,-6.8013,-6.7898,-6.7821,-6.7744,-6.7782,-6.7782,-6.7975,-6.8129,-6.8244,-6.8129,-6.759,-6.6936,-6.6513,-6.6436,-6.6936,-6.7359,-6.7475,-6.7859,-6.8513,-6.9052,-6.9513,-6.7851,-6.9336,-6.9375,-7.0351,-7.168,-7.1953,-7.1992,-7.1992,-7.1992,-7.1992,-7.1992,-7.1992,-7.1992,-7.1992,-7.1992,-7.1992,-7.1992,-7.1992,-7.1992,-7.1992,-7.1992,-7.1914,-7.1836,-7.1914,-7.1875,-7.1406,-7.1758,-7.1484,-7.1406,-7.1758,-7.1992,-7.1992,-7.1992,-7.1992,-7.1992,-7.1992,-7.1992,-7.1992,-7.1953,-7.1875,-7.1797,-7.1719,-7.1406,-7.1133,-7.0976,-7.0859,-7.0508,-7.043,-7.0117,-7.0,-6.9726,-6.9609,-6.9609,-7.0273,-7.1055,-7.1367,-7.1914,-7.25,-7.3515,-7.3555,-7.3711,-7.4687,-7.4414,-7.4453,-7.4336,-7.4449,-7.4365,-7.4518,-7.4345,-7.4134,-7.3939,-7.3471,-7.3197,-7.2768,-7.2339,-7.2102,-7.1937,-7.192,-7.2125,-7.2207,-7.1328,-7.1803,-7.2489,-7.2762,-7.2912,-7.2249,-7.156,-7.0706,-6.9985,-6.9413,-6.9039,-6.9053,-6.909,-6.909,-6.9129,-6.9013,-6.8936,-6.8783,-6.8783,-6.8783,-6.8936,-6.9052,-6.8706,-6.8513,-6.8129,-6.809,-6.8052,-6.809,-6.8167,-6.8282,-6.8436,-6.8898,-6.9475,-6.9937,-7.0321,-6.8086,-6.8789,-6.9219,-7.0117,-7.125,-7.1797,-7.1992,-7.1992,-7.1992,-7.1992,-7.1992,-7.1992,-7.1992,-7.1992,-7.1992,-7.1992,-7.1992,-7.1992,-7.1992,-7.1992,-7.1992,-7.1992,-7.1992,-7.1992,-7.1992,-7.1992,-7.1992,-7.1875,-7.164,-7.1719,-7.1992,-7.1992,-7.1992,-7.1992,-7.1992,-7.1992,-7.1992,-7.1836,-7.1601,-7.1562,-7.1758,-7.1562,-7.1328,-7.1406,-7.1406,-7.1172,-7.0937,-7.0898,-7.0898,-7.0898,-7.0898,-7.0859,-7.1094,-7.1719,-7.2539,-7.3359,-7.3476,-7.3867,-7.4414,-7.457,-7.4844,-7.4687,-7.4414,-7.3789,-7.3945,-7.425,-7.4515,-7.4542,-7.4064,-7.3861,-7.3666,-7.3041,-7.2729,-7.2417,-7.226,-7.2143,-7.1987,-7.2026,-7.2062,-7.2221,-7.2339,-7.2534,-7.2729,-7.2921,-7.2801,-7.2314,-7.1975,-7.1621,-7.0995,-7.0501,-7.0195,-7.0027,-7.0014,-7.0014,-7.009,-7.009,-7.0052,-6.9975,-6.9975,-6.9975,-6.9975,-6.9898,-6.959,-6.9667,-6.9744,-6.9744,-6.9667,-6.9167,-6.8706,-6.9013,-6.9436,-6.9783,-7.009,-7.036,-7.0667,-6.8008,-6.8281,-6.9297,-7.0234,-7.1055,-7.1719,-7.1992,-7.1992,-7.1992,-7.1992,-7.1992,-7.1992,-7.1992,-7.1992,-7.1992,-7.1992,-7.1992,-7.1992,-7.1992,-7.1992,-7.1992,-7.1992,-7.1992,-7.1992,-7.1992,-7.1992,-7.1992,-7.1953,-7.1953,-7.1992,-7.1992,-7.1992,-7.1992,-7.1992,-7.1992,-7.1992,-7.1992,-7.1953,-7.1484,-7.1523,-7.1797,-7.1445,-7.1523,-7.1758,-7.1992,-7.1992,-7.1992,-7.1914,-7.1914,-7.1875,-7.1836,-7.1758,-7.1914,-7.2265,-7.3008,-7.3672,-7.3867,-7.3945,-7.4258,-7.4453,-7.4765,-7.4258,-7.3555,-7.2968,-7.3041,-7.3662,-7.3929,-7.3679,-7.3317,-7.3002,-7.2846,-7.2339,-7.2221,-7.2143,-7.2026,-7.1987,-7.2026,-7.2182,-7.2143,-7.2065,-7.2143,-7.2104,-7.2339,-7.2651,-7.257,-7.2213,-7.2154,-7.2186,-7.1714,-7.1074,-7.0838,-7.0514,-7.0514,-7.0514,-7.0591,-7.0744,-7.086,-7.0898,-7.0898,-7.0821,-7.0591,-7.0591,-7.0475,-7.0706,-7.0898,-7.0706,-7.0283,-6.9667,-6.9206,-6.9706,-7.0167,-7.036,-7.0591,-7.0821,-7.0898,-6.7461,-6.8359,-6.9922,-7.1015,-7.1836,-7.1953,-7.1992,-7.1992,-7.1992,-7.1992,-7.1992,-7.1992,-7.1992,-7.1992,-7.2031,-7.2031,-7.2031,-7.1992,-7.2109,-7.2109,-7.1992,-7.207,-7.2031,-7.1992,-7.1992,-7.2031,-7.2148,-7.2148,-7.2109,-7.2422,-7.2187,-7.1992,-7.2265,-7.2109,-7.2109,-7.2226,-7.2109,-7.2031,-7.1758,-7.1758,-7.1953,-7.1836,-7.1875,-7.1914,-7.1992,-7.1992,-7.1992,-7.1992,-7.1992,-7.1992,-7.1992,-7.1992,-7.207,-7.2187,-7.2734,-7.3398,-7.3437,-7.3515,-7.3828,-7.3789,-7.3555,-7.3203,-7.289,-7.2656,-7.2807,-7.2373,-7.2328,-7.2744,-7.293,-7.2651,-7.2417,-7.2065,-7.2417,-7.2495,-7.2651,-7.2612,-7.2612,-7.2495,-7.2417,-7.2104,-7.2182,-7.2534,-7.2417,-7.2885,-7.2534,-7.2138,-7.1838,-7.1846,-7.1572,-7.1053,-7.0966,-7.0783,-7.0821,-7.0821,-7.0821,-7.0898,-7.0898,-7.0898,-7.0898,-7.0898,-7.0821,-7.0898,-7.0898,-7.0898,-7.0898,-7.0898,-7.086,-7.036,-7.0129,-7.0591,-7.086,-7.0744,-7.0744,-7.086,-7.0898,-6.8164,-6.9023,-7.0234,-7.0898,-7.125,-7.1758,-7.1992,-7.1992,-7.1992,-7.1992,-7.1992,-7.1992,-7.1992,-7.1992,-7.2031,-7.2344,-7.2734,-7.2812,-7.2773,-7.2812,-7.2812,-7.25,-7.2265,-7.2031,-7.1992,-7.2148,-7.2461,-7.2773,-7.2851,-7.3164,-7.3515,-7.3476,-7.3047,-7.2851,-7.2812,-7.2734,-7.2539,-7.2109,-7.2031,-7.1992,-7.1992,-7.1992,-7.1992,-7.1992,-7.1992,-7.1992,-7.1992,-7.1992,-7.1992,-7.1992,-7.1992,-7.1992,-7.1992,-7.1992,-7.2461,-7.3086,-7.293,-7.3164,-7.3789,-7.3633,-7.332,-7.3398,-7.3437,-7.3554,-7.3393,-7.3506,-7.3535,-7.3603,-7.3437,-7.3315,-7.351,-7.3549,-7.3666,-7.3549,-7.3471,-7.3393,-7.3315,-7.3197,-7.3197,-7.308,-7.3354,-7.3705,-7.3471,-7.3197,-7.2651,-7.2099,-7.1778,-7.1505,-7.128,-7.1053,-7.0979,-7.0898,-7.0898,-7.0898,-7.0898,-7.0898,-7.0898,-7.0898,-7.0898,-7.0898,-7.0898,-7.0898,-7.0898,-7.0898,-7.0898,-7.0898,-7.0898,-7.0898,-7.0898,-7.0898,-7.0898,-7.086,-7.0898,-7.0898,-7.0898,-6.8672,-6.9453,-7.0351,-7.0859,-7.1133,-7.1758,-7.1992,-7.1992,-7.1992,-7.1992,-7.1992,-7.1992,-7.1992,-7.2031,-7.2344,-7.2656,-7.3203,-7.3476,-7.3437,-7.3359,-7.3125,-7.2773,-7.2344,-7.2265,-7.25,-7.2617,-7.3203,-7.3672,-7.3711,-7.4336,-7.4375,-7.4297,-7.4297,-7.4062,-7.3672,-7.3633,-7.3242,-7.2617,-7.2383,-7.2187,-7.2109,-7.1992,-7.1992,-7.1992,-7.1992,-7.1992,-7.1992,-7.1992,-7.1992,-7.1992,-7.1992,-7.1992,-7.1992,-7.2109,-7.25,-7.2773,-7.2969,-7.3164,-7.3945,-7.414,-7.3711,-7.3867,-7.414,-7.4414,-7.4602,-7.4598,-7.4318,-7.4335,-7.4408,-7.4525,-7.4564,-7.429,-7.4212,-7.4056,-7.4095,-7.4056,-7.4095,-7.4017,-7.4134,-7.4173,-7.4369,-7.433,-7.4173,-7.3744,-7.308,-7.2405,-7.1819,-7.158,-7.1386,-7.1203,-7.1017,-7.0965,-7.0898,-7.0898,-7.0898,-7.0975,-7.1014,-7.0898,-7.0898,-7.0898,-7.0898,-7.0975,-7.0975,-7.0898,-7.0898,-7.0898,-7.0898,-7.0898,-7.0898,-7.0898,-7.0898,-7.0898,-7.0898,-7.0898,-7.0898,-6.8633,-6.9492,-7.0312,-7.1133,-7.1836,-7.1953,-7.1992,-7.1992,-7.1992,-7.1992,-7.1992,-7.1992,-7.207,-7.2265,-7.2812,-7.332,-7.3789,-7.4297,-7.4297,-7.3828,-7.3789,-7.3008,-7.2734,-7.2851,-7.3281,-7.3515,-7.4101,-7.457,-7.457,-7.4961,-7.4922,-7.5078,-7.539,-7.5273,-7.4648,-7.457,-7.4101,-7.3398,-7.3281,-7.289,-7.25,-7.2383,-7.2422,-7.2422,-7.2461,-7.25,-7.2539,-7.2539,-7.2539,-7.2539,-7.25,-7.2461,-7.2422,-7.2383,-7.2734,-7.332,-7.3359,-7.375,-7.4492,-7.457,-7.4648,-7.4648,-7.4961,-7.5078,-7.4836,-7.4753,-7.4943,-7.5155,-7.4915,-7.4798,-7.4642,-7.472,-7.4915,-7.5071,-7.5188,-7.5266,-7.5384,-7.511,-7.5227,-7.5305,-7.4876,-7.4564,-7.4564,-7.429,-7.3549,-7.2828,-7.2028,-7.1725,-7.1784,-7.1763,-7.1721,-7.1672,-7.1668,-7.1668,-7.1706,-7.1283,-7.1129,-7.1014,-7.1168,-7.1475,-7.1514,-7.1552,-7.1437,-7.1129,-7.1129,-7.1321,-7.1129,-7.0937,-7.1052,-7.1129,-7.0937,-7.0898,-7.0898,-7.0898,-7.0898,-6.8164,-6.9492,-6.9765,-7.0703,-7.1875,-7.1992,-7.1992,-7.1992,-7.1992,-7.1992,-7.1992,-7.1992,-7.2383,-7.2851,-7.3242,-7.3906,-7.4961,-7.5156,-7.5117,-7.5039,-7.4883,-7.4492,-7.4062,-7.3867,-7.418,-7.4414,-7.4961,-7.5469,-7.5469,-7.582,-7.6211,-7.6484,-7.6367,-7.6211,-7.5664,-7.539,-7.5039,-7.4297,-7.414,-7.4023,-7.375,-7.3672,-7.3633,-7.3594,-7.3594,-7.3555,-7.3555,-7.3476,-7.3476,-7.3515,-7.3476,-7.3515,-7.3555,-7.3555,-7.3789,-7.4101,-7.418,-7.457,-7.539,-7.5859,-7.6015,-7.5859,-7.5859,-7.6092,-7.6241,-7.6238,-7.6267,-7.6134,-7.5969,-7.6008,-7.6281,-7.6867,-7.714,-7.7257,-7.7335,-7.7335,-7.7257,-7.6672,-7.6438,-7.6477,-7.6242,-7.5696,-7.5501,-7.5345,-7.4681,-7.4239,-7.361,-7.3196,-7.3115,-7.3054,-7.3017,-7.2893,-7.286,-7.2745,-7.2591,-7.2206,-7.2168,-7.2245,-7.2476,-7.2783,-7.2706,-7.2322,-7.2399,-7.236,-7.2052,-7.1745,-7.1706,-7.1629,-7.1475,-7.1398,-7.1437,-7.1206,-7.1091,-7.1014,-7.0937,-6.8437,-6.9492,-7.0117,-7.0976,-7.1914,-7.1992,-7.1992,-7.1992,-7.1992,-7.1992,-7.1992,-7.1992,-7.2461,-7.3125,-7.3711,-7.4414,-7.5859,-7.625,-7.5976,-7.5976,-7.5859,-7.5195,-7.4805,-7.4922,-7.5039,-7.5273,-7.582,-7.6328,-7.6367,-7.6875,-7.7031,-7.7031,-7.7187,-7.6836,-7.6445,-7.625,-7.5937,-7.5273,-7.5039,-7.4805,-7.457,-7.4453,-7.4492,-7.4492,-7.4492,-7.4492,-7.457,-7.4609,-7.4609,-7.4648,-7.4648,-7.4648,-7.4648,-7.4648,-7.4765,-7.4922,-7.543,-7.5742,-7.6406,-7.668,-7.668,-7.6445,-7.6953,-7.7107,-7.7139,-7.6899,-7.6929,-7.6953,-7.7104,-7.7062,-7.7179,-7.7921,-7.7999,-7.8038,-7.7999,-7.7921,-7.7765,-7.7101,-7.6906,-7.7023,-7.7023,-7.6633,-7.636,-7.6281,-7.5969,-7.5641,-7.5308,-7.4862,-7.435,-7.4139,-7.3966,-7.3857,-7.3661,-7.3427,-7.3297,-7.3168,-7.3206,-7.3423,-7.3591,-7.3745,-7.3423,-7.2976,-7.3308,-7.35,-7.3014,-7.2629,-7.2552,-7.2437,-7.236,-7.2322,-7.2322,-7.1975,-7.1475,-7.1437,-7.1552,-6.9375,-6.9648,-7.125,-7.1914,-7.1992,-7.1992,-7.1992,-7.1992,-7.1992,-7.2031,-7.207,-7.2148,-7.2773,-7.3555,-7.4297,-7.5156,-7.6015,-7.6797,-7.6601,-7.625,-7.6172,-7.5547,-7.543,-7.5586,-7.5859,-7.6211,-7.6601,-7.6914,-7.7148,-7.7148,-7.7187,-7.7226,-7.7226,-7.707,-7.7031,-7.6914,-7.6562,-7.6094,-7.5898,-7.5664,-7.5351,-7.5039,-7.5156,-7.5156,-7.5156,-7.5117,-7.5117,-7.5078,-7.5,-7.4961,-7.4883,-7.4805,-7.4765,-7.4726,-7.5234,-7.5859,-7.668,-7.6875,-7.7031,-7.7148,-7.7148,-7.6953,-7.7109,-7.7183,-7.7138,-7.7091,-7.7081,-7.711,-7.7101,-7.7101,-7.7218,-7.7335,-7.7492,-7.7492,-7.7492,-7.7453,-7.7414,-7.7179,-7.7101,-7.7101,-7.7101,-7.6906,-7.6867,-7.6828,-7.6633,-7.6549,-7.6184,-7.585,-7.5368,-7.4863,-7.4691,-7.4481,-7.4268,-7.3906,-7.3878,-7.4123,-7.4207,-7.4437,-7.4207,-7.4245,-7.3899,-7.386,-7.4168,-7.4245,-7.3769,-7.3514,-7.3437,-7.3399,-7.3322,-7.3283,-7.3283,-7.2899,-7.2437,-7.2668,-7.286,-6.8867,-6.9492,-7.0625,-7.1445,-7.1953,-7.1992,-7.1992,-7.1992,-7.1992,-7.2305,-7.293,-7.293,-7.3672,-7.5117,-7.543,-7.6015,-7.6601,-7.7031,-7.7031,-7.6875,-7.668,-7.6601,-7.6601,-7.6601,-7.6797,-7.6875,-7.707,-7.7226,-7.7187,-7.7226,-7.7226,-7.7226,-7.7226,-7.7226,-7.7226,-7.7226,-7.6992,-7.6836,-7.6719,-7.6484,-7.6367,-7.6211,-7.625,-7.6211,-7.6211,-7.6211,-7.6211,-7.625,-7.6289,-7.6328,-7.6406,-7.6445,-7.6445,-7.6445,-7.6719,-7.6758,-7.707,-7.7187,-7.7226,-7.7226,-7.7226,-7.7226,-7.7226,-7.7183,-7.7138,-7.7091,-7.7078,-7.7107,-7.7101,-7.7101,-7.7218,-7.7335,-7.7492,-7.757,-7.757,-7.7531,-7.7492,-7.7257,-7.7179,-7.7101,-7.7101,-7.7101,-7.7101,-7.7062,-7.6906,-7.7023,-7.6942,-7.6617,-7.6271,-7.578,-7.5485,-7.5274,-7.5171,-7.4961,-7.5195,-7.5465,-7.5408,-7.5361,-7.5096,-7.498,-7.5053,-7.5091,-7.5207,-7.5014,-7.463,-7.4437,-7.4361,-7.4284,-7.413,-7.4284,-7.4245,-7.3822,-7.3514,-7.3783,-7.386,-6.8672,-6.9492,-7.0312,-7.1211,-7.1914,-7.1992,-7.1992,-7.207,-7.2383,-7.2851,-7.3281,-7.3672,-7.4609,-7.5664,-7.5898,-7.6328,-7.7109,-7.7187,-7.7148,-7.7148,-7.7226,-7.7109,-7.7187,-7.7226,-7.7148,-7.7226,-7.7226,-7.7226,-7.7226,-7.7226,-7.7226,-7.7226,-7.7226,-7.7226,-7.7226,-7.7226,-7.7226,-7.7187,-7.7187,-7.7226,-7.7226,-7.7226,-7.7226,-7.7226,-7.7226,-7.7226,-7.7226,-7.7226,-7.7226,-7.7226,-7.7226,-7.7187,-7.7187,-7.7187,-7.7148,-7.7148,-7.7187,-7.7226,-7.7226,-7.7226,-7.7226,-7.7226,-7.7225,-7.7183,-7.7138,-7.7089,-7.7078,-7.7104,-7.7104,-7.714,-7.7335,-7.7492,-7.7648,-7.7804,-7.7804,-7.7804,-7.7609,-7.7335,-7.7218,-7.7101,-7.7101,-7.7101,-7.7101,-7.7101,-7.7101,-7.7101,-7.7101,-7.6981,-7.6755,-7.6492,-7.6313,-7.6178,-7.6194,-7.6154,-7.635,-7.627,-7.6081,-7.5929,-7.5864,-7.5838,-7.6062,-7.5899,-7.5668,-7.5592,-7.5515,-7.5322,-7.5091,-7.4976,-7.4861,-7.5014,-7.513,-7.4899,-7.4707,-7.4822,-7.4822,-6.8672,-6.9492,-7.039,-7.1289,-7.1953,-7.1992,-7.1992,-7.2109,-7.3008,-7.3398,-7.3594,-7.4219,-7.5078,-7.6015,-7.6211,-7.6523,-7.7031,-7.7226,-7.7226,-7.7226,-7.7226,-7.7226,-7.7226,-7.7226,-7.7226,-7.7226,-7.7226,-7.7226,-7.7226,-7.7226,-7.7226,-7.7226,-7.7226,-7.7226,-7.7226,-7.7226,-7.7226,-7.7226,-7.7226,-7.7226,-7.7226,-7.7226,-7.7226,-7.7226,-7.7226,-7.7226,-7.7226,-7.7226,-7.7226,-7.7226,-7.7226,-7.7226,-7.7226,-7.7226,-7.7226,-7.7226,-7.7226,-7.7226,-7.7226,-7.7226,-7.7226,-7.7226,-7.7225,-7.7144,-7.7099,-7.7089,-7.7078,-7.7104,-7.7101,-7.7101,-7.7218,-7.7257,-7.7375,-7.7453,-7.7453,-7.7453,-7.7335,-7.7179,-7.7179,-7.7101,-7.7101,-7.7101,-7.7101,-7.7101,-7.7101,-7.7101,-7.7101,-7.7101,-7.7124,-7.6999,-7.7009,-7.6927,-7.6706,-7.6596,-7.6561,-7.6497,-7.6467,-7.6366,-7.6339,-7.6236,-7.616,-7.609,-7.5976,-7.5861,-7.5784,-7.5861,-7.5745,-7.5553,-7.5438,-7.5592,-7.5745,-7.5861,-7.5861,-7.5668,-7.5592,-6.8711,-6.9609,-7.1055,-7.1836,-7.1992,-7.1992,-7.1992,-7.2148,-7.3672,-7.418,-7.4336,-7.4609,-7.5469,-7.664,-7.6758,-7.6992,-7.7109,-7.7226,-7.7226,-7.7226,-7.7226,-7.7226,-7.7226,-7.7226,-7.7226,-7.7226,-7.7226,-7.7226,-7.7226,-7.7226,-7.7226,-7.7226,-7.7226,-7.7226,-7.7226,-7.7226,-7.7226,-7.7226,-7.7226,-7.7265,-7.7344,-7.7265,-7.7226,-7.7226,-7.7226,-7.7226,-7.7226,-7.7226,-7.7226,-7.7226,-7.7226,-7.7226,-7.7226,-7.7226,-7.7226,-7.7226,-7.7226,-7.7226,-7.7226,-7.7226,-7.7226,-7.7226,-7.7226,-7.7148,-7.71,-7.7091,-7.712,-7.711,-7.7101,-7.7101,-7.7101,-7.7101,-7.7179,-7.7179,-7.7218,-7.7218,-7.7218,-7.7179,-7.714,-7.7101,-7.7101,-7.7101,-7.714,-7.714,-7.7101,-7.7101,-7.7101,-7.714,-7.7296,-7.7313,-7.7504,-7.7355,-7.6905,-7.6761,-7.6741,-7.6699,-7.6638,-7.657,-7.6516,-7.6415,-7.6273,-7.6186,-7.6147,-7.6034,-7.5976,-7.6034,-7.6048,-7.5938,-7.5899,-7.5976,-7.5976,-7.5976,-7.5976,-7.5861,-7.5899,-6.8359,-6.9609,-7.1289,-7.1992,-7.1992,-7.1992,-7.1992,-7.2187,-7.3047,-7.3906,-7.4726,-7.543,-7.6328,-7.7187,-7.7187,-7.7226,-7.7226,-7.7226,-7.7226,-7.7226,-7.7226,-7.7226,-7.7226,-7.7226,-7.7226,-7.7226,-7.7226,-7.7226,-7.7226,-7.7226,-7.7226,-7.7226,-7.7226,-7.7226,-7.7226,-7.7226,-7.7226,-7.7226,-7.7226,-7.7383,-7.7539,-7.7461,-7.7265,-7.7226,-7.7226,-7.7265,-7.7226,-7.7226,-7.7226,-7.7226,-7.7226,-7.7226,-7.7226,-7.7226,-7.7226,-7.7226,-7.7226,-7.7226,-7.7226,-7.7226,-7.7265,-7.7305,-7.7695,-7.7812,-7.793,-7.795,-7.7708,-7.7659,-7.7182,-7.7101,-7.7296,-7.7375,-7.7687,-7.7843,-7.8194,-7.8429,-7.8116,-7.7843,-7.7531,-7.7101,-7.7179,-7.7414,-7.7492,-7.7843,-7.7921,-7.8507,-7.8311,-7.8155,-7.8155,-7.7921,-7.7999,-7.7954,-7.7554,-7.7073,-7.6951,-7.6882,-7.6838,-7.6787,-7.6692,-7.6579,-7.6448,-7.6372,-7.6297,-7.6236,-7.6173,-7.6121,-7.6108,-7.6066,-7.5991,-7.5976,-7.5976,-7.5976,-7.5976,-7.5991,-7.5991,-6.789,-6.957,-7.1133,-7.1914,-7.1992,-7.1992,-7.1992,-7.207,-7.2344,-7.3242,-7.4726,-7.6367,-7.7109,-7.7226,-7.7226,-7.7226,-7.7226,-7.7226,-7.7226,-7.7226,-7.7226,-7.7226,-7.7226,-7.7226,-7.7226,-7.7226,-7.7226,-7.7226,-7.7226,-7.7226,-7.7226,-7.7226,-7.7226,-7.7226,-7.7226,-7.7226,-7.7226,-7.7226,-7.7305,-7.7617,-7.7695,-7.7773,-7.7695,-7.7539,-7.7539,-7.75,-7.7539,-7.7539,-7.7578,-7.7539,-7.7617,-7.7344,-7.7226,-7.7226,-7.7226,-7.7226,-7.7226,-7.7226,-7.7265,-7.7422,-7.7461,-7.7617,-7.8242,-7.8633,-7.875,-7.8696,-7.8491,-7.8245,-7.7729,-7.757,-7.7804,-7.7999,-7.835,-7.8624,-7.9092,-7.9405,-7.8936,-7.8546,-7.8077,-7.7492,-7.7648,-7.7921,-7.8155,-7.8507,-7.8897,-7.9522,-7.9756,-7.9717,-7.9561,-7.9131,-7.8936,-7.878,-7.8448,-7.7983,-7.7447,-7.7153,-7.7112,-7.6946,-7.6855,-7.678,-7.6646,-7.6516,-7.6487,-7.6517,-7.6457,-7.635,-7.6248,-7.6147,-7.6093,-7.6048,-7.6066,-7.6093,-7.602,-7.602,-7.6034,-6.789,-6.9492,-7.0508,-7.1367,-7.1914,-7.1992,-7.1992,-7.2265,-7.3515,-7.4375,-7.5,-7.6328,-7.7226,-7.7226,-7.7226,-7.7226,-7.7226,-7.7226,-7.7226,-7.7226,-7.7226,-7.7226,-7.7226,-7.7226,-7.7226,-7.7226,-7.7226,-7.7226,-7.7226,-7.7226,-7.7226,-7.7226,-7.7226,-7.7226,-7.7226,-7.7226,-7.7226,-7.7226,-7.7226,-7.7422,-7.7695,-7.8008,-7.875,-7.8906,-7.9219,-7.9219,-7.9219,-7.9258,-7.9219,-7.9062,-7.8476,-7.7812,-7.7422,-7.7226,-7.7226,-7.7265,-7.7265,-7.7383,-7.75,-7.7969,-7.8125,-7.832,-7.8945,-7.9492,-7.9563,-7.9675,-7.9547,-7.9567,-7.9209,-7.9092,-7.9209,-7.9209,-7.9444,-7.9561,-7.9873,-7.9834,-7.9561,-7.9444,-7.9209,-7.8975,-7.8975,-7.9131,-7.9287,-7.9483,-7.9561,-7.999,-8.0107,-8.0107,-8.0185,-7.999,-7.9873,-7.9678,-7.9444,-7.8858,-7.8311,-7.7645,-7.7469,-7.7235,-7.7106,-7.717,-7.7047,-7.6684,-7.6613,-7.6669,-7.6596,-7.6488,-7.6405,-7.6316,-7.6211,-7.6186,-7.6224,-7.6224,-7.6147,-7.6066,-7.6106]},{"header":{"parameterUnit":"m.s-1","parameterCategory":1,"la1":31.0,"la2":29.5877,"lo1":-88.7671,"lo2":-86.6584,"dy":0.0162,"dx":0.0185,"nx":115,"ny":88,"refTime":"2025-03-04T06:00:00:Z","depth":0,"parameterNumber":3,"parameterNumberName":"V-component_of_WINDS"},"data":[0.0,0.0,0.0,0.0,0.0,0.0,0.0,0.0,0.0,0.0,0.0,0.0,0.0,0.0,0.0,0.0,0.0,0.0,0.0,0.0,0.0,0.0,0.0,0.0,0.0,0.0,0.0,0.0,0.0,0.0,0.0,0.0,0.0,0.0,0.0,0.0,0.0,0.0,0.0,0.0,0.0,0.0,0.0,0.0,0.0,0.0,0.0,0.0,0.0,0.0,0.0,0.0,0.0,0.0,0.0,0.0,0.0,0.0,0.0,0.0,0.0,0.0,0.0,0.0,0.0,0.0,0.0,0.0,0.0,0.0,0.0,0.0,0.0,0.0,0.0,0.0,0.0,0.0,0.0,0.0,0.0,0.0,0.0,0.0,0.0,0.0,0.0,0.0,0.0,0.0,0.0,0.0,0.0,0.0,0.0,0.0,0.0,0.0,0.0,0.0,0.0,0.0,0.0,0.0,0.0,0.0,0.0,0.0,0.0,0.0,0.0,0.0,0.0,0.0,0.0,0.0,0.0,0.0,0.0,0.0,0.0,0.0,0.0,0.0,0.0,0.0,0.0,0.0,0.0,0.0,0.0,0.0,0.0,0.0,0.0,0.0,0.0,0.0,0.0,0.0,0.0,0.0,0.0,0.0,0.0,0.0,0.0,0.0,0.0,0.0,0.0,0.0,0.0,0.0,0.0,0.0,0.0,0.0,0.0,0.0,0.0,0.0,0.0,0.0,0.0,0.0,0.0,0.0,0.0,0.0,0.0,0.0,0.0,0.0,0.0,0.0,0.0,0.0,0.0,0.0,0.0,0.0,0.0,0.0,0.0,0.0,0.0,0.0,0.0,0.0,0.0,0.0,0.0,0.0,0.0,0.0,0.0,0.0,0.0,0.0,0.0,0.0,0.0,0.0,0.0,0.0,0.0,0.0,0.0,0.0,0.0,0.0,0.0,0.0,0.0,0.0,0.0,0.0,0.0,0.0,0.0,0.0,0.0,0.0,0.0,0.0,0.0,0.0,0.0,0.0,0.0,0.0,0.0,0.0,0.0,0.0,0.0,0.0,0.0,0.0,0.0,0.0,0.0,0.0,0.0,0.0,0.0,0.0,0.0,0.0,0.0,0.0,0.0,0.0,0.0,0.0,0.0,0.0,0.0,0.0,0.0,0.0,0.0,0.0,0.0,0.0,0.0,0.0,0.0,0.0,0.0,0.0,0.0,0.0,0.0,0.0,0.0,0.0,0.0,0.0,0.0,0.0,0.0,0.0,0.0,0.0,0.0,0.0,0.0,0.0,0.0,0.0,0.0,0.0,0.0,0.0,0.0,0.0,0.0,0.0,0.0,0.0,0.0,0.0,0.0,0.0,0.0,0.0,0.0,0.0,0.0,0.0,0.0,0.0,0.0,0.0,0.0,0.0,0.0,0.0,0.0,0.0,0.0,0.0,0.0,0.0,0.0,0.0,0.0,0.0,0.0,0.0,0.0,0.0,0.0,0.0,0.0,0.0,0.0,0.0,0.0,0.0,0.0,0.0,0.0,0.0,0.0,0.0,0.0,0.0,0.0,0.0,0.0,0.0,0.0,0.0,0.0,0.0,0.0,0.0,0.0,0.0,0.0,0.0,0.0,0.0,0.0,0.0,0.0,0.0,0.0,0.0,0.0,0.0,0.0,0.0,0.0,0.0,0.0,0.0,0.0,0.0,0.0,0.0,0.0,0.0,0.0,0.0,0.0,0.0,0.0,0.0,0.0,0.0,0.0,0.0,0.0,0.0,0.0,0.0,0.0,0.0,0.0,0.0,0.0,0.0,0.0,0.0,0.0,0.0,0.0,0.0,0.0,0.0,0.0,0.0,0.0,0.0,0.0,0.0,0.0,0.0,0.0,0.0,0.0,0.0,0.0,0.0,0.0,0.0,0.0,0.0,0.0,0.0,0.0,0.0,0.0,0.0,0.0,0.0,0.0,0.0,0.0,0.0,0.0,0.0,0.0,0.0,0.0,0.0,0.0,0.0,0.0,0.0,0.0,0.0,0.0,0.0,0.0,0.0,0.0,0.0,0.0,0.0,0.0,0.0,0.0,0.0,0.0,0.0,0.0,0.0,0.0,0.0,0.0,0.0,0.0,0.0,0.0,0.0,0.0,0.0,0.0,0.0,0.0,0.0,0.0,0.0,0.0,0.0,0.0,0.0,0.0,0.0,0.0,0.0,0.0,0.0,0.0,0.0,0.0,0.0,0.0,0.0,0.0,0.0,0.0,0.0,0.0,0.0,0.0,0.0,0.0,0.0,0.0,0.0,0.0,0.0,0.0,0.0,0.0,0.0,0.0,0.0,0.0,0.0,0.0,0.0,0.0,0.0,0.0,0.0,0.0,0.0,0.0,0.0,0.0,0.0,0.0,0.0,0.0,0.0,0.0,0.0,0.0,0.0,0.0,0.0,0.0,0.0,0.0,0.0,0.0,0.0,0.0,0.0,0.0,0.0,0.0,0.0,0.0,0.0,0.0,0.0,0.0,0.0,0.0,0.0,0.0,0.0,0.0,0.0,0.0,0.0,0.0,0.0,0.0,0.0,0.0,0.0,0.0,0.0,0.0,0.0,0.0,0.0,0.0,0.0,0.0,0.0,0.0,0.0,0.0,0.0,0.0,0.0,0.0,0.0,0.0,0.0,0.0,0.0,0.0,0.0,0.0,0.0,0.0,0.0,0.0,0.0,0.0,0.0,0.0,0.0,0.0,0.0,0.0,0.0,0.0,0.0,0.0,0.0,0.0,0.0,0.0,0.0,0.0,0.0,0.0,0.0,0.0,0.0,0.0,0.0,0.0,0.0,0.0,0.0,0.0,0.0,0.0,0.0,0.0,0.0,0.0,0.0,0.0,0.0,0.0,0.0,0.0,0.0,0.0,0.0,0.0,0.0,0.0,0.0,0.0,0.0,0.0,0.0,0.0,0.0,0.0,0.0,0.0,0.0,0.0,0.0,0.0,0.0,0.0,0.0,0.0,0.0,0.0,0.0,0.0,0.0,0.0,0.0,0.0,0.0,0.0,0.0,0.0,0.0,0.0,0.0,0.0,0.0,0.0,0.0,0.0,0.0,0.0,0.0,0.0,0.0,0.0,0.0,0.0,0.0,0.0,0.0,0.0,0.0,0.0,0.0,0.0,0.0,0.0,0.0,0.0,0.0,0.0,0.0,0.0,0.0,0.0,0.0,0.0,0.0,0.0,0.0,0.0,0.0,0.0,0.0,0.0,0.0,0.0,0.0,0.0,0.0,0.0,0.0,0.0,0.0,0.0,0.0,0.0,0.0,0.0,0.0,0.0,0.0,0.0,0.0,0.0,0.0,0.0,0.0,0.0,0.0,0.0,0.0,0.0,0.0,0.0,0.0,0.0,0.0,0.0,0.0,0.0,0.0,0.0,0.0,0.0,0.0,0.0,0.0,0.0,0.0,0.0,0.0,0.0,0.0,0.0,0.0,0.0,0.0,0.0,0.0,0.0,0.0,0.0,0.0,0.0,0.0,0.0,0.0,0.0,0.0,0.0,0.0,0.0,0.0,0.0,0.0,0.0,0.0,0.0,0.0,0.0,0.0,0.0,0.0,0.0,0.0,0.0,0.0,0.0,0.0,0.0,0.0,0.0,0.0,0.0,0.0,0.0,0.0,0.0,0.0,0.0,0.0,0.0,0.0,0.0,0.0,0.0,0.0,0.0,0.0,0.0,0.0,0.0,0.0,0.0,0.0,0.0,0.0,0.0,0.0,0.0,0.0,0.0,0.0,0.0,0.0,0.0,0.0,0.0,0.0,0.0,0.0,0.0,0.0,0.0,0.0,0.0,0.0,0.0,0.0,0.0,0.0,0.0,0.0,0.0,0.0,0.0,0.0,0.0,0.0,0.0,0.0,0.0,0.0,0.0,0.0,0.0,0.0,0.0,0.0,0.0,0.0,0.0,0.0,0.0,0.0,0.0,0.0,0.0,0.0,0.0,0.0,0.0,0.0,0.0,0.0,0.0,0.0,0.0,0.0,0.0,0.0,0.0,0.0,0.0,0.0,0.0,0.0,0.0,0.0,0.0,0.0,0.0,0.0,0.0,0.0,0.0,0.0,0.0,0.0,0.0,0.0,0.0,0.0,0.0,0.0,0.0,0.0,0.0,0.0,0.0,0.0,0.0,0.0,0.0,0.0,0.0,0.0,0.0,0.0,0.0,0.0,0.0,0.0,0.0,0.0,0.0,0.0,0.0,0.0,0.0,0.0,0.0,0.0,0.0,0.0,0.0,0.0,0.0,0.0,0.0,0.0,0.0,0.0,0.0,0.0,0.0,0.0,0.0,0.0,0.0,0.0,0.0,0.0,0.0,0.0,0.0,0.0,0.0,0.0,0.0,0.0,0.0,0.0,0.0,0.0,0.0,0.0,0.0,0.0,0.0,0.0,0.0,0.0,0.0,0.0,0.0,0.0,0.0,0.0,0.0,0.0,0.0,0.0,0.0,0.0,0.0,0.0,0.0,0.0,0.0,0.0,0.0,0.0,0.0,0.0,0.0,0.0,0.0,0.0,0.0,0.0,0.0,0.0,0.0,0.0,0.0,0.0,0.0,0.0,0.0,0.0,0.0,0.0,0.0,0.0,0.0,0.0,0.0,0.0,0.0,0.0,0.0,0.0,0.0,0.0,0.0,0.0,0.0,0.0,0.0,0.0,0.0,0.0,0.0,0.0,0.0,0.0,0.0,0.0,0.0,0.0,0.0,0.0,0.0,0.0,0.0,0.0,0.0,0.0,0.0,0.0,0.0,0.0,0.0,0.0,0.0,0.0,0.0,0.0,0.0,0.0,0.0,0.0,0.0,0.0,0.0,0.0,0.0,0.0,0.0,0.0,0.0,0.0,0.0,0.0,0.0,0.0,0.0,0.0,0.0,0.0,0.0,0.0,0.0,0.0,0.0,0.0,0.0,0.0,0.0,0.0,0.0,0.0,0.0,0.0,0.0,0.0,0.0,0.0,0.0,0.0,0.0,0.0,0.0,0.0,0.0,0.0,0.0,0.0,0.0,0.0,0.0,0.0,0.0,0.0,0.0,0.0,0.0,0.0,0.0,0.0,0.0,0.0,0.0,0.0,0.0,0.0,0.0,0.0,0.0,0.0,0.0,0.0,0.0,0.0,0.0,0.0,0.0,0.0,0.0,0.0,0.0,0.0,0.0,0.0,0.0,0.0,0.0,0.0,0.0,0.0,0.0,0.0,0.0,0.0,0.0,0.0,0.0,0.0,0.0,0.0,0.0,0.0,0.0,0.0,0.0,0.0,0.0,0.0,0.0,0.0,0.0,0.0,0.0,0.0,0.0,0.0,0.0,0.0,0.0,0.0,0.0,0.0,0.0,0.0,0.0,0.0,0.0,0.0,0.0,0.0,0.0,0.0,0.0,0.0,0.0,0.0,0.0,0.0,0.0,0.0,0.0,0.0,0.0,0.0,0.0,0.0,0.0,0.0,0.0,0.0,0.0,0.0,0.0,0.0,0.0,0.0,0.0,0.0,0.0,0.0,0.0,0.0,0.0,0.0,0.0,0.0,0.0,0.0,0.0,0.0,0.0,0.0,0.0,0.0,0.0,0.0,0.0,0.0,0.0,0.0,0.0,0.0,0.0,0.0,0.0,0.0,0.0,0.0,0.0,0.0,0.0,0.0,0.0,0.0,0.0,0.0,0.0,0.0,0.0,0.0,0.0,0.0,0.0,0.0,0.0,0.0,0.0,0.0,0.0,0.0,0.0,0.0,0.0,0.0,0.0,0.0,0.0,0.0,0.0,0.0,0.0,0.0,0.0,0.0,0.0,0.0,0.0,0.0,0.0,0.0,0.0,0.0,0.0,0.0,0.0,0.0,0.0,0.0,0.0,0.0,0.0,0.0,0.0,0.0,0.0,0.0,0.0,0.0,0.0,0.0,0.0,0.0,0.0,0.0,0.0,0.0,0.0,0.0,0.0,0.0,0.0,0.0,0.0,0.0,0.0,0.0,0.0,0.0,0.0,0.0,0.0,0.0,0.0,0.0,0.0,0.0,0.0,0.0,0.0,0.0,0.0,0.0,0.0,0.0,0.0,0.0,0.0,0.0,0.0,0.0,0.0,0.0,0.0,0.0,0.0,0.0,0.0,0.0,0.0,0.0,0.0,0.0,0.0,0.0,0.0,0.0,0.0,0.0,0.0,0.0,0.0,0.0,0.0,0.0,0.0,0.0,0.0,0.0,0.0,0.0,0.0,0.0,0.0,0.0,0.0,0.0,0.0,0.0,0.0,0.0,0.0,0.0,0.0,0.0,0.0,0.0,0.0,0.0,0.0,0.0,0.0,0.0,0.0,0.0,0.0,0.0,0.0,0.0,0.0,0.0,0.0,0.0,0.0,0.0,0.0,0.0,0.0,0.0,0.0,0.0,0.0,0.0,0.0,0.0,0.0,0.0,0.0,0.0,0.0,0.0,0.0,0.0,0.0,0.0,0.0,0.0,0.0,0.0,0.0,0.0,0.0,0.0,0.0,0.0,0.0,0.0,0.0,0.0,0.0,0.0,0.0,0.0,0.0,0.0,0.0,0.0,0.0,0.0,0.0,0.0,0.0,0.0,0.0,0.0,0.0,0.0,0.0,0.0,0.0,0.0,0.0,0.0,0.0,0.0,0.0,0.0,0.0,0.0,0.0,0.0,0.0,0.0,0.0,0.0,0.0,0.0,0.0,0.0,0.0,0.0,0.0,0.0,0.0,0.0,0.0,0.0,0.0,0.0,0.0,0.0,0.0,0.0,0.0,0.0,0.0,0.0,0.0,0.0,0.0,0.0,0.0,0.0,0.0,0.0,0.0,0.0,0.0,0.0,0.0,0.0,0.0,0.0,0.0,0.0,0.0,0.0,0.0,0.0,0.0,0.0,0.0,0.0,0.0,0.0,0.0,0.0,0.0,0.0,0.0,0.0,0.0,0.0,0.0,0.0,0.0,0.0,0.0,0.0,0.0,0.0,0.0,0.0,0.0,0.0,0.0,0.0,0.0,0.0,0.0,0.0,0.0,0.0,0.0,0.0,0.0,0.0,0.0,0.0,0.0,0.0,0.0,0.0,0.0,0.0,0.0,0.0,0.0,0.0,0.0,0.0,0.0,0.0,0.0,0.0,0.0,0.0,0.0,0.0,0.0,0.0,0.0,0.0,0.0,0.0,0.0,0.0,0.0,0.0,0.0,0.0,0.0,0.0,0.0,0.0,0.0,0.0,0.0,0.0,0.0,0.0,0.0,0.0,0.0,0.0,0.0,0.0,0.0,0.0,0.0,0.0,0.0,0.0,0.0,0.0,0.0,0.0,0.0,0.0,0.0,0.0,0.0,0.0,0.0,0.0,0.0,0.0,0.0,0.0,0.0,0.0,0.0,0.0,0.0,0.0,0.0,0.0,0.0,0.0,0.0,0.0,0.0,0.0,0.0,0.0,0.0,0.0,0.0,0.0,0.0,0.0,0.0,0.0,0.0,0.0,0.0,0.0,0.0,0.0,0.0,0.0,0.0,0.0,0.0,0.0,0.0,0.0,0.0,0.0,0.0,0.0,0.0,0.0,0.0,0.0,0.0,0.0,0.0,0.0,0.0,0.0,0.0,0.0,0.0,0.0,0.0,0.0,0.0,0.0,0.0,0.0,0.0,0.0,0.0,0.0,0.0,0.0,0.0,0.0,0.0,0.0,0.0,0.0,0.0,0.0,0.0,0.0,0.0,0.0,0.0,0.0,0.0,0.0,0.0,0.0,0.0,0.0,0.0,0.0,0.0,0.0,0.0,0.0,0.0,0.0,0.0,0.0,0.0,0.0,0.0,0.0,0.0,0.0,0.0,0.0,0.0,0.0,0.0,0.0,0.0,0.0,0.0,0.0,0.0,0.0,0.0,0.0,0.0,0.0,0.0,0.0,0.0,0.0,0.0,0.0,0.0,0.0,0.0,0.0,0.0,0.0,0.0,0.0,0.0,0.0,0.0,0.0,0.0,0.0,0.0,0.0,0.0,0.0,0.0,0.0,0.0,0.0,0.0,0.0,0.0,0.0,0.0,0.0,0.0,0.0,0.0,0.0,0.0,0.0,0.0,0.0,0.0,0.0,0.0,0.0,0.0,0.0,0.0,0.0,0.0,0.0,0.0,0.0,0.0,0.0,0.0,0.0,0.0,0.0,0.0,0.0,0.0,0.0,0.0,0.0,0.0,0.0,0.0,0.0,0.0,0.0,0.0,0.0,0.0,0.0,0.0,0.0,0.0,0.0,0.0,0.0,0.0,0.0,0.0,0.0,0.0,0.0,0.0,0.0,0.0,0.0,0.0,0.0,0.0,0.0,0.0,0.0,0.0,0.0,0.0,0.0,0.0,0.0,0.0,0.0,0.0,0.0,0.0,0.0,0.0,0.0,0.0,0.0,0.0,0.0,0.0,0.0,0.0,0.0,0.0,0.0,0.0,0.0,0.0,0.0,0.0,0.0,0.0,0.0,0.0,0.0,0.0,0.0,0.0,0.0,0.0,0.0,0.0,0.0,0.0,0.0,0.0,0.0,0.0,0.0,0.0,0.0,0.0,0.0,0.0,0.0,0.0,0.0,0.0,0.0,0.0,0.0,0.0,0.0,0.0,0.0,0.0,0.0,0.0,0.0,0.0,0.0,0.0,0.0,0.0,0.0,0.0,0.0,0.0,0.0,0.0,0.0,0.0,0.0,0.0,0.0,0.0,0.0,0.0,0.0,0.0,0.0,0.0,0.0,0.0,0.0,0.0,0.0,0.0,0.0,0.0,0.0,0.0,0.0,0.0,0.0,0.0,0.0,0.0,0.0,0.0,0.0,0.0,0.0,0.0,0.0,0.0,0.0,0.0,0.0,0.0,0.0,0.0,0.0,0.0,0.0,0.0,0.0,0.0,0.0,0.0,0.0,0.0,0.0,0.0,0.0,0.0,0.0,0.0,0.0,0.0,0.0,0.0,0.0,0.0,0.0,0.0,0.0,0.0,0.0,0.0,0.0,0.0,0.0,0.0,0.0,0.0,0.0,0.0,0.0,0.0,0.0,0.0,0.0,0.0,0.0,0.0,0.0,0.0,0.0,0.0,0.0,0.0,0.0,0.0,0.0,0.0,0.0,0.0,0.0,0.0,0.0,0.0,0.0,0.0,0.0,0.0,0.0,0.0,0.0,0.0,0.0,0.0,0.0,0.0,0.0,0.0,0.0,0.0,0.0,0.0,0.0,0.0,0.0,0.0,0.0,0.0,0.0,0.0,0.0,0.0,0.0,0.0,0.0,0.0,0.0,0.0,0.0,0.0,0.0,0.0,0.0,0.0,0.0,0.0,0.0,0.0,0.0,0.0,0.0,0.0,0.0,0.0,0.0,0.0,0.0,0.0,0.0,0.0,0.0,0.0,0.0,0.0,0.0,0.0,0.0,0.0,0.0,0.0,0.0,0.0,0.0,0.0,0.0,0.0,0.0,0.0,0.0,0.0,0.0,0.0,0.0,0.0,0.0,0.0,0.0,0.0,0.0,0.0,0.0,0.0,0.0,0.0,0.0,0.0,0.0,0.0,0.0,0.0,0.0,0.0,0.0,0.0,0.0,0.0,0.0,0.0,0.0,0.0,0.0,0.0,0.0,0.0,0.0,0.0,0.0,0.0,0.0,0.0,0.0,0.0,0.0,0.0,0.0,0.0,0.0,0.0,0.0,0.0,0.0,0.0,0.0,0.0,0.0,0.0,0.0,0.0,0.0,0.0,0.0,0.0,0.0,0.0,0.0,0.0,0.0,0.0,0.0,0.0,0.0,0.0,0.0,0.0,0.0,0.0,0.0,0.0,0.0,0.0,0.0,0.0,0.0,0.0,0.0,0.0,0.0,0.0,0.0,0.0,0.0,0.0,0.0,0.0,0.0,0.0,0.0,0.0,0.0,0.0,0.0,0.0,0.0,0.0,0.0,0.0,0.0,0.0,0.0,0.0,0.0,0.0,0.0,0.0,0.0,0.0,0.0,0.0,0.0,0.0,0.0,0.0,0.0,0.0,0.0,0.0,0.0,0.0,0.0,0.0,0.0,0.0,0.0,0.0,0.0,0.0,0.0,0.0,0.0,0.0,0.0,0.0,0.0,0.0,0.0,0.0,0.0,0.0,0.0,0.0,0.0,0.0,0.0,0.0,0.0,0.0,0.0,0.0,0.0,0.0,0.0,0.0,0.0,0.0,0.0,0.0,0.0,0.0,0.0,0.0,0.0,0.0,0.0,0.0,0.0,0.0,0.0,0.0,0.0,0.0,0.0,0.0,0.0,0.0,0.0,0.0,0.0,0.0,0.0,0.0,0.0,0.0,0.0,0.0,0.0,0.0,0.0,0.0,0.0,0.0,0.0,0.0,0.0,0.0,0.0,0.0,0.0,0.0,0.0,0.0,0.0,0.0,0.0,0.0,0.0,0.0,0.0,0.0,0.0,0.0,0.0,0.0,0.0,0.0,0.0,0.0,0.0,0.0,0.0,0.0,0.0,0.0,0.0,0.0,0.0,0.0,0.0,0.0,0.0,0.0,0.0,0.0,0.0,0.0,0.0,0.0,0.0,0.0,0.0,0.0,0.0,0.0,0.0,0.0,0.0,0.0,0.0,0.0,0.0,0.0,0.0,0.0,0.0,0.0,0.0,0.0,0.0,0.0,0.0,0.0,0.0,0.0,0.0,0.0,0.0,0.0,0.0,0.0,0.0,0.0,0.0,0.0,0.0,0.0,0.0,0.0,0.0,0.0,0.0,0.0,0.0,0.0,0.0,0.0,0.0,0.0,0.0,0.0,0.0,0.0,0.0,0.0,0.0,0.0,0.0,0.0,0.0,0.0,0.0,0.0,0.0,0.0,0.0,0.0,0.0,0.0,0.0,0.0,0.0,0.0,0.0,0.0,0.0,0.0,0.0,0.0,0.0,0.0,0.0,0.0,0.0,0.0,0.0,0.0,0.0,0.0,0.0,0.0,0.0,0.0,0.0,0.0,0.0,0.0,0.0,0.0,0.0,0.0,0.0,0.0,0.0,0.0,0.0,0.0,0.0,0.0,0.0,0.0,0.0,0.0,0.0,0.0,0.0,0.0,0.0,0.0,0.0,0.0,0.0,0.0,0.0,0.0,0.0,0.0,0.0,0.0,0.0,0.0,0.0,0.0,0.0,0.0,0.0,0.0,0.0,0.0,0.0,0.0,0.0,0.0,0.0,0.0,0.0,0.0,0.0,0.0,0.0,0.0,0.0,0.0,0.0,0.0,0.0,0.0,0.0,0.0,0.0,0.0,0.0,0.0,0.0,0.0,0.0,0.0,0.0,0.0,0.0,0.0,0.0,0.0,0.0,0.0,0.0,0.0,0.0,0.0,0.0,0.0,0.0,0.0,0.0,0.0,0.0,0.0,0.0,0.0,0.0,0.0,0.0,0.0,0.0,0.0,0.0,0.0,0.0,0.0,0.0,0.0,0.0,0.0,0.0,0.0,0.0,0.0,0.0,0.0,0.0,0.0,0.0,0.0,0.0,0.0,0.0,0.0,0.0,0.0,0.0,0.0,0.0,0.0,0.0,0.0,0.0,0.0,0.0,0.0,0.0,0.0,0.0,0.0,0.0,0.0,0.0,0.0,0.0,0.0,0.0,0.0,0.0,0.0,0.0,0.0,0.0,0.0,0.0,0.0,0.0,0.0,0.0,0.0,0.0,0.0,0.0,0.0,0.0,0.0,0.0,0.0,0.0,0.0,0.0,0.0,0.0,0.0,0.0,0.0,0.0,0.0,0.0,0.0,0.0,0.0,0.0,0.0,0.0,0.0,0.0,0.0,0.0,0.0,0.0,0.0,0.0,0.0,0.0,0.0,0.0,0.0,0.0,0.0,0.0,0.0,0.0,0.0,0.0,0.0,0.0,0.0,0.0,0.0,0.0,0.0,0.0,0.0,0.0,0.0,0.0,0.0,0.0,0.0,0.0,0.0,0.0,0.0,0.0,0.0,0.0,0.0,0.0,0.0,0.0,0.0,0.0,0.0,0.0,0.0,0.0,0.0,0.0,0.0,0.0,0.0,0.0,0.0,0.0,0.0,0.0,0.0,0.0,0.0,0.0,0.0,0.0,0.0,0.0,0.0,0.0,0.0,0.0,0.0,0.0,0.0,0.0,0.0,0.0,0.0,0.0,0.0,0.0,0.0,0.0,0.0,0.0,0.0,0.0,0.0,0.0,0.0,0.0,0.0,0.0,0.0,0.0,0.0,0.0,0.0,0.0,0.0,0.0,0.0,0.0,0.0,0.0,0.0,0.0,0.0,0.0,0.0,0.0,0.0,0.0,0.0,0.0,0.0,0.0,0.0,0.0,0.0,0.0,0.0,0.0,0.0,0.0,0.0,0.0,0.0,0.0,0.0,0.0,0.0,0.0,0.0,0.0,0.0,0.0,0.0,0.0,0.0,0.0,0.0,0.0,0.0,0.0,0.0,0.0,0.0,0.0,0.0,0.0,0.0,0.0,0.0,0.0,0.0,0.0,0.0,0.0,0.0,0.0,0.0,0.0,0.0,0.0,0.0,0.0,0.0,0.0,0.0,0.0,0.0,0.0,0.0,0.0,0.0,0.0,0.0,0.0,0.0,0.0,0.0,0.0,0.0,0.0,-0.3765,0.0,0.0,0.0,0.0,0.0,0.0,0.0,0.0,0.0,0.0,0.0,0.0,0.0,0.0,0.0,0.0,0.0,0.0,0.0,0.0,0.0,0.0,0.0,0.0,0.0,0.0,0.0,0.0,0.0,0.0,0.0,0.0,0.0,0.0,0.0,0.0,0.0,0.0,0.0,0.0,0.0,0.0,0.0,0.0,0.0,0.0,0.0,0.0,0.0,0.0,0.0,0.0,0.0,0.0,0.0,0.0,0.0,0.0,0.0,0.0,0.0,0.0,0.0,0.0,0.0,0.0,0.0,0.0,0.0,0.0,0.0,0.0,0.0,0.0,0.0,0.0,0.0,0.0,0.0,0.0,0.0,0.0,0.0,0.0,0.0,0.0,0.0,0.0,0.0,0.0,0.0,0.0,0.0,0.0,0.0,0.0,0.0,0.0,0.0,0.0,0.0,0.0,0.0,0.0,0.0,0.0,0.0,0.0,0.0,0.0,0.0,0.0,0.0,0.0,0.0,0.0,0.0,0.0,0.0,0.0,0.0,0.0,0.0,0.0,0.0,0.0,0.0,0.0,0.0,0.0,0.0,0.0,0.0,0.0,0.0,0.0,0.0,0.0,0.0,0.0,0.0,0.0,0.0,0.0,0.0,0.0,0.0,0.0,0.0,0.0,0.0,0.0,0.0,0.0,0.0,0.0,0.0,0.0,0.0,0.0,0.0,0.0,0.0,0.0,0.0,0.0,0.0,0.0,0.0,0.0,0.0,0.0,0.0,0.0,0.0,0.0,0.0,0.0,0.0,0.0,0.0,0.0,0.0,0.0,0.0,0.0,0.0,0.0,0.0,0.0,0.0,0.0,0.0,0.0,0.0,0.0,0.0,0.0,0.0,0.0,0.0,0.0,0.0,0.0,0.0,0.0,0.0,0.0,0.0,0.0,0.0,0.0,0.0,0.0,0.0,0.0,0.0,0.0,0.0,0.0,-0.0575,-0.1416,0.0,0.0,0.0,0.0,0.0,0.0,0.0,0.0,-0.4919,0.0,0.0,0.0,0.0,0.0,0.0,0.0,0.0,0.0,0.0,0.0,0.0,0.0,0.0,0.0,0.0,0.0,0.0,0.0,0.0,0.0,0.0,0.0,0.0,0.0,0.0,0.0,0.0,0.0,0.0,0.0,0.0,0.0,0.0,0.0,0.0,0.0,0.0,0.0,0.0,0.0,0.0,0.0,0.0,0.0,0.0,0.0,0.0,0.0,0.0,0.0,0.0,0.0,0.0,0.0,0.0,0.0,0.0,0.0,0.0,0.0,0.0,0.0,0.0,0.0,0.0,0.0,0.0,0.0,0.0,0.0,0.0,0.0,0.0,0.0,0.0,0.0,0.0,0.0,0.0,0.0,0.0,0.0,0.0,0.0,0.0,0.0,0.0,0.0,0.0,0.0,0.0,0.0,0.0,0.0,0.0,0.0,0.0,0.0,0.0,0.0,0.0,0.0,0.0,0.0,-0.3572,-0.4327,0.0,0.0,0.0,0.0,0.0,0.0,0.0,0.0,-0.5664,0.0,0.0,0.0,0.0,0.0,0.0,0.0,0.0,0.0,0.0,0.0,0.0,0.0,0.0,0.0,0.0,0.0,0.0,0.0,0.0,0.0,0.0,0.0,0.0,0.0,0.0,0.0,0.0,0.0,0.0,0.0,0.0,0.0,0.0,0.0,0.0,0.0,0.0,0.0,0.0,0.0,0.0,0.0,0.0,0.0,0.0,0.0,0.0,0.0,0.0,0.0,0.0,0.0,0.0,0.0,0.0,0.0,0.0,0.0,0.0,0.0,0.0,0.0,0.0,0.0,0.0,0.0,0.0,0.0,0.0,0.0,0.0,0.0,0.0,0.0,0.0,0.0,0.0,0.0,0.0,0.0,0.0,0.0,0.0,0.0,0.0,0.0,0.0,0.0,0.0,0.0,0.0,0.0,0.0,0.0,0.0,0.0,0.0,0.0,0.0,0.0,0.0,0.0,0.0,-0.4333,-0.4896,-0.7073,0.0,0.0,0.0,0.0,0.0,0.0,-0.5535,-0.5666,0.0,0.0,0.0,0.0,0.0,0.0,0.0,0.0,0.0,0.0,0.0,0.0,0.0,0.0,0.0,0.0,0.0,0.0,0.0,0.0,0.0,0.0,0.0,0.0,0.0,0.0,0.0,0.0,0.0,0.0,0.0,0.0,0.0,0.0,0.0,0.0,0.0,0.0,0.0,0.0,0.0,0.0,0.0,0.0,0.0,0.0,0.0,0.0,0.0,0.0,0.0,0.0,0.0,0.0,0.0,0.0,0.0,0.0,0.0,0.0,0.0,0.0,0.0,0.0,0.0,0.0,0.0,0.0,0.0,0.0,0.0,0.0,0.0,0.0,0.0,0.0,0.0,0.0,0.0,0.0,0.0,0.0,0.0,0.0,0.0,0.0,0.0,0.0,0.0,0.0,0.0,0.0,0.0,0.0,0.0,0.0,0.0,0.0,0.0,0.0,0.0,0.0,0.0,0.0,0.0,-0.5645,-0.748,-0.7078,0.0,0.0,0.0,0.0,-0.4765,-0.5693,0.0,0.0,0.0,0.0,0.0,0.0,0.0,0.0,0.0,0.0,0.0,0.0,0.0,0.0,0.0,0.0,0.0,0.0,0.0,0.0,0.0,0.0,0.0,0.0,0.0,0.0,0.0,0.0,0.0,0.0,0.0,0.0,0.0,0.0,0.0,0.0,0.0,0.0,0.0,0.0,0.0,0.0,0.0,0.0,0.0,0.0,0.0,0.0,0.0,0.0,0.0,0.0,0.0,0.0,0.0,0.0,0.0,0.0,0.0,0.0,0.0,0.0,0.0,0.0,0.0,0.0,0.0,0.0,0.0,0.0,0.0,0.0,0.0,0.0,0.0,0.0,0.0,0.0,0.0,0.0,0.0,0.0,0.0,0.0,0.0,0.0,0.0,0.0,0.0,0.0,0.0,0.0,0.0,0.0,0.0,0.0,0.0,0.0,0.0,0.0,0.0,0.0,0.0,0.0,0.0,0.0,-0.7558,-0.7624,-0.6836,-0.6374,0.0,0.0,-0.6444,-0.7225,-0.7822,0.0,0.0,0.0,0.0,0.0,0.0,0.0,0.0,0.0,0.0,0.0,0.0,0.0,0.0,0.0,0.0,0.0,0.0,0.0,0.0,0.0,0.0,0.0,0.0,0.0,0.0,0.0,0.0,0.0,0.0,0.0,0.0,0.0,0.0,0.0,0.0,0.0,0.0,0.0,0.0,0.0,0.0,0.0,0.0,0.0,0.0,0.0,0.0,0.0,0.0,0.0,0.0,0.0,0.0,0.0,0.0,0.0,0.0,0.0,0.0,0.0,0.0,0.0,0.0,0.0,0.0,0.0,0.0,0.0,0.0,0.0,0.0,0.0,0.0,0.0,0.0,0.0,0.0,0.0,0.0,0.0,0.0,0.0,0.0,0.0,0.0,0.0,0.0,0.0,0.0,0.0,0.0,0.0,0.0,0.0,0.0,0.0,0.0,0.0,0.0,0.0,0.0,0.0,0.0,0.0,0.0,0.0,-0.7304,-0.7508,0.0,0.0,0.0,-0.7223,-0.6636,0.0,0.0,0.0,0.0,0.0,0.0,0.0,0.0,0.0,0.0,0.0,0.0,0.0,0.0,0.0,0.0,0.0,0.0,0.0,0.0,0.0,0.0,0.0,0.0,0.0,0.0,0.0,0.0,0.0,0.0,0.0,0.0,0.0,0.0,0.0,0.0,0.0,0.0,0.0,0.0,0.0,0.0,0.0,0.0,0.0,0.0,0.0,0.0,0.0,0.0,0.0,0.0,0.0,0.0,0.0,0.0,0.0,0.0,0.0,0.0,0.0,0.0,0.0,0.0,0.0,0.0,0.0,0.0,0.0,0.0,0.0,0.0,0.0,0.0,0.0,0.0,0.0,0.0,0.0,0.0,0.0,0.0,0.0,0.0,0.0,0.0,0.0,0.0,0.0,0.0,0.0,0.0,0.0,0.0,0.0,0.0,0.0,0.0,0.0,0.0,0.0,0.0,0.0,0.0,0.0,0.0,0.0,-0.6883,-0.734,-0.8046,-0.8329,0.0,0.0,-0.783,-0.6737,-0.7926,-0.8329,0.0,0.0,0.0,0.0,0.0,0.0,0.0,0.0,0.0,0.0,0.0,0.0,0.0,0.0,0.0,0.0,0.0,0.0,0.0,0.0,0.0,0.0,0.0,0.0,0.0,0.0,0.0,0.0,0.0,0.0,0.0,0.0,0.0,0.0,0.0,0.0,0.0,0.0,0.0,0.0,0.0,0.0,0.0,0.0,0.0,0.0,0.0,0.0,0.0,0.0,0.0,0.0,0.0,0.0,0.0,0.0,0.0,0.0,0.0,0.0,0.0,0.0,0.0,0.0,0.0,0.0,0.0,0.0,0.0,0.0,0.0,0.0,0.0,0.0,0.0,0.0,0.0,0.0,0.0,0.0,0.0,0.0,0.0,0.0,0.0,0.0,0.0,0.0,0.0,0.0,0.0,0.0,0.0,0.0,0.0,0.0,0.0,0.0,0.0,0.0,0.0,0.0,0.0,0.0,0.0,-0.7186,-0.809,-0.8109,-0.8387,0.0,-0.8644,-0.8256,-0.9025,-0.9835,-0.9673,-0.7617,0.0,0.0,0.0,0.0,0.0,0.0,0.0,0.0,0.0,0.0,0.0,0.0,0.0,0.0,0.0,0.0,0.0,0.0,0.0,0.0,0.0,0.0,0.0,0.0,0.0,0.0,0.0,0.0,0.0,0.0,0.0,0.0,0.0,0.0,0.0,0.0,0.0,0.0,0.0,0.0,0.0,0.0,0.0,0.0,0.0,0.0,0.0,0.0,0.0,0.0,0.0,0.0,0.0,0.0,0.0,0.0,0.0,0.0,0.0,0.0,0.0,0.0,0.0,0.0,0.0,0.0,0.0,0.0,0.0,0.0,0.0,0.0,0.0,0.0,0.0,0.0,0.0,0.0,0.0,0.0,0.0,0.0,0.0,0.0,0.0,0.0,0.0,0.0,0.0,0.0,0.0,0.0,0.0,0.0,0.0,0.0,0.0,0.0,0.0,0.0,0.0,0.0,0.0,0.0,-0.7955,-0.8237,-0.8835,0.0,0.0,-0.9518,-0.9331,-0.9606,-0.9741,-0.932,-0.7875,-0.7339,0.0,0.0,0.0,0.0,0.0,0.0,0.0,0.0,0.0,0.0,0.0,0.0,0.0,0.0,0.0,0.0,0.0,0.0,0.0,0.0,0.0,0.0,0.0,0.0,0.0,0.0,0.0,0.0,0.0,0.0,0.0,0.0,0.0,0.0,0.0,0.0,0.0,0.0,0.0,0.0,0.0,0.0,0.0,0.0,0.0,0.0,0.0,0.0,0.0,0.0,0.0,0.0,0.0,0.0,0.0,0.0,0.0,0.0,0.0,0.0,0.0,0.0,0.0,0.0,0.0,0.0,0.0,0.0,0.0,0.0,0.0,0.0,0.0,0.0,0.0,0.0,0.0,0.0,0.0,0.0,0.0,0.0,0.0,0.0,0.0,0.0,0.0,0.0,0.0,0.0,0.0,0.0,0.0,0.0,0.0,0.0,0.0,0.0,0.0,0.0,0.0,0.0,0.0,-0.8436,-0.863,-0.9394,-0.9916,-0.9978,-0.9869,-0.9761,-0.97,-0.9517,-0.9055,-0.8106,0.0,0.0,0.0,0.0,0.0,0.0,0.0,0.0,0.0,0.0,0.0,0.0,0.0,0.0,0.0,0.0,0.0,0.0,0.0,0.0,0.0,0.0,0.0,0.0,0.0,0.0,0.0,0.0197,0.0,0.0,0.0028,0.0,0.0,0.0,0.0,0.0,0.0,0.0,0.0,0.0,0.0,0.0,0.0,0.0,0.0,0.0,0.0,0.0,0.0,0.0,0.0,0.0,0.0,0.0,0.0,0.0,0.0,0.0,0.0,0.0,0.0,0.0,0.0,0.0,0.0,0.0,0.0,0.0,0.0,0.0,0.0,0.0,0.0,0.0,0.0,0.0,0.0,0.0,0.0,0.0,0.0,0.0,0.0,0.0,0.0,0.0,0.0,0.0,0.0,0.0,0.0,0.0,0.0,0.0,0.0,0.0,0.0,0.0,0.0,0.0,0.0,0.0,0.0,-0.7849,-0.8444,-0.94,-0.968,-0.9842,-0.9781,-0.9476,-0.9296,-0.9388,-0.9388,-0.913,0.0,0.0,0.0,0.0,0.0,0.0,0.0,0.0,0.0,0.0,0.0,0.0,0.0,0.0,0.0,0.0,0.0,0.0,0.0,0.0,0.0,0.0,0.0,0.0,0.0,0.0,0.0,0.0338,0.0319,0.0,0.0,0.0,0.0,0.0,0.0,0.0,0.0,0.0,0.0,0.0,0.0,0.0,0.0,0.0,0.0,0.0,0.0,0.0,0.0,0.0,0.0,0.0,0.0,0.0,0.0,0.0,0.0,0.0,0.0,0.0,0.0,0.0,0.0,0.0,0.0,0.0,0.0,0.0,0.0,0.0,0.0,0.0,0.0,0.0,0.0,0.0,0.0,0.0,0.0,0.0,0.0,0.0,0.0,0.0,0.0,0.0,0.0,0.0,0.0,0.0,0.0,0.0,0.0,0.0,0.0,0.0,0.0,0.0,0.0,0.0,0.0,0.0,-0.5997,-0.7439,-0.8183,-0.894,-0.9754,-0.9883,-0.9977,0.0,0.0,0.0,0.0,0.0,0.0,0.0,0.0,0.0,0.0,0.0,0.0,0.0,0.0,-0.8303,-0.6824,-0.6464,-0.6464,-0.6668,0.0,0.0,0.0,0.0,0.0,0.0,0.0,0.0,0.0,0.0,0.0,0.0,0.0,0.0,0.0237,0.0,0.0257,0.0,0.0,0.0,0.0,0.0,0.0,0.0,0.0,0.0,0.0,0.0,0.0,0.0,0.0,0.0,0.0,0.0,0.0,0.0,0.0,0.0,0.0,0.0,0.0,0.0,0.0,0.0,0.0,0.0,0.0,0.0,0.0,0.0,0.0,0.0,0.0,0.0,0.0,0.0,0.0,0.0,0.0,0.0,0.0,0.0,0.0,0.0,0.0,0.0,0.0,0.0,0.0,0.0,0.0,0.0,0.0,0.0,0.0,0.0,0.0,-0.049,0.0,0.0,0.0,0.0,0.0,0.0,0.0,0.0,0.0,-0.4042,-0.5554,-0.7063,-0.8177,-0.885,-0.9424,-0.9849,0.0,0.0,0.0,0.0,0.0,0.0,0.0,-0.8927,-0.8879,-0.8764,-0.8648,-0.8541,-0.9042,-0.932,-0.9062,0.0,0.0,-0.7923,-0.755,-0.7543,-0.7746,-0.8011,-0.8208,-0.8214,-0.8601,-0.8893,0.0,0.0,0.0,0.0,0.0,0.0,0.0,0.0,0.0,0.0,0.0,0.0,0.0,0.0,0.0,0.0,0.0,0.0,0.0,0.0,0.0,0.0,0.0,0.0,0.0,0.0,0.0,0.0,0.0,0.0,0.0,0.0,0.0,0.0,0.0,0.0,0.0,0.0,0.0,0.0,0.0,0.0,0.0,0.0,0.0,0.0,0.0,0.0,0.0,0.0,0.0,0.0,0.0,0.0,0.0,0.0,0.0,0.0,0.0,0.0,0.0,0.0,0.0,0.0,0.0,0.0,0.0,0.0,0.0,0.0,0.0,-0.138,0.0,0.0,0.0,0.0,0.0,0.0,0.0,0.0,0.0,0.0,-0.4975,-0.6361,-0.7998,-0.9372,0.0,0.0,0.0,0.0,-0.9965,-0.9503,-0.9357,-0.9275,-0.9282,-0.9384,-0.9449,-0.9605,0.0,0.0,-0.972,-1.0012,-1.0073,-0.9425,-0.991,-1.0215,-0.989,-0.9262,-0.9055,-0.9306,-0.9171,-0.9053,-0.9367,-0.9652,-0.9856,-0.2776,0.0,0.0,0.0,0.0,0.0052,0.0,0.0,0.0,0.0,0.0,0.0,0.0,0.0,0.0,0.0,0.0,0.0,0.0,0.0,0.0,0.0,0.0,0.0,0.0,0.0,0.0,0.0,0.0,0.0,0.0,0.0,0.0,0.0,0.0,0.0,0.0,0.0,0.0,0.0,0.0,0.0,0.0,0.0,0.0,0.0,0.0,0.0,0.0,0.0,0.0,0.0,0.0,0.0,0.0,0.0,0.0,0.0,0.0,0.0,0.0,0.0,0.0,0.0,0.0,0.0,0.0,0.0,0.0,0.0,-0.0422,-0.0965,-0.1469,0.0,0.0,0.0,0.0,0.0,0.0,0.0,0.0,0.0,-0.6764,-0.778,-0.8683,0.0,0.0,-0.9557,-0.951,-0.9815,-1.008,-1.0161,-1.0134,0.0,-1.0256,-1.0039,-0.9944,-1.0195,-1.0527,-1.0711,-1.0523,-1.0758,-1.0839,-1.0674,-1.0758,-1.0947,-1.0772,-1.0297,-0.9985,-1.0127,-1.0188,-1.027,-1.046,-1.0649,-1.0772,-0.2775,0.0,0.0,0.0057,0.0174,0.0059,0.0,0.0,0.0,0.0,0.0,0.0,0.0,0.0,0.0,0.0,0.0,0.0,0.0,0.0,0.0,0.0,0.0,0.0,0.0,0.0,0.0,0.0,0.0,0.0,0.0,0.0,0.0,0.0,0.0,0.0,0.0,0.0,0.0,0.0,0.0,0.0,0.0,0.0,0.0,0.0,0.0,0.0,0.0,0.0,0.0,0.0,0.0,0.0,0.0,0.0,0.0,0.0,0.0,0.0,0.0,0.0,0.0,-0.0159,-0.0541,0.0,0.0,0.0,-0.1714,-0.168,-0.1628,-0.2226,0.0,0.0,0.0,0.0,0.0,0.0,0.0,-0.5266,-0.6981,-0.8171,-0.8427,-0.9039,-0.9557,-0.9788,-0.9822,-0.9822,-0.9822,0.0,-1.0381,-1.0568,-1.0582,-1.0616,-1.0704,-1.0476,-1.0442,-1.0799,-1.105,-1.1206,-1.115,-1.1287,-1.1341,-1.1341,-1.1341,-1.1341,-1.1341,-1.1043,-1.0785,-1.0772,-1.088,-1.1016,-1.1111,-1.124,-1.1341,-0.3028,0.0,0.0,0.0128,0.032,0.013,0.0,0.0,0.0,0.0,0.0,0.0,0.0,0.0,0.0,0.0,0.0,0.0,0.0,0.0,0.0,0.0,0.0,0.0,0.0,0.0,0.0,0.0,0.0,0.0,0.0,0.0,0.0,0.0,0.0,0.0,0.0,0.0,0.0,0.0,0.0,0.0,0.0,0.0,0.0,0.0,0.0,0.0,0.0,0.0,0.0,0.0,0.0,0.0,0.0,0.0,0.0,0.0,0.0,0.0,0.0,0.0,0.0,0.0,0.0,0.0,0.0,0.0,-0.3751,0.0,-0.4136,-0.4511,0.0,0.0,0.0,-0.4193,-0.498,-0.6171,-0.7043,-0.7252,0.0,0.0,-0.9856,-1.0134,-1.0371,-1.0521,-1.0521,-1.0507,-1.0493,-1.0738,-1.0914,-1.0785,-1.0785,-1.0799,-1.0853,-1.0921,-1.1002,-1.1321,-1.1525,-1.1586,-1.1592,-1.1599,-1.1613,-1.1599,-1.1613,-1.1606,-1.1613,-1.1572,-1.1531,-1.124,-1.1301,-1.1402,-1.1402,-1.1504,-1.1586,-0.3788,-0.1797,-0.0513,0.0,0.0071,0.0,0.0,0.0,0.0,0.0,0.0,0.0,0.0,0.0,0.0,0.0,0.0,0.0,0.0,0.0,0.0,0.0,0.0,0.0,0.0,0.0,0.0,0.0,0.0,0.0,0.0,0.0,0.0,0.0,0.0,0.0,0.0,0.0,0.0,0.0,0.0,0.0,0.0,0.0,0.0,0.0,0.0,0.0,0.0,0.0,0.0,0.0,0.0,0.0,0.0,0.0,0.0,0.0,0.0,0.0,0.0,0.0,0.0,-0.0321,-0.1119,0.0,-0.0975,0.0,-0.4639,-0.4976,-0.4113,-0.4808,0.0,0.0,-0.5422,-0.5659,-0.7883,-0.772,-0.7822,-0.8884,-0.9573,-0.9984,-1.0304,-1.0493,-1.0711,-1.0962,-1.0806,-1.0622,-1.0527,-1.0846,-1.1104,-1.1084,-1.1246,-1.1402,-1.1382,-1.1436,-1.147,-1.1552,-1.1599,-1.1619,-1.1619,-1.1619,-1.1619,-1.1619,-1.1619,-1.1619,-1.1619,-1.1619,-1.1599,-1.1531,-1.1545,-1.1565,-1.1565,-1.1592,-1.1619,-0.2938,-0.1307,-0.0385,0.0,0.0,0.0,0.0,0.0,0.0,0.0,0.0,0.0,0.0,0.0,0.0,0.0,0.0,0.0,0.0,0.0,0.0,0.0,0.0,0.0,0.0,0.0,0.0,0.0,0.0,0.0,0.0,0.0,0.0,0.0,0.0,0.0,0.0,0.0,0.0,0.0,0.0,0.0,0.0,0.0,0.0,0.0,0.0,0.0,0.0,0.0,0.0,0.0,0.0,0.0,0.0,0.0,0.0,0.0,0.0,0.0,0.0,0.0,0.0,0.0,0.0,0.0,-0.163,-0.3627,-0.5176,-0.5767,-0.4949,-0.5912,-0.6865,-0.7642,-0.6685,-0.6704,-0.8478,-0.8166,-0.8145,-0.8971,-0.9818,-1.0442,-1.0677,-1.088,-1.1077,-1.1246,-1.1179,-1.1063,-1.0955,-1.1172,-1.1362,-1.1375,-1.1511,-1.1619,-1.1619,-1.1619,-1.1619,-1.1619,-1.1619,-1.1619,-1.1619,-1.1619,-1.1619,-1.1619,-1.1619,-1.1619,-1.1619,-1.1619,-1.1619,-1.1619,-1.1619,-1.1619,-1.1619,-1.1619,-1.1619,-0.1646,-0.0314,-0.0079,0.0,0.0,0.0,0.0,0.0,0.0,0.0,0.0,0.0,0.0,0.0,0.0,0.0,0.0,0.0,0.0,0.0,0.0,0.0,0.0,0.0,0.0,0.0,0.0,0.0,0.0,0.0,0.0,0.0,0.0,0.0,0.0,0.0,0.0,0.0,0.0,0.0,0.0,0.0,0.0,0.0,0.0,0.0,0.0,0.0,0.0,0.0,0.0,0.0,0.0,0.0,0.0,0.0,0.0,0.0,0.0,0.0,0.0,0.0,0.0,0.0,0.0,-0.2701,-0.2861,-0.3987,-0.5549,-0.6375,-0.6132,-0.6998,-0.7812,-0.846,-0.7644,-0.7189,-0.7619,-0.7933,-0.8248,-0.8437,-0.991,-1.0887,-1.0941,-1.124,-1.1389,-1.1423,-1.1504,-1.1511,-1.145,-1.1511,-1.1592,-1.1619,-1.1619,-1.1619,-1.1619,-1.1619,-1.1619,-1.1619,-1.1619,-1.1619,-1.1619,-1.1619,-1.1619,-1.1619,-1.1619,-1.1619,-1.1619,-1.1619,-1.1619,-1.1619,-1.1619,-1.1619,-1.1619,-1.1619,-1.1619,-0.2272,-0.1881,-0.0549,0.0,0.0,0.0,0.0,0.0,0.0,0.0,0.0,0.0,0.0,0.0,0.0,0.0,0.0,0.0,0.0,0.0,0.0,0.0,0.0,0.0,0.0,0.0,0.0,0.0,0.0,0.0,0.0,0.0,0.0,0.0,0.0,0.0,0.0,0.0,0.0,0.0,0.0,0.0,0.0,0.0,0.0,0.0,0.0,0.0,0.0,0.0,0.0,0.0,0.0,0.0,0.0,0.0,0.0,0.0,0.0,0.0,0.0,0.0,0.0,-0.0867,-0.2886,-0.4668,-0.567,-0.5513,-0.583,-0.6147,-0.6542,-0.6094,-0.5941,-0.6332,-0.6358,-0.6412,-0.658,-0.7646,-0.8552,-0.8744,-0.9961,-1.1043,-1.126,-1.1362,-1.1436,-1.1545,-1.1599,-1.1606,-1.1579,-1.1599,-1.1619,-1.1619,-1.1619,-1.1619,-1.1619,-1.1619,-1.1619,-1.1619,-1.1619,-1.1619,-1.1619,-1.1619,-1.1619,-1.1619,-1.1619,-1.1619,-1.1619,-1.1619,-1.1619,-1.1619,-1.1619,-1.1619,-1.1619,-1.1619,-1.1619,-0.2038,0.0,-0.0314,0.0,0.0,0.0,0.0,0.0,0.0,0.0,0.0,0.0,0.0,0.0,0.0,0.0,0.0,0.0,0.0,0.0,0.0,0.0,0.0,0.0,0.0,0.0,0.0,0.0,0.0,0.0,0.0,0.0,0.0,0.0,0.0,0.0,0.0,0.0,0.0,0.0,0.0,0.0,0.0,0.0,0.0,0.0,0.0,0.0,0.0,0.0,0.0,0.0,0.0,0.0,0.0,0.0,0.0,0.0,0.0,0.0,0.0,0.0,-0.0597,-0.14,-0.2324,-0.4082,-0.504,-0.4911,-0.504,-0.5338,-0.5769,-0.5608,-0.5657,-0.5917,-0.557,-0.5248,-0.5388,-0.6648,-0.767,-0.8005,-0.9761,-1.1233,-1.1369,-1.1463,-1.1531,-1.1606,-1.1619,-1.1619,-1.1619,-1.1619,-1.1619,-1.1619,-1.1619,-1.1619,-1.1619,-1.1619,-1.1619,-1.1619,-1.1619,-1.1619,-1.1619,-1.1619,-1.1619,-1.1619,-1.1619,-1.1619,-1.1619,-1.1619,-1.1619,-1.1619,-1.1619,-1.1619,-1.1619,-1.1619,-1.1619,-0.1255,0.0,0.0,0.0,0.0,0.0,0.0,0.0,0.0,0.0,0.0,0.0,0.0,0.0,0.0,0.0,0.0,0.0,0.0,0.0,0.0,0.0,0.0,0.0,0.0,0.0,0.0,0.0,0.0,0.0,0.0,0.0,0.0,0.0,0.0,0.0,0.0,0.0,0.0,0.0,0.0,0.0,0.0,0.0,0.0,0.0,0.0,0.0,0.0,0.0,0.0,0.0,0.0,0.0,0.0,0.0,0.0,0.0,0.0,0.0,0.0,0.0,-0.1034,-0.1701,-0.1838,-0.2975,-0.3758,-0.3925,-0.406,-0.4276,-0.4726,-0.4916,-0.5287,-0.5826,-0.4754,-0.4117,-0.4738,-0.5869,-0.6876,-0.7319,-0.9689,-1.1402,-1.1436,-1.1538,-1.1619,-1.1619,-1.1619,-1.1619,-1.1619,-1.1619,-1.1619,-1.1619,-1.1619,-1.1619,-1.1619,-1.1619,-1.1619,-1.1619,-1.1619,-1.1619,-1.1619,-1.1619,-1.1619,-1.1619,-1.1619,-1.1619,-1.1619,-1.1619,-1.1619,-1.1619,-1.1619,-1.1619,-1.1619,-1.1619,-1.1619,-0.0236,0.0,0.0,0.0,0.0,0.0,0.0,0.0,0.0,0.0,0.0,0.0,0.0,0.0,0.0,0.0,0.0,0.0,0.0,0.0,0.0,0.0,0.0,0.0,0.0,0.0,0.0,0.0,0.0,0.0,0.0,0.0,0.0,0.0,0.0,0.0,0.0,0.0,0.0,0.0,0.0,0.0,0.0,0.0,0.0,0.0,0.0,0.0,0.0,0.0,0.0,0.0,0.0,0.0,0.0,0.0,0.0,0.0,0.0,0.0,0.0,0.0,-0.0192,-0.0762,-0.1928,-0.3154,-0.4045,-0.4438,-0.3661,-0.3424,-0.387,-0.3283,-0.3369,-0.4419,-0.3416,-0.3506,-0.603,-0.6676,-0.7339,-0.8609,-1.0294,-1.145,-1.1552,-1.1599,-1.1619,-1.1619,-1.1619,-1.1619,-1.1619,-1.1619,-1.1619,-1.1619,-1.1619,-1.1619,-1.1619,-1.1619,-1.1619,-1.1619,-1.1619,-1.1619,-1.1619,-1.1619,-1.1619,-1.1619,-1.1619,-1.1619,-1.1619,-1.1619,-1.1619,-1.1619,-1.1619,-1.1619,-1.1619,-1.1619,-1.1619,-0.0785,0.0,0.0,0.0,0.0,0.0,0.0,0.0,0.0,0.0,0.0,0.0,0.0,0.0,0.0,0.0,0.0,0.0,0.0,0.0,0.0,0.0,0.0,0.0,0.0,0.0,0.0,0.0,0.0,0.0,0.0,0.0,0.0,0.0,0.0,0.0,0.0,0.0,0.0,0.0,0.0,0.0,0.0,0.0,0.0,0.0,0.0,0.0,0.0,0.0,0.0,0.0,0.0,0.0,0.0,0.0,0.0,0.0,0.0,0.0,0.0,0.0,0.0,-0.0261,-0.0849,-0.1435,-0.1967,-0.2392,-0.2132,-0.2144,-0.2582,-0.2383,-0.2464,-0.3188,-0.333,-0.4103,-0.5521,-0.7244,-0.8344,-0.9177,-1.0534,-1.1545,-1.1613,-1.1619,-1.1619,-1.1619,-1.1619,-1.1619,-1.1619,-1.1619,-1.1619,-1.1619,-1.1619,-1.1619,-1.1619,-1.1619,-1.1619,-1.1619,-1.1619,-1.1619,-1.1619,-1.1619,-1.1619,-1.1619,-1.1619,-1.1619,-1.1619,-1.1619,-1.1619,-1.1619,-1.1619,-1.1619,-1.1619,-1.1619,-1.1619,-0.1177,0.0,0.0,0.0,0.0,0.0,0.0,0.0,0.0,0.0,0.0,0.0,0.0,0.0,0.0,0.0,0.0,0.0,0.0,0.0,0.0,0.0,0.0,0.0,0.0,0.0,0.0,0.0,0.0,0.0,0.0,0.0,0.0,0.0,0.0,0.0,0.0,0.0,0.0,0.0,0.0,0.0,0.0,0.0,0.0,0.0,0.0,0.0,0.0,0.0,0.0,0.0,0.0,0.0,0.0,0.0,0.0,0.0,0.0,0.0,0.0,0.0,0.0,0.0,0.0,0.0,-0.0201,-0.0608,-0.1082,-0.1429,-0.1859,-0.2072,-0.2361,-0.2741,-0.3448,-0.4507,-0.5715,-0.7535,-0.9079,-0.9664,-1.0824,-1.1613,-1.1619,-1.1619,-1.1619,-1.1619,-1.1619,-1.1619,-1.1619,-1.1619,-1.1619,-1.1619,-1.1619,-1.1619,-1.1619,-1.1619,-1.1619,-1.1619,-1.1619,-1.1619,-1.1619,-1.1619,-1.1619,-1.1619,-1.1619,-1.1619,-1.1619,-1.1619,-1.1619,-1.1619,-1.1619,-1.1619,-1.1619,-1.1619,-1.1619,0.0,0.0,0.0,0.0,0.0,0.0,0.0,0.0,0.0,0.0,0.0,0.0,0.0,0.0,0.0,0.0,0.0,0.0,0.0,0.0,0.0,0.0,0.0,0.0,0.0,0.0,0.0,0.0,0.0,0.0,0.0,0.0,0.0,0.0,0.0,0.0,0.0,0.0,0.0,0.0,0.0,0.0,0.0,0.0,0.0,0.0,0.0,0.0,0.0,0.0,0.0,0.0,0.0,0.0,0.0,0.0,0.0,0.0,0.0,0.0,0.0,0.0,0.0,0.0,0.0,0.0,-0.0277,-0.0895,-0.1373,-0.1726,-0.2097,-0.2171,-0.2744,-0.3982,-0.3496,-0.4154,-0.7639,-0.7819,-0.8256,-1.1162,-1.1384,-1.1619,-1.1619,-1.1619,-1.1619,-1.1619,-1.1619,-1.1619,-1.1619,-1.1619,-1.1619,-1.1619,-1.1619,-1.1619,-1.1619,-1.1619,-1.1619,-1.1619,-1.1619,-1.1619,-1.1619,-1.1619,-1.1619,-1.1619,-1.1619,-1.1619,-1.1619,-1.1619,-1.1619,-1.1619,-1.1619,-1.1619,-1.1619,-1.1619,-1.1619,0.0,0.0,0.0,0.0,0.0,0.0,0.0,0.0,0.0,0.0,0.0,0.0,0.0,0.0,0.0,0.0,0.0,0.0,0.0,0.0,0.0,0.0,0.0,0.0,0.0,0.0,0.0,0.0,0.0,0.0,0.0,0.0,0.0,0.0,0.0,0.0,0.0,0.0,0.0,0.0,0.0,0.0,0.0,0.0,0.0,0.0,0.0,0.0,0.0,0.0,0.0,0.0,0.0,0.0,0.0,0.0,0.0,0.0,0.0,0.0,0.0,0.0,0.0,0.0,0.0,-0.042,-0.0771,-0.1126,-0.1259,-0.1609,-0.2125,-0.2273,-0.2924,-0.432,-0.4835,-0.5853,-0.7539,-0.8997,-1.0017,-1.0377,-1.1038,-1.1619,-1.1619,-1.1619,-1.1619,-1.1619,-1.1619,-1.1619,-1.1619,-1.1619,-1.1619,-1.1619,-1.1619,-1.1619,-1.1619,-1.1619,-1.1619,-1.1619,-1.1619,-1.1619,-1.1619,-1.1619,-1.1619,-1.1619,-1.1619,-1.1619,-1.1619,-1.1619,-1.1619,-1.1619,-1.1619,-1.1619,-1.1619,-1.1619,-1.1619,0.0,0.0,0.0,0.0,0.0,0.0,0.0,0.0,0.0,0.0,0.0,0.0,0.0,0.0,0.0,0.0,0.0,0.0,0.0,0.0,0.0,0.0,0.0,0.0,0.0,0.0,0.0,0.0,0.0,0.0,0.0,0.0,0.0,0.0,0.0,0.0,0.0,0.0,0.0,0.0,0.0,0.0,0.0,0.0,0.0,0.0,0.0,0.0,0.0,0.0,0.0,0.0,0.0,0.0,0.0,0.0,0.0,0.0,0.0,0.0,0.0,0.0,0.0,0.0,0.0,-0.0495,-0.0854,-0.1005,-0.0999,-0.1283,-0.2154,-0.2661,-0.3465,-0.4651,-0.6101,-0.7115,-0.777,-0.9801,-1.0599,-1.0161,-1.1038,-1.1619,-1.1619,-1.1619,-1.1619,-1.1619,-1.1619,-1.1619,-1.1619,-1.1619,-1.1619,-1.1619,-1.1619,-1.1619,-1.1619,-1.1619,-1.1619,-1.1619,-1.1619,-1.1619,-1.1619,-1.1619,-1.1619,-1.1619,-1.1619,-1.1619,-1.1619,-1.1619,-1.1619,-1.1619,-1.1619,-1.1619,-1.1619,-1.1619,-1.1619,0.0,0.0,0.0,0.0,0.0,0.0,0.0,0.0,0.0,0.0,0.0,0.0,0.0,0.0,0.0,0.0,0.0,0.0,0.0,0.0,0.0,0.0,0.0,0.0,0.0,0.0,0.0,0.0,0.0,0.0,0.0,0.0,0.0,0.0,0.0,0.0,0.0,0.0,0.0,0.0,0.0,0.0,0.0,0.0,0.0,0.0,0.0,0.0,0.0,0.0,0.0,0.0,0.0,0.0,0.0,0.0,0.0,0.0,0.0,0.0,0.0,0.0,0.0,0.0,0.0,-0.0144,-0.0363,-0.0656,-0.0727,-0.1163,-0.218,-0.3268,-0.4213,-0.4727,-0.6101,-0.7476,-0.8853,-0.9363,-1.0089,-1.0966,-1.1404,-1.1619,-1.1619,-1.1619,-1.1619,-1.1619,-1.1619,-1.1619,-1.1619,-1.1619,-1.1619,-1.1619,-1.1619,-1.1619,-1.1619,-1.1619,-1.1619,-1.1619,-1.1619,-1.1619,-1.1619,-1.1619,-1.1619,-1.1619,-1.1619,-1.1619,-1.1619,-1.1619,-1.1619,-1.1619,-1.1619,-1.1619,-1.1619,-1.1619,-1.1619,0.0,0.0,0.0,0.0,0.0,0.0,0.0,0.0,0.0,0.0,0.0,0.0,0.0,0.0,0.0,0.0,0.0,0.0,0.0,0.0,0.0,0.0,0.0,0.0,0.0,0.0,0.0,0.0,0.0,0.0,0.0,0.0,0.0,0.0,0.0,0.0,0.0,0.0,0.0,0.0,0.0,0.0,0.0,0.0,0.0,0.0,0.0,0.0,0.0,0.0,0.0,0.0,0.0,0.0,0.0,0.0,0.0,0.0,0.0,0.0,0.0,0.0,0.0,0.0,0.0,-0.0218,-0.0438,-0.0657,-0.1094,-0.1604,-0.1895,-0.255,-0.3348,-0.4657,-0.6101,-0.7259,-0.8054,-0.9435,-1.0671,-1.0449,-1.0887,-1.1619,-1.1619,-1.1619,-1.1619,-1.1619,-1.1619,-1.1619,-1.1619,-1.1619,-1.1619,-1.1619,-1.1619,-1.1619,-1.1619,-1.1619,-1.1619,-1.1619,-1.1619,-1.1619,-1.1619,-1.1619,-1.1619,-1.1619,-1.1619,-1.1619,-1.1619,-1.1619,-1.1619,-1.1619,-1.1619,-1.1619,-1.1619,-1.1619,-1.1619,0.0,0.0,0.0,0.0,0.0,0.0,0.0,0.0,0.0,0.0,0.0,0.0,0.0,0.0,0.0,0.0,0.0,0.0,0.0,0.0,0.0,0.0,0.0,0.0,0.0,0.0,0.0,0.0,0.0,0.0,0.0,0.0,0.0,0.0,0.0,0.0,0.0,0.0,0.0,0.0,0.0,0.0,0.0,0.0,0.0,0.0,0.0,0.0,0.0,0.0,0.0,0.0,0.0,0.0,0.0,0.0,0.0,0.0,0.0,0.0,0.0,0.0,0.0,0.0,0.0,-0.0219,-0.0365,-0.0584,-0.1021,-0.1458,-0.1604,-0.175,-0.2768,-0.5017,-0.6825,-0.7982,-0.8492,-1.0383,-1.0966,-1.0527,-1.1038,-1.1548,-1.1619,-1.1619,-1.1619,-1.1619,-1.1619,-1.1619,-1.1619,-1.1619,-1.1619,-1.1619,-1.1619,-1.1619,-1.1619,-1.1619,-1.1619,-1.1619,-1.1619,-1.1619,-1.1619,-1.1619,-1.1619,-1.1619,-1.1619,-1.1619,-1.1619,-1.1619,-1.1619,-1.1619,-1.1619,-1.1619,-1.1619,-1.1619,-1.1619,0.0,0.0,0.0,0.0,0.0,0.0,0.0,0.0,0.0,0.0,0.0,0.0,0.0,0.0,0.0,0.0,0.0,0.0,0.0,0.0,0.0,0.0,0.0,0.0,0.0,0.0,0.0,0.0,0.0,0.0,0.0,0.0,0.0,0.0,0.0,0.0,0.0,0.0,0.0,0.0,0.0,0.0,0.0,0.0,0.0,0.0,0.0,0.0,0.0,0.0,0.0,0.0,0.0,0.0,0.0,0.0,0.0,0.0,0.0,0.0,0.0,0.0,0.0,0.0,0.0,0.0,0.0,0.0,-0.0511,-0.0875,-0.124,-0.1605,-0.3057,-0.6319,-0.7837,-0.9219,-1.0671,-1.1469,-1.1548,-1.1469,-1.1548,-1.1619,-1.1619,-1.1619,-1.1619,-1.1619,-1.1619,-1.1619,-1.1619,-1.1619,-1.1619,-1.1619,-1.1619,-1.1619,-1.1619,-1.1619,-1.1619,-1.1619,-1.1619,-1.1619,-1.1619,-1.1619,-1.1619,-1.1619,-1.1619,-1.1619,-1.1619,-1.1619,-1.1619,-1.1619,-1.1619,-1.1619,-1.1619,-1.1619,-1.1619,0.0,0.0,0.0,0.0,0.0,0.0,0.0,0.0,0.0,0.0,0.0,0.0,0.0,0.0,0.0,0.0,0.0,0.0,0.0,0.0,0.0,0.0,0.0,0.0,0.0,0.0,0.0,0.0,0.0,0.0,0.0,0.0,0.0,0.0,0.0,0.0,0.0,0.0,0.0,0.0,0.0,0.0,0.0,0.0,0.0,0.0,0.0,0.0,0.0,0.0,0.0,0.0,0.0,0.0,0.0,0.0,0.0,0.0,0.0,0.0,0.0,0.0,0.0,0.0,0.0,0.0,0.0,0.0,-0.0584,-0.1095,-0.1241,-0.1824,-0.313,-0.5235,-0.6753,-0.842,-1.0089,-1.1038,-1.1548,-1.1619,-1.1619,-1.1619,-1.1619,-1.1619,-1.1619,-1.1619,-1.1619,-1.1619,-1.1626,-1.1633,-1.1619,-1.1619,-1.1619,-1.166,-1.1687,-1.1708,-1.1708,-1.1681,-1.166,-1.1619,-1.1619,-1.1619,-1.1619,-1.1619,-1.1619,-1.1619,-1.1619,-1.1619,-1.1619,-1.1619,-1.1619,-1.1619,-1.1619,-1.1619,-1.1619,0.0,0.0,0.0,0.0,0.0,0.0,0.0,0.0,0.0,0.0,0.0,0.0,0.0,0.0,0.0,0.0,0.0,0.0,0.0,0.0,0.0,0.0,0.0,0.0,0.0,0.0,0.0,0.0,0.0,0.0,0.0,0.0,0.0,0.0,0.0,0.0,0.0,0.0,0.0,0.0,0.0,0.0,0.0,0.0,0.0,0.0,0.0,0.0,0.0,0.0,0.0,0.0,0.0,0.0,0.0,0.0,0.0,0.0,0.0,0.0,0.0,0.0,0.0,0.0,0.0,0.0,0.0,-0.0292,-0.0803,-0.1241,-0.1459,-0.1968,-0.3205,-0.538,-0.6463,-0.791,-0.9723,-1.0966,-1.1548,-1.1619,-1.1619,-1.1619,-1.1619,-1.1619,-1.1619,-1.1619,-1.1619,-1.1653,-1.1674,-1.1701,-1.1708,-1.1742,-1.1816,-1.183,-1.1803,-1.1803,-1.1803,-1.1755,-1.1708,-1.1653,-1.1619,-1.1619,-1.1619,-1.1619,-1.1619,-1.1619,-1.1619,-1.1619,-1.1619,-1.1619,-1.1619,-1.1619,-1.1619,-1.1619,-1.1619,0.0,0.0,0.0,0.0,0.0,0.0,0.0,0.0,0.0,0.0,0.0,0.0,0.0,0.0,0.0,0.0,0.0,0.0,0.0,0.0,0.0,0.0,0.0,0.0,0.0,0.0,0.0,0.0,0.0,0.0,0.0,0.0,0.0,0.0,0.0,0.0,0.0,0.0,0.0,0.0,0.0,0.0,0.0,0.0,0.0,0.0,0.0,0.0,0.0,0.0,0.0,0.0,0.0,0.0,0.0,0.0,0.0,0.0,0.0,0.0,0.0,0.0,0.0,0.0,0.0,0.0,-0.0146,-0.0511,-0.0949,-0.1313,-0.175,-0.2114,-0.3712,-0.6319,-0.7476,-0.8925,-1.1038,-1.1548,-1.1619,-1.1619,-1.1619,-1.1619,-1.1619,-1.1619,-1.1541,-1.1325,-1.1397,-1.1595,-1.1358,-1.1391,-1.1797,-1.1891,-1.1864,-1.1837,-1.1762,-1.1762,-1.1755,-1.1728,-1.1714,-1.1708,-1.1694,-1.1708,-1.1721,-1.1708,-1.1633,-1.1633,-1.1633,-1.1647,-1.1633,-1.1619,-1.1619,-1.1619,-1.1619,-1.1619,-1.1619,0.0,0.0,0.0,0.0,0.0,0.0,0.0,0.0,0.0,0.0,0.0,0.0,0.0,0.0,0.0,0.0,0.0,0.0,0.0,0.0,0.0,0.0,0.0,0.0,0.0,0.0,0.0,0.0,0.0,0.0,0.0,0.0,0.0,0.0,0.0,0.0,0.0,0.0,0.0,0.0,0.0,0.0,0.0,0.0,0.0,0.0,0.0,0.0,0.0,0.0,0.0,0.0,0.0,0.0,0.0,0.0,0.0,0.0,0.0,0.0,0.0,0.0,0.0,0.0,0.0,0.0,0.0,-0.0584,-0.0949,-0.1386,-0.175,-0.2187,-0.3857,-0.6608,-0.8781,-1.0455,-1.1325,-1.1619,-1.1619,-1.1619,-1.1619,-1.1619,-1.1619,-1.1397,-1.1181,-1.0527,-1.075,-1.128,-1.0976,-1.1286,-1.1789,-1.1728,-1.1701,-1.1708,-1.1708,-1.1708,-1.1694,-1.1674,-1.1701,-1.1769,-1.1823,-1.1904,-1.1938,-1.1959,-1.1748,-1.1687,-1.1694,-1.1708,-1.1674,-1.1619,-1.1619,-1.1619,-1.1619,-1.1619,-1.1619,0.0,0.0,0.0,0.0,0.0,0.0,0.0,0.0,0.0,0.0,0.0,0.0,0.0,0.0,0.0,0.0,0.0,0.0,0.0,0.0,0.0,0.0,0.0,0.0,0.0,0.0,0.0,0.0,0.0,0.0,0.0,0.0,0.0,0.0,0.0,0.0,0.0,0.0,0.0,0.0,0.0,0.0,0.0,0.0,0.0,0.0,0.0,0.0,0.0,0.0,0.0,0.0,0.0,0.0,0.0,0.0,0.0,0.0,0.0,0.0,0.0,0.0,0.0,0.0,0.0,0.0,-0.0146,-0.0803,-0.1095,-0.1459,-0.2187,-0.3276,-0.5014,-0.697,-0.9723,-1.1548,-1.1619,-1.1619,-1.1619,-1.1619,-1.1619,-1.1619,-1.1548,-1.1109,-1.0671,-1.0383,-1.0383,-1.0637,-1.068,-1.126,-1.1708,-1.1708,-1.1735,-1.1796,-1.1816,-1.1816,-1.1789,-1.1748,-1.1728,-1.1803,-1.1823,-1.1932,-1.1918,-1.1884,-1.1796,-1.1742,-1.1728,-1.1708,-1.1653,-1.1619,-1.1619,-1.1619,-1.1619,-1.1619,-1.1619,0.0,0.0,0.0,0.0,0.0,0.0,0.0,0.0,0.0,0.0,0.0,0.0,0.0,0.0,0.0,0.0,0.0,0.0,0.0,0.0,0.0,0.0,0.0,0.0,0.0,0.0,0.0,0.0,0.0,0.0,0.0,0.0,0.0,0.0,0.0,0.0,0.0,0.0,0.0,0.0,0.0,0.0,0.0,0.0,0.0,0.0,0.0,0.0,0.0,0.0,0.0,0.0,0.0,0.0,0.0,0.0,0.0,0.0,0.0,0.0,0.0,0.0,0.0,0.0,0.0,0.0,-0.0292,-0.0949,-0.1169,-0.1539,-0.2424,-0.4827,-0.6071,-0.6954,-0.9345,-1.1063,-1.1424,-1.1482,-1.1619,-1.1619,-1.1619,-1.1619,-1.1038,-1.0377,-0.9579,-0.8569,-0.9074,-0.9752,-1.0221,-1.0891,-1.1464,-1.1837,-1.1884,-1.1945,-1.1952,-1.1952,-1.1918,-1.187,-1.1823,-1.1816,-1.1721,-1.1762,-1.1742,-1.1721,-1.1789,-1.1775,-1.1714,-1.1681,-1.1633,-1.1619,-1.1619,-1.1619,-1.1619,-1.1619,-1.1619,0.0,0.0,0.0,0.0,0.0,0.0,0.0,0.0,0.0,0.0,0.0,0.0,0.0,0.0,0.0,0.0,0.0,0.0,0.0,0.0,0.0,0.0,0.0,0.0,0.0,0.0,0.0,0.0,0.0,0.0,0.0,0.0,0.0,0.0,0.0,0.0,0.0,0.0,0.0,0.0,0.0,0.0,0.0,0.0,0.0,0.0,0.0,0.0,0.0,0.0,0.0,0.0,0.0,0.0,0.0,0.0,0.0,0.0,0.0,0.0,0.0,0.0,0.0,0.0,0.0,0.0,0.0,-0.0658,-0.103,-0.156,-0.2393,-0.4047,-0.5158,-0.5965,-0.7929,-0.9877,-1.0006,-1.0885,-1.1404,-1.1476,-1.1476,-1.1109,-1.0017,-0.9579,-0.8564,-0.7191,-0.7557,-0.8579,-0.9613,-1.0583,-1.122,-1.1809,-1.1803,-1.1823,-1.1823,-1.183,-1.183,-1.1823,-1.1809,-1.1796,-1.1701,-1.1714,-1.1742,-1.1796,-1.1864,-1.1809,-1.1701,-1.166,-1.1619,-1.1619,-1.1619,-1.1619,-1.1619,-1.1619,-1.1647,0.0,0.0,0.0,0.0,0.0,0.0,0.0,0.0,0.0,0.0,0.0,0.0,0.0,0.0,0.0,0.0,0.0,0.0,0.0,0.0,0.0,0.0,0.0,0.0,0.0,0.0,0.0,0.0,0.0,0.0,0.0,0.0,0.0,0.0,0.0,0.0,0.0,0.0,0.0,0.0,0.0,0.0,0.0,0.0,0.0,0.0,0.0,0.0,0.0,0.0,0.0,0.0,0.0,0.0,0.0,0.0,0.0,0.0,0.0,0.0,0.0,0.0,0.0,0.0,0.0,0.0,0.0,-0.0744,-0.112,-0.1504,-0.2346,-0.3782,-0.4537,-0.5133,-0.6829,-0.8439,-0.9303,-1.0134,-1.0527,-1.0527,-1.0377,-0.9579,-0.8853,-0.8319,-0.7933,-0.6708,-0.6906,-0.7996,-0.9518,-1.0408,-1.1201,-1.1674,-1.1653,-1.1647,-1.1647,-1.166,-1.1674,-1.1681,-1.1687,-1.1687,-1.1647,-1.1714,-1.1803,-1.1809,-1.1789,-1.1755,-1.166,-1.1633,-1.1619,-1.1619,-1.1619,-1.1619,-1.1626,-1.164,-1.1687,0.0,0.0,0.0,0.0,0.0,0.0,0.0,0.0,0.0,0.0,0.0,0.0,0.0,0.0,0.0,0.0,0.0,0.0,0.0,0.0,0.0,0.0,0.0,0.0,0.0,0.0,0.0,0.0,0.0,0.0,0.0,0.0,0.0,0.0,0.0,0.0,0.0,0.0,0.0,0.0,0.0,0.0,0.0,0.0,0.0,0.0,0.0,0.0,0.0,0.0,0.0,0.0,0.0,0.0,0.0,0.0,0.0,0.0,0.0,0.0,0.0,0.0,0.0,0.0,0.0,0.0,0.0,-0.0839,-0.1299,-0.1688,-0.2451,-0.3377,-0.4137,-0.4581,-0.578,-0.7339,-0.844,-0.874,-0.8659,-0.9451,-0.915,-0.8298,-0.7387,-0.6658,-0.6547,-0.6513,-0.6788,-0.7425,-0.8879,-1.0389,-1.1194,-1.1619,-1.1619,-1.1619,-1.1619,-1.1633,-1.1633,-1.1647,-1.164,-1.164,-1.1633,-1.1667,-1.1721,-1.1681,-1.1653,-1.164,-1.164,-1.1626,-1.1619,-1.1619,-1.166,-1.1694,-1.1694,-1.1674,-1.1755,0.0,0.0,0.0,0.0,0.0,0.0,0.0,0.0,0.0,0.0,0.0,0.0,0.0,0.0,0.0,0.0,0.0,0.0,0.0,0.0,0.0,0.0,0.0,0.0,0.0,0.0,0.0,0.0,0.0,0.0,0.0,0.0,0.0,0.0,0.0,0.0,0.0,0.0,0.0,0.0,0.0,0.0,0.0,0.0,0.0,0.0,0.0,0.0,0.0,0.0,0.0,0.0,0.0,0.0,0.0,0.0,0.0,0.0,0.0,0.0,0.0,0.0,0.0,0.0,0.0,0.0,0.0,-0.0939,-0.1495,-0.2064,-0.2488,-0.3006,-0.2927,-0.3387,-0.4192,-0.537,-0.5733,-0.5912,-0.6754,-0.8323,-0.7853,-0.6974,-0.5961,-0.519,-0.5179,-0.5379,-0.5803,-0.6515,-0.7746,-0.9607,-1.1306,-1.1502,-1.1619,-1.1619,-1.1619,-1.164,-1.166,-1.1694,-1.1694,-1.1701,-1.1681,-1.1633,-1.1619,-1.1701,-1.1667,-1.1626,-1.1619,-1.1619,-1.164,-1.166,-1.1721,-1.1789,-1.1809,-1.1837,-1.1925,0.0,0.0,0.0,0.0,0.0,0.0,0.0,0.0,0.0,0.0,0.0,0.0,0.0,0.0,0.0,0.0,0.0,0.0,0.0,0.0,0.0,0.0,0.0,0.0,0.0,0.0,0.0,0.0,0.0,0.0,0.0,0.0,0.0,0.0,0.0,0.0,0.0,0.0,0.0,0.0,0.0,0.0,0.0,0.0,0.0,0.0,0.0,0.0,0.0,0.0,0.0,0.0,0.0,0.0,0.0,0.0,0.0,0.0,0.0,0.0,0.0,0.0,0.0,0.0,0.0,0.0,-0.0636,-0.1278,-0.1832,-0.2404,-0.2572,-0.2555,-0.2538,-0.2611,-0.3288,-0.3968,-0.4422,-0.4019,-0.5237,-0.6972,-0.6246,-0.5337,-0.4221,-0.3829,-0.3754,-0.4121,-0.4853,-0.5872,-0.7029,-0.9129,-1.1345,-1.165,-1.1789,-1.1789,-1.1782,-1.1775,-1.1775,-1.1782,-1.1789,-1.1796,-1.1809,-1.1796,-1.183,-1.1884,-1.1809,-1.1681,-1.1626,-1.1633,-1.1667,-1.1714,-1.1789,-1.1864,-1.1938,-1.2013,-1.2176,0.0,0.0,0.0,0.0,0.0,0.0,0.0,0.0,0.0,0.0,0.0,0.0,0.0,0.0,0.0,0.0,0.0,0.0,0.0,0.0,0.0,0.0,0.0,0.0,0.0,0.0,0.0,0.0,0.0,0.0,0.0,0.0,0.0,0.0,0.0,0.0,0.0,0.0,0.0,0.0,0.0,0.0,0.0,0.0,0.0,0.0,0.0,0.0,0.0,0.0,0.0,0.0,0.0,0.0,0.0,0.0,0.0,0.0,0.0,0.0,0.0,0.0,0.0,0.0,0.0,-0.0484,-0.1127,-0.1784,-0.2344,-0.2571,-0.2572,-0.2544,-0.253,-0.2525,-0.2601,-0.2905,-0.3527,-0.3599,-0.337,-0.4201,-0.4228,-0.3925,-0.3263,-0.3123,-0.3203,-0.4033,-0.4699,-0.6097,-0.7419,-0.9398,-1.1224,-1.177,-1.2006,-1.1999,-1.1993,-1.1972,-1.1959,-1.1945,-1.1952,-1.1952,-1.1986,-1.2013,-1.2033,-1.2013,-1.1918,-1.1803,-1.1728,-1.1714,-1.1803,-1.1877,-1.1898,-1.1965,-1.2081,-1.2176,-1.2257,0.0,0.0,0.0,0.0,0.0,0.0,0.0,0.0,0.0,0.0,0.0,0.0,0.0,0.0,0.0,0.0,0.0,0.0,0.0,0.0,0.0,0.0,0.0,0.0,0.0,0.0,0.0,0.0,0.0,0.0,0.0,0.0,0.0,0.0,0.0,0.0,0.0,0.0,0.0,0.0,0.0,0.0,0.0,0.0,0.0,0.0,0.0,0.0,0.0,0.0,0.0,0.0,0.0,0.0,0.0,0.0,0.0,0.0,0.0,0.0,0.0,0.0,0.0,0.0,0.0,-0.0731,-0.1217,-0.1382,-0.2109,-0.2589,-0.2582,-0.2566,-0.2556,-0.2541,-0.2526,-0.2597,-0.2826,-0.3219,-0.2991,-0.2916,-0.3348,-0.3213,-0.269,-0.27,-0.2865,-0.3707,-0.4769,-0.6186,-0.7897,-0.991,-1.1321,-1.1943,-1.2182,-1.2182,-1.2189,-1.2169,-1.2155,-1.2128,-1.2128,-1.2128,-1.2155,-1.2176,-1.2115,-1.2081,-1.2013,-1.2006,-1.1999,-1.2006,-1.202,-1.204,-1.2067,-1.2149,-1.225,-1.2332,-1.24,0.0,0.0,0.0,0.0,0.0,0.0,0.0,0.0,0.0,0.0,0.0,0.0,0.0,0.0,0.0,0.0,0.0,0.0,0.0,0.0,0.0,0.0,0.0,0.0,0.0,0.0,0.0,0.0,0.0,0.0,0.0,0.0,0.0,0.0,0.0,0.0,0.0,0.0,0.0,0.0,0.0,0.0,0.0,0.0,0.0,0.0,0.0,0.0,0.0,0.0,0.0,0.0,0.0,0.0,0.0,0.0,0.0,0.0,0.0,0.0,0.0,0.0,0.0,0.0,0.0,-0.1053,-0.1545,-0.2033,-0.2344,-0.2579,-0.2572,-0.2551,-0.254,-0.2529,-0.2523,-0.2519,-0.2514,-0.2515,-0.2595,-0.2522,-0.2526,-0.2533,-0.254,-0.2626,-0.2701,-0.3157,-0.4402,-0.603,-0.801,-1.0301,-1.1511,-1.2269,-1.2345,-1.2345,-1.2359,-1.2359,-1.2352,-1.2338,-1.2338,-1.2338,-1.2338,-1.2325,-1.2271,-1.2284,-1.2298,-1.2298,-1.2284,-1.2196,-1.2115,-1.2169,-1.2244,-1.2305,-1.2359,-1.2406,-1.2461,0.0,0.0,0.0,0.0,0.0,0.0,0.0,0.0,0.0,0.0,0.0,0.0,0.0,0.0,0.0,0.0,0.0,0.0,0.0,0.0,0.0,0.0,0.0,0.0,0.0,0.0,0.0,0.0,0.0,0.0,0.0,0.0,0.0,0.0,0.0,0.0,0.0,0.0,0.0,0.0,0.0,0.0,0.0,0.0,0.0,0.0,0.0,0.0,0.0,0.0,0.0,0.0,0.0,0.0,0.0,0.0,0.0,0.0,0.0,0.0,0.0,0.0,0.0,-0.0239,-0.0876,-0.1205,-0.1532,-0.2171,-0.248,-0.2549,-0.2544,-0.2526,-0.2522,-0.2519,-0.2515,-0.2514,-0.2515,-0.2521,-0.2519,-0.2517,-0.2519,-0.2518,-0.2526,-0.2537,-0.2613,-0.2758,-0.4018,-0.584,-0.825,-1.0701,-1.1695,-1.2433,-1.2433,-1.2433,-1.2447,-1.2474,-1.2494,-1.2501,-1.2501,-1.2488,-1.2447,-1.2447,-1.2427,-1.2467,-1.2501,-1.2467,-1.2393,-1.2284,-1.2203,-1.2291,-1.2372,-1.2406,-1.2447,-1.2488,-1.2501,0.0,0.0,0.0,0.0,0.0,0.0,0.0,0.0,0.0,0.0,0.0,0.0,0.0,0.0,0.0,0.0,0.0,0.0,0.0,0.0,0.0,0.0,0.0,0.0,0.0,0.0,0.0,0.0,0.0,0.0,0.0,0.0,0.0,0.0,0.0,0.0,0.0,0.0,0.0,0.0,0.0,0.0,0.0,0.0,0.0,0.0,0.0,0.0,0.0,0.0,0.0,0.0,0.0,0.0,0.0,0.0,0.0,0.0,0.0,0.0,0.0,0.0,0.0,-0.0238,-0.0874,-0.1184,-0.1499,-0.2064,-0.2387,-0.2537,-0.2529,-0.2517,-0.2529,-0.2532,-0.2537,-0.2536,-0.2536,-0.2532,-0.2529,-0.2518,-0.2521,-0.2533,-0.2529,-0.2545,-0.2533,-0.2677,-0.4709,-0.6602,-0.8788,-1.1095,-1.1876,-1.2481,-1.2488,-1.2488,-1.2488,-1.2501,-1.2501,-1.2501,-1.2501,-1.2501,-1.2488,-1.2501,-1.2501,-1.2501,-1.2501,-1.2501,-1.2494,-1.2406,-1.2366,-1.2447,-1.2494,-1.2474,-1.2474,-1.2494,-1.2501,0.0,0.0,0.0,0.0,0.0,0.0,0.0,0.0,0.0,0.0,0.0,0.0,0.0,0.0,0.0,0.0,0.0,0.0,0.0,0.0,0.0,0.0,0.0,0.0,0.0,0.0,0.0,0.0,0.0,0.0,0.0,0.0,0.0,0.0,0.0,0.0,0.0,0.0,0.0,0.0,0.0,0.0,0.0,0.0,0.0,0.0,0.0,0.0,0.0,0.0,0.0,0.0,0.0,0.0,0.0,0.0,0.0,0.0,0.0,0.0,0.0,0.0,0.0,-0.0321,-0.0881,-0.1203,-0.1685,-0.2088,-0.2404,-0.256,-0.2567,-0.2568,-0.2572,-0.2568,-0.2566,-0.2563,-0.256,-0.2556,-0.2556,-0.2552,-0.2562,-0.2574,-0.2566,-0.2556,-0.2537,-0.2675,-0.5019,-0.7279,-0.9226,-1.1095,-1.1798,-1.2501,-1.2501,-1.2501,-1.2501,-1.2501,-1.2501,-1.2501,-1.2501,-1.2501,-1.2501,-1.2501,-1.2501,-1.2501,-1.2501,-1.2501,-1.2501,-1.2501,-1.2501,-1.2501,-1.2501,-1.2494,-1.2501,-1.2501,-1.2501,0.0,0.0,0.0,0.0,0.0,0.0,0.0,0.0,0.0,0.0,0.0,0.0,0.0,0.0,0.0,0.0,0.0,0.0,0.0,0.0,0.0,0.0,0.0,0.0,0.0,0.0,0.0,0.0,0.0,0.0,0.0,0.0,0.0,0.0,0.0,0.0,0.0,0.0,0.0,0.0,0.0,0.0,0.0,0.0,0.0,0.0,0.0,0.0,0.0,0.0,0.0,0.0,0.0,0.0,0.0,0.0,0.0,0.0,0.0,0.0,0.0,0.0,0.0,0.0,-0.1058,-0.1302,-0.1622,-0.2433,-0.2598,-0.2602,-0.2604,-0.2594,-0.2592,-0.2586,-0.2587,-0.2586,-0.2587,-0.2585,-0.2589,-0.259,-0.2597,-0.2596,-0.259,-0.2575,-0.2552,-0.2845,-0.4393,-0.6499,-0.837,-1.0086,-1.1566,-1.2114,-1.2501,-1.2501,-1.2501,-1.2515,-1.2522,-1.2501,-1.2501,-1.2501,-1.2501,-1.2515,-1.2515,-1.2501,-1.2501,-1.2501,-1.2501,-1.2501,-1.2501,-1.2501,-1.2501,-1.2501,-1.2501,-1.2501,-1.2501,0.0,0.0,0.0,0.0,0.0,0.0,0.0,0.0,0.0,0.0,0.0,0.0,0.0,0.0,0.0,0.0,0.0,0.0,0.0,0.0,0.0,0.0,0.0,0.0,0.0,0.0,0.0,0.0,0.0,0.0,0.0,0.0,0.0,0.0,0.0,0.0,0.0,0.0,0.0,0.0,0.0,0.0,0.0,0.0,0.0,0.0,0.0,0.0,0.0,0.0,0.0,0.0,0.0,0.0,0.0,0.0,0.0,0.0,0.0,0.0,0.0,0.0,0.0,0.0,-0.1061,-0.1386,-0.1635,-0.246,-0.2616,-0.2612,-0.2607,-0.2609,-0.2616,-0.2622,-0.2626,-0.2628,-0.2632,-0.2623,-0.2627,-0.263,-0.2615,-0.2604,-0.2604,-0.2594,-0.2568,-0.3021,-0.4169,-0.5724,-0.7624,-0.9448,-1.1119,-1.2155,-1.2637,-1.2637,-1.2644,-1.2569,-1.2542,-1.2522,-1.2549,-1.2603,-1.261,-1.2617,-1.2596,-1.2542,-1.2542,-1.2576,-1.2542,-1.2508,-1.2528,-1.2542,-1.2508,-1.2501,-1.2501,-1.2501,-1.2501,0.0,0.0,0.0,0.0,0.0,0.0,0.0,0.0,0.0,0.0,0.0,0.0,0.0,0.0,0.0,0.0,0.0,0.0,0.0,0.0,0.0,0.0,0.0,0.0,0.0,0.0,0.0,0.0,0.0,0.0,0.0,0.0,0.0,0.0,0.0,0.0,0.0,0.0,0.0,0.0,0.0,0.0,0.0,0.0,0.0,0.0,0.0,0.0,0.0,0.0,0.0,0.0,0.0,0.0,0.0,0.0,0.0,0.0,0.0,0.0,0.0,0.0,0.0,-0.0415,-0.1164,-0.1331,-0.1831,-0.2409,-0.2653,-0.2654,-0.2664,-0.2684,-0.2694,-0.2698,-0.2701,-0.2701,-0.2698,-0.2677,-0.2669,-0.2671,-0.2662,-0.2643,-0.2637,-0.2631,-0.2608,-0.2917,-0.3858,-0.5439,-0.7282,-0.9213,-1.0912,-1.2198,-1.2847,-1.2827,-1.28,-1.2732,-1.2725,-1.2739,-1.2779,-1.2834,-1.282,-1.2752,-1.2766,-1.2759,-1.2705,-1.2651,-1.2644,-1.263,-1.2603,-1.2589,-1.2596,-1.2556,-1.2535,-1.2522,-1.2508,0.0,0.0,0.0,0.0,0.0,0.0,0.0,0.0,0.0,0.0,0.0,0.0,0.0,0.0,0.0,0.0,0.0,0.0,0.0,0.0,0.0,0.0,0.0,0.0,0.0,0.0,0.0,0.0,0.0,0.0,0.0,0.0,0.0,0.0,0.0,0.0,0.0,0.0,0.0,0.0,0.0,0.0,0.0,0.0,0.0,0.0,0.0,0.0,0.0,0.0,0.0,0.0,0.0,0.0,0.0,0.0,0.0,0.0,0.0,0.0,0.0,0.0,0.0,-0.0589,-0.1178,-0.151,-0.193,-0.2435,-0.2608,-0.2691,-0.2695,-0.2721,-0.2724,-0.2725,-0.2724,-0.2721,-0.2716,-0.2692,-0.2686,-0.269,-0.269,-0.2676,-0.2667,-0.2664,-0.2653,-0.3055,-0.3535,-0.5153,-0.6668,-0.8365,-1.0066,-1.1368,-1.2575,-1.2782,-1.2842,-1.2901,-1.2908,-1.3029,-1.2976,-1.3003,-1.3029,-1.2868,-1.3009,-1.3043,-1.2874,-1.2807,-1.2793,-1.2773,-1.2759,-1.2752,-1.2752,-1.2691,-1.2603,-1.2596,-1.2617,0.0,0.0,0.0,0.0,0.0,0.0,0.0,0.0,0.0,0.0,0.0,0.0,0.0,0.0,0.0,0.0,0.0,0.0,0.0,0.0,0.0,0.0,0.0,0.0,0.0,0.0,0.0,0.0,0.0,0.0,0.0,0.0,0.0,0.0,0.0,0.0,0.0,0.0,0.0,0.0,0.0,0.0,0.0,0.0,0.0,0.0,0.0,0.0,0.0,0.0,0.0,0.0,0.0,0.0,0.0,0.0,0.0,0.0,0.0,0.0,0.0,0.0,0.0,-0.0842,-0.1262,-0.1682,-0.2103,-0.244,-0.2692,-0.2692,-0.2697,-0.2701,-0.2706,-0.2706,-0.2706,-0.2705,-0.2703,-0.2695,-0.2692,-0.2692,-0.2692,-0.2686,-0.2684,-0.2683,-0.2676,-0.284,-0.316,-0.3643,-0.5188,-0.6632,-0.8345,-1.0054,-1.1265,-1.2533,-1.2695,-1.2653,-1.3085,-1.3125,-1.3085,-1.3091,-1.303,-1.3024,-1.3078,-1.3091,-1.309,-1.2963,-1.2949,-1.2942,-1.2929,-1.2922,-1.2922,-1.2854,-1.2773,-1.2813,-1.2847,0.0,0.0,0.0,0.0,0.0,0.0,0.0,0.0,0.0,0.0,0.0,0.0,0.0,0.0,0.0,0.0,0.0,0.0,0.0,0.0,0.0,0.0,0.0,0.0,0.0,0.0,0.0,0.0,0.0,0.0,0.0,0.0,0.0,0.0,0.0,0.0,0.0,0.0,0.0,0.0,0.0,0.0,0.0,0.0,0.0,0.0,0.0,0.0,0.0,0.0,0.0,0.0,0.0,0.0,0.0,0.0,0.0,0.0,0.0,0.0,0.0,0.0,0.0,-0.0842,-0.1262,-0.1682,-0.2187,-0.2524,-0.2692,-0.2692,-0.2697,-0.2701,-0.2706,-0.2709,-0.2709,-0.2707,-0.2706,-0.2698,-0.2695,-0.2692,-0.2692,-0.2692,-0.2692,-0.2691,-0.2686,-0.269,-0.2771,-0.3094,-0.383,-0.5465,-0.6687,-0.841,-0.9897,-1.1119,-1.191,-1.1953,-1.2788,-1.3288,-1.2988,-1.2968,-1.3234,-1.3241,-1.3261,-1.3227,-1.3159,-1.3125,-1.3112,-1.3098,-1.3071,-1.3098,-1.3091,-1.3017,-1.2963,-1.301,-1.3024,0.0,0.0,0.0,0.0,0.0,0.0,0.0,0.0,0.0,0.0,0.0,0.0,0.0,0.0,0.0,0.0,0.0,0.0,0.0,0.0,0.0,0.0,0.0,0.0,0.0,0.0,0.0,0.0,0.0,0.0,0.0,0.0,0.0,0.0,0.0,0.0,0.0,0.0,0.0,0.0,0.0,0.0,0.0,0.0,0.0,0.0,0.0,0.0,0.0,0.0,0.0,0.0,0.0,0.0,0.0,0.0,0.0,0.0,0.0,0.0,0.0,0.0,-0.0421,-0.0842,-0.1262,-0.1766,-0.2187,-0.2608,-0.2608,-0.2694,-0.2701,-0.2706,-0.2712,-0.2717,-0.2717,-0.2717,-0.271,-0.2701,-0.2697,-0.2692,-0.2692,-0.2692,-0.2692,-0.2692,-0.2692,-0.2692,-0.2692,-0.2772,-0.3519,-0.4762,-0.5671,-0.6832,-0.826,-0.9604,-1.0221,-1.0804,-1.1286,-1.1771,-1.1931,-1.2096,-1.2899,-1.3383,-1.3342,-1.3329,-1.3315,-1.3281,-1.3241,-1.322,-1.32,-1.3227,-1.3247,-1.3207,-1.3173,-1.3193,-1.3193,0.0,0.0,0.0,0.0,0.0,0.0,0.0,0.0,0.0,0.0,0.0,0.0,0.0,0.0,0.0,0.0,0.0,0.0,0.0,0.0,0.0,0.0,0.0,0.0,0.0,0.0,0.0,0.0,0.0,0.0,0.0,0.0,0.0,0.0,0.0,0.0,0.0,0.0,0.0,0.0,0.0,0.0,0.0,0.0,0.0,0.0,0.0,0.0,0.0,0.0,0.0,0.0,0.0,0.0,0.0,0.0,0.0,0.0,0.0,0.0,0.0,0.0,-0.0421,-0.0842,-0.1262,-0.1766,-0.2187,-0.2608,-0.2692,-0.2692,-0.2697,-0.2698,-0.2702,-0.2705,-0.2705,-0.2705,-0.2701,-0.2695,-0.2695,-0.2692,-0.2692,-0.2692,-0.2692,-0.2692,-0.2692,-0.2692,-0.2692,-0.2692,-0.3114,-0.412,-0.4626,-0.5295,-0.6627,-0.7797,-0.8131,-0.8716,-0.9304,-0.98,-1.0304,-1.1309,-1.2063,-1.2733,-1.3397,-1.3376,-1.3363,-1.3376,-1.3356,-1.3322,-1.3302,-1.3329,-1.3356,-1.3376,-1.3376,-1.3342,-1.3329,0.0,0.0,0.0,0.0,0.0,0.0,0.0,0.0,0.0,0.0,0.0,0.0,0.0,0.0,0.0,0.0,0.0,0.0,0.0,0.0,0.0,0.0,0.0,0.0,0.0,0.0,0.0,0.0,0.0,0.0,0.0,0.0,0.0,0.0,0.0,0.0,0.0,0.0,0.0,0.0,0.0,0.0,0.0,0.0,0.0,0.0,0.0,0.0,0.0,0.0,0.0,0.0,0.0,0.0,0.0,0.0,0.0,0.0,0.0,0.0,0.0,0.0,0.0,0.0,-0.1178,-0.1682,-0.2104,-0.244,-0.2692,-0.2692,-0.2692,-0.2692,-0.2695,-0.2695,-0.2697,-0.2697,-0.2697,-0.2695,-0.2694,-0.2692,-0.2692,-0.2692,-0.2694,-0.2694,-0.2692,-0.2692,-0.2692,-0.2694,-0.2699,-0.3291,-0.3384,-0.4054,-0.5041,-0.5957,-0.6208,-0.671,-0.7379,-0.8048,-0.8549,-0.9721,-1.1059,-1.1641,-1.2146,-1.3065,-1.3397,-1.3065,-1.2982,-1.339,-1.3383,-1.3397,-1.3397,-1.3397,-1.3397,-1.3376,-1.3383,0.0,0.0,0.0,0.0,0.0,0.0,0.0,0.0,0.0,0.0,0.0,0.0,0.0,0.0,0.0,0.0,0.0,0.0,0.0,0.0,0.0,0.0,0.0,0.0,0.0,0.0,0.0,0.0,0.0,0.0,0.0,0.0,0.0,0.0,0.0,0.0,0.0,0.0,0.0,0.0,0.0,0.0,0.0,0.0,0.0,0.0,0.0,0.0,0.0,0.0,0.0,0.0,0.0,0.0,0.0,0.0,0.0,0.0,0.0,0.0,0.0,0.0,0.0,0.0,0.0,-0.1701,-0.2035,-0.2373,-0.2611,-0.2692,-0.2699,-0.2702,-0.2713,-0.2718,-0.2731,-0.2739,-0.2728,-0.2718,-0.2707,-0.2692,-0.2695,-0.2703,-0.2706,-0.2718,-0.2721,-0.2742,-0.2735,-0.2729,-0.2729,-0.2721,-0.2724,-0.2893,-0.398,-0.4208,-0.4285,-0.4787,-0.5457,-0.6128,-0.6794,-0.7964,-0.9133,-1.0055,-1.0893,-1.1309,-1.1724,-1.2056,-1.2139,-1.2644,-1.3314,-1.3397,-1.3397,-1.3397,-1.3397,-1.3314,-1.3314,0.0,0.0,0.0,0.0,0.0,0.0,0.0,0.0,0.0,0.0,0.0,0.0,0.0,0.0,0.0,0.0,0.0,0.0,0.0,0.0,0.0,0.0,0.0,0.0,0.0,0.0,0.0,0.0,0.0,0.0,0.0,0.0,0.0,0.0,0.0,0.0,0.0,0.0,0.0,0.0,0.0,0.0,0.0,0.0,0.0,0.0,0.0,0.0,0.0,0.0,0.0,0.0,0.0,0.0,0.0,0.0,0.0,0.0,0.0,0.0,0.0,0.0,0.0,0.0,0.0,-0.1545,-0.197,-0.2391,-0.2629,-0.2709,-0.2717,-0.2724,-0.2736,-0.2746,-0.2762,-0.2773,-0.2757,-0.2743,-0.2727,-0.2706,-0.2712,-0.2721,-0.2729,-0.2742,-0.2755,-0.2777,-0.2785,-0.2784,-0.2778,-0.2763,-0.2757,-0.2751,-0.3254,-0.3149,-0.2874,-0.3369,-0.421,-0.4369,-0.5206,-0.6211,-0.7296,-0.8549,-0.9137,-0.8887,-0.9388,-1.0221,-1.1225,-1.189,-1.2478,-1.2982,-1.2644,-1.2478,-1.3148,-1.3148,-1.3065,0.0,0.0,0.0,0.0,0.0,0.0,0.0,0.0,0.0,0.0,0.0,0.0,0.0,0.0,0.0,0.0,0.0,0.0,0.0,0.0,0.0,0.0,0.0,0.0,0.0,0.0,0.0,0.0,0.0,0.0,0.0,0.0,0.0,0.0,0.0,0.0,0.0,0.0,0.0,0.0,0.0,0.0,0.0,0.0,0.0,0.0,0.0,0.0,0.0,0.0,0.0,0.0,0.0,0.0,0.0,0.0,0.0,0.0,0.0,0.0,0.0,0.0,0.0,0.0,-0.1042,-0.1391,-0.1909,-0.2605,-0.2766,-0.2762,-0.2766,-0.2766,-0.2774,-0.2778,-0.2789,-0.2788,-0.2778,-0.2774,-0.2766,-0.2758,-0.2758,-0.2763,-0.2769,-0.2776,-0.2778,-0.2793,-0.2797,-0.2797,-0.28,-0.2793,-0.2789,-0.2782,-0.2774,-0.2754,-0.2735,-0.2796,-0.3298,-0.3288,-0.3535,-0.4551,-0.581,-0.7299,-0.763,-0.7045,-0.7797,-0.8799,-0.9805,-1.0471,-1.1475,-1.1896,-1.1392,-1.1392,-1.2146,-1.2644,-1.2395]}]]